     2              OBSERVATION DATA    GPS                 RINEX VERSION / TYPE
teqc 2000Feb29 20030210 22:43:41UTC                         PGM / RUN BY / DATE
                                                            COMMENT
L2: 1 -> 1; 150 -> 5; 250 -> 9                              COMMENT
L2: 1 -> 1; 150 -> 5; 250 -> 9                              COMMENT
L2: 1 -> 1; 150 -> 5; 250 -> 9                              COMMENT
L2: 1 -> 1; 150 -> 5; 250 -> 9                              COMMENT
L2: 1 -> 1; 150 -> 5; 250 -> 9                              COMMENT
Original Marker Name: CJGG                                  COMMENT
Campaign Name: Northern Baja California                     COMMENT
4-Character Station Name: CJGG                              COMMENT
6-Character Antenna Code: DMRCHT                            COMMENT
Vertical Measurement Point: BCR                             COMMENT
Vertical Offset to Rinex Ref. Point: 0.0348                 COMMENT
Radial Measurement Point: ECF                               COMMENT
Radial Offset to Rinex Ref. Point: 0.1897                   COMMENT
Antenna Height from Field Measurement: 1.5005 m             COMMENT
Additional Antenna Identification Info.:                    COMMENT
Turborogue and Ashtech Choke Ring                           COMMENT
Original XYZ: -2274487.5958 -4896754.7028 3384035.8859      COMMENT
New XYZ position is based on association with SCEC monument COMMENT
E1C2W4P7+0011. Position of that monument is believed to be  COMMENT
valid to within 1 m horizontally; vertical accuracy         COMMENT
should be no worse than 3-times this value.                 COMMENT
                                                            COMMENT
Revised Rinex header created by UCSD GPS archive for        COMMENT
GSAC on 11-Jul-2003 (2003:192) 15:53:38 GMT                 COMMENT
For assistance contact dagnew@ucsd.edu                      COMMENT
or anderson@python.ucsd.edu                                 COMMENT
                                                            COMMENT
CASA DE JAVIER GONZALEZ                                     MARKER NAME
JGG CICESE (ENSENADA)                                       OBSERVER / AGENCY
734 ASHTECH Z-XII3 CC00                                     REC # / TYPE / VERS
003 DORNE-MARGOL. TYPE T                                    ANT # / TYPE
 -2431153.7404 -4846192.5940  3348020.9193                  APPROX POSITION XYZ
        1.4537        0.0000        0.0000                  ANTENNA: DELTA H/E/N
     1     1     0                                          WAVELENGTH FACT L1/2
     7    C1    L1    L2    P1    P2    S1    S2            # / TYPES OF OBSERV
     0                                                      INTERVAL
  2003     1    11    19    19   30.000000                  TIME OF FIRST OBS
  2003     1    11    23    59   30.000000                  TIME OF LAST OBS
                                                            END OF HEADER
 03  1 11 19 19 30.0000000  0  6G28G26G29G 7G 8G11
  21530145.447      -35888.00249    -24624.37247  21530145.251    21530153.063
       242.000         204.000
  22649836.072      -38050.79749    -27737.12646  22649836.025    22649846.312
       231.000         181.000
  22516544.394       -4907.55649     -3476.50246  22516544.461    22516554.654
       228.000         182.000
  20627551.781     -110196.13149    -74125.03248  20627551.163    20627559.792
       243.000         215.000
  22121734.008      126043.69949     92585.80546  22121733.652    22121744.207
       229.000         186.000
                     54090.55049     38098.60345                  24422201.890
       211.000         136.000
 03  1 11 19 19 59.9990000  0  6G28G26G29G 7G 8G11
  21227727.299      -49687.81749    -35377.50247  21227726.850    21227734.707
       242.000         208.000
  22347446.827      -51697.45749    -38370.95946  22347446.495    22347456.425
       229.000         181.000
  22216532.965       -6057.96249     -4373.00246  22216532.794    22216543.260
       229.000         183.000
  20320557.281     -148045.56649   -103618.09948  20320556.132    20320564.821
       243.000         216.000
  21830473.938      170883.33249    127525.66246  21830473.917    21830484.408
       232.000         181.000
  24126589.572       76128.05949     55270.54045  24126590.829    24126603.568
       212.000         143.000
 03  1 11 19 20 30.0000000  0  6G28G26G29G 7G 8G11
  21357868.655     -941209.73449   -730069.90747  21357868.345    21357875.886
       243.000         204.000
  22477687.129     -942696.88449   -732656.28446  22477687.101    22477697.415
       229.000         179.000
  22349144.023     -884604.16249   -688954.55746  22349143.950    22349153.770
       228.000         181.000
  20446173.516    -1063346.02949   -816839.23848  20446172.619    20446181.267
       243.000         215.000
  21971815.911     -661780.57449   -521303.49246  21971815.359    21971826.541
       231.000         187.000
  24263606.067     -779271.24549   -611274.52445  24263605.785    24263618.455
       214.000         144.000
 03  1 11 19 21  0.0000000  0  6G28G26G29G 7G 8G11
  21362678.696     -915932.63749   -710373.47147  21362678.276    21362686.022
       242.000         203.000
  22482666.483     -916529.74749   -712266.37146  22482666.744    22482676.919
       227.000         179.000
  22356484.849     -846027.68749   -658895.04446  22356484.878    22356495.302
       231.000         182.000
  20446510.120    -1061576.53849   -815460.41448  20446509.526    20446518.329
       244.000         216.000
  21987867.275     -577430.54249   -455576.30746  21987867.026    21987877.696
       231.000         187.000
  24275344.093     -717589.12149   -563210.65445  24275343.469    24275357.370
       213.000         146.000
 03  1 11 19 21 30.0000000  0  6G28G26G29G 7G 8G11
  21367514.121     -890522.11249   -690573.07347  21367513.568    21367521.672
       242.000         203.000
  22487741.058     -889863.34249   -691487.42346  22487741.121    22487751.830
       229.000         179.000
  22363912.329     -806996.20549   -628480.98246  22363911.996    22363922.409
       229.000         183.000
  20446923.478    -1059404.55649   -813767.96248  20446922.820    20446931.726
       243.000         216.000
  22003984.812     -492732.76049   -389578.16246  22003984.499    22003994.830
       231.000         187.000
  24287160.761     -655492.55149   -514823.87745  24287161.438    24287173.562
       215.000         147.000
 03  1 11 19 22  0.0000000  0  6G28G26G29G 7G 8G11
  21372375.809     -864973.74649   -670665.26747  21372375.812    21372383.547
       242.000         202.000
  22492911.059     -862695.48349   -670317.72246  22492911.012    22492921.527
       229.000         180.000
  22371426.825     -767507.83249   -597710.90546  22371426.684    22371437.035
       228.000         183.000
  20447414.006    -1056827.10249   -811759.56048  20447413.430    20447422.193
       243.000         216.000
  22020168.960     -407684.70449   -323307.06746  22020168.704    22020179.547
       231.000         187.000
  24299056.697     -592979.24249   -466112.37545  24299055.974    24299069.627
       212.000         146.000
 03  1 11 19 22 30.0000000  0  6G28G26G29G 7G 8G11
  21377262.954     -839292.20049   -650653.68347  21377262.489    21377270.063
       241.000         202.000
  22498175.152     -835032.61249   -648762.29846  22498175.217    22498186.138
       227.000         179.000
  22379026.814     -727569.67549   -566590.36646  22379026.003    22379037.364
       228.000         182.000
  20447980.499    -1053850.25149   -809439.93848  20447979.768    20447988.526
       243.000         216.000
  22036418.624     -322292.46149   -256767.77147  22036418.265    22036429.098
       230.000         188.000
  24311030.669     -530055.55149   -417081.10545  24311031.123    24311042.900
       213.000         146.000
 03  1 11 19 23  0.0000000  0  6G28G26G29G 7G 8G11
  21382175.835     -813475.05349   -630536.43747  21382175.758    21382182.767
       242.000         201.000
  22503533.556     -806874.10649   -626820.67546  22503533.738    22503544.128
       226.000         179.000
  22386712.519     -687181.40249   -535119.07346  22386713.161    22386722.393
       231.000         181.000
  20448623.195    -1050472.62449   -806808.02048  20448622.643    20448631.287
       243.000         216.000
  22052734.000     -236555.26449   -189959.69146  22052733.840    22052744.961
       230.000         187.000
  24323082.847     -466720.90149   -367729.58345  24323082.031    24323096.283
       211.000         148.000
 03  1 11 19 23 30.0000000  0  7G28G26G 4G29G 7G 8G11
  21387114.478     -787523.13049   -610314.16747  21387114.329    21387121.489
       243.000         202.000
  22508985.771     -778222.66349   -604494.93846  22508986.033    22508995.808
       229.000         180.000
  23624134.143    -1061800.15649   -799741.51145  23624134.652    23624148.758
       216.000         156.000
  22394483.254     -646346.51049   -503299.73746  22394483.422    22394493.923
       230.000         182.000
  20449341.775    -1046696.69749   -803865.73948  20449341.066    20449349.842
       242.000         216.000
  22069114.471     -150475.59049   -122884.75346  22069114.320    22069125.566
       230.000         186.000
  24335212.578     -402978.13549   -318060.05645  24335212.803    24335226.534
       214.000         148.000
 03  1 11 19 24  0.0000000  0  7G28G26G 4G29G 7G 8G11
  21392078.588     -761436.69149   -589987.08047  21392078.112    21392085.957
       242.000         202.000
  22514531.467     -749080.76749   -581787.02146  22514531.954    22514542.008
       227.000         180.000
  23604273.280    -1166161.73449   -881062.09145  23604275.140    23604289.139
       215.000         157.000
  22402338.492     -605067.50549   -471134.37746  22402338.524    22402349.113
       229.000         182.000
  20450135.789    -1042524.10749   -800614.36648  20450135.156    20450143.874
       243.000         216.000
  22085559.689      -64055.68349    -55544.68046  22085559.315    22085570.757
       230.000         185.000
  24347419.800     -338829.82749   -268074.53945  24347420.202    24347433.036
       215.000         147.000
 03  1 11 19 24 30.0000000  0  7G28G26G 4G29G 7G 8G11
  21397069.322     -735210.33549   -569550.97247  21397068.518    21397076.630
       241.000         202.000
  22520171.073     -719444.95749   -558694.23846  22520171.650    22520181.957
       228.000         180.000
  23584423.312    -1270478.19549   -962347.52245  23584424.083    23584438.720
       217.000         159.000
  22410278.803     -563341.72549   -438620.87346  22410279.187    22410289.394
       229.000         183.000
  20451006.039    -1037951.00149   -797050.89648  20451005.394    20451014.063
       243.000         216.000
  22102070.389       22708.12049     12063.35146  22102070.325    22102081.982
       229.000         185.000
  24359704.849     -274272.50849   -217770.29245  24359705.277    24359718.266
       215.000         147.000
 03  1 11 19 25  0.0000000  0  7G28G26G 4G29G 7G 8G11
  21402085.566     -708849.62549   -549010.17347  21402085.035    21402093.046
       241.000         202.000
  22525903.302     -689322.81249   -535222.50046  22525903.561    22525913.996
       229.000         180.000
  23564580.883    -1374752.32749  -1043599.97545  23564582.049    23564595.434
       218.000         160.000
  22418302.531     -521177.05149   -405765.36646  22418302.802    22418312.540
       227.000         182.000
  20451951.189    -1032984.22749   -793180.68148  20451950.669    20451958.960
       244.000         215.000
  22118645.156      109808.64949     79933.77046  22118644.981    22118656.225
       229.000         184.000
  24372066.442     -209313.58349   -167153.09145  24372067.369    24372080.063
       214.000         146.000
 03  1 11 19 25 30.0000000  0  7G28G26G 4G29G 7G 8G11
  21407127.872     -682352.22749   -528362.85147  21407127.484    21407135.527
       241.000         202.000
  22531728.055     -658714.31949   -511371.78046  22531728.739    22531738.423
       229.000         180.000
  23544747.327    -1478979.37449  -1124815.73245  23544748.290    23544762.091
       219.000         160.000
  22426409.606     -478573.98249   -372568.25546  22426409.640    22426419.960
       227.000         179.000
  20452971.435    -1027623.10549   -789003.17848  20452970.953    20452979.253
       244.000         215.000
  22135284.031      197245.96149    148066.61846  22135283.222    22135295.341
       228.000         182.000
  24384504.292     -143953.21449   -116223.08745  24384504.859    24384519.904
       211.000         144.000
 03  1 11 19 26  0.0000000  0  7G28G26G 4G29G 7G 8G11
  21412196.384     -655717.24349   -507608.32847  21412195.925    21412203.803
       242.000         202.000
  22537645.069     -627620.45749   -487142.84946  22537645.113    22537655.451
       228.000         181.000
  23524923.677    -1583155.24749  -1205991.62245  23524924.184    23524937.852
       218.000         160.000
  22434599.733     -435533.89649   -339030.61646  22434599.310    22434610.473
       226.000         178.000
  20454066.585    -1021868.26549   -784518.87948  20454066.095    20454074.534
       244.000         216.000
  22151986.962      285019.72849    216461.63546  22151987.088    22151998.001
       229.000         181.000
  24397018.226      -78192.38349    -64981.06545  24397017.087    24397032.899
       208.000         143.000
 03  1 11 19 26 30.0000000  0  7G28G26G 4G29G 7G 8G11
  21417291.215     -628944.26549   -486746.27647  21417291.048    21417298.964
       242.000         203.000
  22543654.114     -596042.98849   -462537.08546  22543654.213    22543664.293
       229.000         180.000
  23505110.136    -1687276.80549  -1287125.17645  23505109.102    23505124.274
       214.000         158.000
  22442872.781     -392059.07049   -305154.21946  22442873.132    22442884.283
       229.000         180.000
  20455236.475    -1015720.64049   -779728.50948  20455235.915    20455244.633
       244.000         216.000
  22168753.573      373128.11249    285117.39446  22168752.682    22168764.471
       227.000         180.000
  24409607.825      -12032.72249    -13428.26145  24409607.560    24409620.936
       208.000         143.000
 03  1 11 19 27  0.0000000  0  7G28G26G 4G29G 7G 8G11
  21422412.276     -602033.02949   -465776.49147  21422411.743    21422420.194
       241.000         203.000
  22549754.818     -563983.73449   -437555.89946  22549754.450    22549765.581
       228.000         180.000
  23485307.354    -1791340.86249  -1368213.95445  23485307.630    23485320.710
       213.000         157.000
  22451228.156     -348151.73149   -270940.79246  22451228.288    22451239.218
       228.000         181.000
  20456480.836    -1009181.60849   -774633.14348  20456480.143    20456488.807
       243.000         216.000
  22185583.479      461569.74449    354032.81646  22185583.270    22185594.411
       227.000         180.000
  24422273.001       54523.98749     38433.95245  24422273.612    24422287.659
       210.000         144.000
 03  1 11 19 27 30.0000000  0  7G28G26G 4G29G 7G 8G11
  21427559.554     -574983.55149   -444698.99247  21427559.239    21427566.988
       242.000         203.000
  22555946.801     -531445.09749   -412201.16446  22555946.753    22555957.230
       228.000         180.000
  23465516.027    -1895344.87749  -1449255.94245  23465516.171    23465530.390
       215.000         157.000
  22459665.294     -303814.65049   -236392.50446  22459665.647    22459676.603
       226.000         181.000
  20457799.358    -1002252.72549   -769234.00248  20457798.871    20457807.420
       244.000         216.000
  22202476.330      550342.60049    423206.34046  22202475.676    22202487.527
       228.000         180.000
  24435013.493      121475.24649     90603.60645  24435013.712    24435026.523
       210.000         143.000
 03  1 11 19 28  0.0000000  0  7G28G26G 4G29G 7G 8G11
  21432733.453     -547794.98849   -423513.10647  21432733.208    21432740.952
       242.000         203.000
  22562229.741     -498428.26349   -386473.81746  22562229.923    22562240.688
       228.000         180.000
  23445737.063    -1999285.21449  -1530248.30045  23445737.064    23445751.307
       217.000         158.000
  22468183.714     -259049.54649   -201510.69446  22468183.980    22468193.996
       224.000         178.000
  20459192.007     -994934.74849   -763531.66348  20459191.526    20459200.108
       244.000         216.000
  22219432.121      639445.67449    492637.18646  22219432.177    22219443.084
       229.000         181.000
  24447828.991      188819.86449    143079.75245  24447830.319    24447843.500
       211.000         142.000
 03  1 11 19 28 30.0000000  0  7G28G26G 4G29G 7G 8G11
  21437933.509     -520468.96949   -402220.12447  21437933.168    21437941.031
       242.000         202.000
  22568602.857     -464937.31949   -360377.03446  22568603.571    22568613.541
       228.000         180.000
  23425970.350    -2103160.67249  -1611190.11045  23425970.158    23425983.354
       217.000         158.000
  22476782.893     -213860.85149   -166298.79946  22476782.327    22476793.851
       226.000         177.000
  20460658.015     -987230.93249   -757528.66348  20460657.062    20460666.054
       243.000         216.000
  22236450.187      728875.41349    562322.56946  22236450.466    22236461.487
       231.000         182.000
  24460718.553      256554.19149    195859.58445  24460720.136    24460734.061
       210.000         143.000
 03  1 11 19 29  0.0000000  0  7G28G26G 4G29G 7G 8G11
  21443159.791     -493004.98149   -380819.61647  21443159.420    21443167.212
       242.000         202.000
  22575066.007     -430973.71349   -333911.93746  22575066.587    22575076.953
       228.000         179.000
  23406216.525    -2206967.81249  -1692078.68945  23406215.814    23406230.038
       218.000         158.000
  22485462.405     -168250.61149   -130758.43046  22485462.578    22485473.133
       229.000         179.000
  20462197.144     -979142.26449   -751225.78648  20462196.466    20462205.192
       243.000         216.000
  22253530.268      818630.31949    632261.33446  22253530.212    22253542.238
       231.000         184.000
  24473682.053      324676.48249    248941.73145  24473683.581    24473695.310
       210.000         145.000
 03  1 11 19 29 30.0000000  0  7G28G26G 4G29G 7G 8G11
  21448412.573     -465401.86849   -359310.71247  21448412.203    21448419.869
       241.000         202.000
  22581618.796     -396538.77449   -307079.57346  22581618.941    22581629.628
       227.000         178.000
  23386476.247    -2310702.82749  -1772911.06745  23386475.620    23386489.742
       216.000         158.000
  22494221.789     -122220.49449    -94890.87846  22494221.854    22494232.907
       230.000         181.000
  20463809.530     -970669.21949   -744623.39748  20463808.960    20463817.442
       243.000         216.000
  22270672.018      908709.84649    702453.04546  22270672.224    22270683.191
       230.000         184.000
  24486719.199      393185.43549    302325.17045  24486719.817    24486733.056
       213.000         146.000
 03  1 11 19 30  0.0000000  0  8G28G 9G26G 4G29G 7G 8G11
  21453691.839     -437659.15749   -337693.03647  21453691.369    21453699.427
       241.000         202.000
  24356564.482    -1062950.20749   -809037.02245  24356564.651    24356578.903
       210.000         147.000
  22588260.843     -361634.03649   -279881.12446  22588260.902    22588271.918
       227.000         177.000
  23366750.387    -2414362.29649  -1853684.55945  23366749.966    23366763.155
       218.000         159.000
  22503060.686      -75772.45149    -58697.68946  22503060.845    22503071.343
       227.000         180.000
  20465494.877     -961812.76049   -737722.23948  20465494.183    20465502.947
       244.000         216.000
  22287875.258      999112.69149    772896.68846  22287875.425    22287887.143
       228.000         183.000
  24499829.675      462079.51049    356008.70245  24499831.450    24499843.630
       213.000         147.000
 03  1 11 19 30 30.0000000  0  8G28G 9G26G 4G29G 7G 8G11
  21458996.596     -409782.20349   -315970.75947  21458995.896    21459004.122
       240.000         201.000
  24336945.464    -1166048.66949   -889373.33545  24336944.794    24336960.576
       209.000         147.000
  22594990.863     -326267.33349   -252322.70646  22594991.273    22595002.414
       228.000         176.000
  23347038.227    -2517948.85249  -1934401.23745  23347038.222    23347052.826
       216.000         158.000
  22511977.374      -28914.80949    -22185.32146  22511977.602    22511988.677
       226.000         178.000
  20467251.811     -952579.96749   -730527.83348  20467250.997    20467259.981
       243.000         216.000
  22305138.486     1089831.24049    843586.32846  22305138.374    22305150.359
       228.000         182.000
  24513012.035      531351.18449    409986.47145  24513012.065    24513025.011
       211.000         145.000
 03  1 11 19 31  0.0000000  0  8G28G 9G26G 4G29G 7G 8G11
  21464328.704     -381761.64349   -294136.58447  21464328.125    21464336.013
       241.000         201.000
  24317345.052    -1269048.82549   -969633.07545  24317344.033    24317359.529
       210.000         148.000
  22601810.364     -290431.73749   -224398.93446  22601810.622    22601821.374
       226.000         175.000
  23327342.245    -2621450.35149  -2015051.63645  23327342.157    23327355.561
       216.000         157.000
  22520973.438       18359.07149     14651.37846  22520973.385    22520984.107
       228.000         177.000
  20469081.779     -942963.26549   -723034.28648  20469081.080    20469089.780
       243.000         216.000
  22322463.285     1180873.00249    914527.82546  22322463.080    22322476.055
       226.000         179.000
  24526267.295      601007.47949    464263.94745  24526267.239    24526280.951
       209.000         143.000
 03  1 11 19 31 30.0000000  0  8G28G 9G26G 4G29G 7G 8G11
  21469688.215     -353597.44049   -272190.48047  21469687.964    21469695.712
       241.000         200.000
  24297763.659    -1371948.56249  -1049814.53245  24297762.849    24297777.745
       210.000         149.000
  22608718.584     -254129.18849   -196111.30346  22608719.219    22608729.167
       225.000         175.000
  23307663.034    -2724863.93849  -2095633.52145  23307662.941    23307676.952
       216.000         157.000
  22530048.276       66046.62249     51810.42546  22530047.922    22530059.054
       226.000         177.000
  20470984.593     -932964.04249   -715242.67548  20470983.983    20470992.371
       244.000         216.000
  22339849.216     1272235.94149    985719.59146  22339848.765    22339861.528
       225.000         177.000
  24539595.363      671046.18549    518839.40345  24539594.572    24539610.731
       208.000         143.000
 03  1 11 19 32  0.0000000  0  8G28G 9G26G 4G29G 7G 8G11
  21475074.183     -325294.22249   -250136.05547  21475073.946    21475081.548
       241.000         201.000
  24278201.016    -1474750.77449  -1129919.99245  24278201.121    24278215.264
       212.000         149.000
  22615714.135     -217367.10449   -167465.58246  22615714.127    22615725.358
       225.000         174.000
  23288000.546    -2828191.44349  -2176148.33645  23288001.052    23288013.937
       217.000         158.000
  22539200.112      114140.07249     89285.73946  22539200.256    22539211.352
       224.000         176.000
  20472958.953     -922588.89349   -707158.13648  20472958.296    20472966.835
       244.000         216.000
  22357294.988     1363913.39749   1057156.43346  22357294.437    22357305.623
       226.000         176.000
  24552994.841      741460.06649    573707.20345  24552994.665    24553008.643
       209.000         143.000
 03  1 11 19 32 30.0000000  0  8G28G 9G26G 4G29G 7G 8G11
  21480487.270     -296848.51849   -227970.60447  21480486.998    21480494.519
       241.000         201.000
  24258657.973    -1577449.79249  -1209945.03445  24258657.531    24258672.252
       212.000         150.000
  22622797.459     -180144.63049   -138461.12446  22622797.323    22622808.590
       226.000         175.000
  23268355.470    -2931426.95249  -2256591.42145  23268355.233    23268369.612
       220.000         158.000
  22548429.266      162640.14549    127077.90646  22548429.367    22548439.554
       224.000         176.000
  20475005.211     -911836.01349   -698779.27248  20475004.799    20475013.212
       244.000         216.000
  22374800.728     1455906.50049   1128839.25546  22374800.308    22374811.581
       227.000         176.000
  24566465.714      812250.55149    628868.45545  24566466.049    24566480.744
       207.000         143.000
 03  1 11 19 33  0.0000000  0  8G28G 9G26G 4G29G 7G 8G11
  21485928.249     -268256.64249   -205691.25547  21485927.992    21485935.636
       241.000         201.000
  24239135.671    -1680039.84249  -1289885.18545  24239136.245    24239150.437
       210.000         149.000
  22629968.705     -142459.94649   -109096.50246  22629968.239    22629979.624
       227.000         176.000
  23248729.224    -3034563.58949  -2336957.48945  23248729.260    23248742.331
       221.000         161.000
  22557736.083      211547.72249    165187.62746  22557735.974    22557746.930
       223.000         175.000
  20477123.790     -900703.17349   -690104.32748  20477123.013    20477131.792
       244.000         216.000
  22392367.060     1548217.39049   1200769.67546  22392367.097    22392378.290
       228.000         177.000
  24580008.675      883419.16649    684324.33145  24580007.405    24580025.047
       205.000         143.000
 03  1 11 19 33 30.0000000  0  8G28G 9G26G 4G29G 7G 8G11
  21491395.736     -239524.76349   -183302.81247  21491395.187    21491403.164
       240.000         200.000
  24219633.186    -1782525.38749  -1369743.86945  24219632.557    24219647.893
       212.000         149.000
  22637226.173     -104321.91549    -79378.63046  22637226.574    22637237.209
       226.000         177.000
  23229121.163    -3137604.67749  -2417249.07745  23229121.244    23229134.194
       223.000         162.000
  22567118.662      260853.99249    203608.00846  22567118.189    22567130.270
       223.000         174.000
  20479313.106     -889198.24649   -681139.45148  20479312.637    20479320.835
       244.000         216.000
  22409992.281     1640837.98949   1272941.43446  22409991.895    22410004.117
       228.000         179.000
  24593622.006      954957.22949    740068.10345  24593622.749    24593636.306
       209.000         142.000
 03  1 11 19 34  0.0000000  0  8G28G 9G26G 4G29G 7G 8G11
  21496890.076     -210651.31149   -160804.05247  21496890.053    21496897.753
       240.000         200.000
  24200151.388    -1884902.74349  -1449518.25245  24200150.544    24200166.354
       211.000         148.000
  22644569.653      -65731.47149    -49308.23646  22644569.751    22644580.886
       227.000         177.000
  23209532.065    -3240546.05449  -2497462.94945  23209530.826    23209544.394
       222.000         162.000
  22576576.920      310557.47649    242337.88346  22576576.461    22576588.594
       222.000         174.000
  20481573.214     -877321.61849   -671884.93648  20481572.472    20481580.891
       244.000         216.000
  22427676.368     1733767.42549   1345353.84346  22427676.473    22427688.050
       229.000         181.000
  24607305.658     1026864.10549    796099.26745  24607307.555    24607320.216
       211.000         143.000
 03  1 11 19 34 30.0000000  0  8G28G 9G26G 4G29G 7G 8G11
  21502411.667     -181635.31149   -138194.21147  21502411.450    21502419.407
       241.000         200.000
  24180690.726    -1987169.03149  -1529206.08545  24180689.487    24180705.369
       208.000         147.000
  22651999.061      -26689.87949    -18886.29146  22651999.657    22652011.218
       228.000         178.000
  23189962.616    -3343383.63149  -2577595.93645  23189963.253    23189974.282
       220.000         161.000
  22586110.600      360656.51149    281376.00046  22586111.031    22586122.074
       225.000         174.000
  20483903.927     -865073.76249   -662341.15348  20483903.359    20483911.884
       244.000         216.000
  22445419.061     1827004.97049   1418006.34146  22445418.700    22445430.477
       228.000         182.000
  24621059.357     1099138.53249    852416.87045  24621060.684    24621073.697
       209.000         142.000
 03  1 11 19 35  0.0000000  0  8G28G 9G26G 4G29G 7G 8G11
  21507960.503     -152475.99449   -115472.71047  21507960.279    21507967.676
       241.000         200.000
  24161251.583    -2089321.56649  -1608805.26145  24161250.944    24161265.934
       209.000         146.000
  22659513.987       12800.81949     11885.60246  22659514.315    22659525.093
       228.000         178.000
  23170413.478    -3446114.14749  -2657645.51245  23170413.636    23170426.693
       220.000         160.000
  22595719.272      411148.66549    320720.45046  22595720.308    22595730.192
       227.000         174.000
  20486305.032     -852455.96449   -652509.09948  20486304.157    20486313.063
       244.000         216.000
  22463220.022     1920548.68449   1490897.41346  22463219.267    22463231.445
       227.000         181.000
  24634882.257     1171778.42549    909019.26945  24634881.237    24634897.034
       205.000         141.000
 03  1 11 19 35 30.0000000  0  8G28G 9G26G 4G29G 7G 8G11
  21513536.769     -123172.68849    -92639.00847  21513536.269    21513544.596
       241.000         201.000
  24141834.751    -2191357.54149  -1688313.64045  24141833.267    24141850.289
       209.000         146.000
  22667114.131       52738.85849     43006.07146  22667114.503    22667125.791
       227.000         178.000
  23150885.409    -3548734.14049  -2737608.92545  23150885.096    23150897.971
       219.000         161.000
  22605402.195      462031.62449    360369.43946  22605403.065    22605413.117
       228.000         175.000
  20488776.245     -839469.16449   -642389.52548  20488775.466    20488784.254
       244.000         216.000
  22481078.948     2014397.70149   1564026.36546  22481078.024    22481090.405
       226.000         180.000
  24648774.438     1244782.29549    965905.24745  24648773.289    24648786.927
       201.000         139.000
 03  1 11 19 36  0.0000000  0  8G28G 9G26G 4G29G 7G 8G11
  21519140.384      -93725.45349    -69693.14747  21519140.199    21519148.569
       241.000         201.000
  24122440.207    -2293275.42049  -1767729.97545  24122440.382    24122454.394
       208.000         145.000
  22674798.634       93121.45749     74472.94146  22674798.843    22674810.577
       227.000         179.000
  23131378.947    -3651240.97749  -2817484.14845  23131378.440    23131391.376
       220.000         162.000
  22615158.818      513302.38049    400320.59446  22615158.701    22615169.589
       228.000         175.000
  20491317.361     -826115.44749   -631984.03548  20491316.627    20491325.373
       244.000         216.000
  22498995.483     2108549.51649   1637391.28946  22498995.480    22499006.209
       227.000         178.000
  24662735.337     1318147.28249   1023072.60745  24662734.564    24662749.600
       204.000         140.000
 03  1 11 19 36 30.0000000  0  8G28G 9G26G 4G29G 7G 8G11
  21524771.537      -64133.78949    -46634.74447  21524771.531    21524779.383
       241.000         200.000
  24103068.960    -2395072.19949  -1847051.96745  24103068.363    24103083.923
       207.000         144.000
  22682567.518      133946.82549    106284.83846  22682567.575    22682578.677
       229.000         179.000
  23111894.681    -3753631.23149  -2897268.52346  23111894.179    23111906.729
       221.000         163.000
  22624988.829      564958.71049    440572.18946  22624988.626    22625000.222
       226.000         176.000
  20493928.111     -812395.70649   -621293.32948  20493927.369    20493936.081
       244.000         216.000
  22516969.365     2203002.57949   1710990.93646  22516969.986    22516980.832
       227.000         177.000
  24676764.743     1391871.84049   1080520.14645  24676766.020    24676779.635
       207.000         139.000
 03  1 11 19 37  0.0000000  0  8G28G 9G26G 4G29G 7G 8G11
  21530430.071      -34398.51049    -23464.42547  21530429.993    21530438.029
       242.000         200.000
  24083720.753    -2496747.04249  -1926278.92245  24083721.467    24083735.199
       208.000         141.000
  22690420.008      175211.46049    138439.03446  22690420.309    22690431.250
       228.000         178.000
  23092432.874    -3855902.88849  -2976960.48346  23092431.622    23092445.722
       218.000         164.000
  22634891.500      616996.76849    481121.22246  22634891.940    22634902.735
       227.000         176.000
  20496607.978     -798312.81249   -610319.64748  20496607.574    20496615.952
       245.000         216.000
  22535000.216     2297753.95449   1784823.03846  22535000.614    22535012.082
       229.000         178.000
  24690862.267     1465952.63449   1138245.27745  24690863.971    24690876.827
       211.000         141.000
 03  1 11 19 37 30.0000000  0  7G28G 9G26G 4G29G 7G 8
  21536115.974       -4519.73249      -182.30247  21536115.677    21536124.084
       242.000         201.000
  24064396.431    -2598298.04449  -2005409.38345  24064396.305    24064409.013
       207.000         139.000
  22698355.593      216912.56049    170933.29646  22698355.515    22698366.284
       227.000         177.000
  23072994.043    -3958053.30049  -3056557.95146  23072993.079    23073006.659
       219.000         163.000
  22644866.045      669413.17849    521965.10246  22644866.755    22644876.426
       225.000         174.000
  20499356.692     -783868.65549   -599064.46648  20499356.431    20499364.610
       245.000         216.000
  22553087.315     2392801.35649   1858885.81046  22553086.943    22553098.877
       227.000         178.000
 03  1 11 19 38  0.0000000  0  7G28G 9G26G 4G29G 7G 8
  21541830.023       25507.45849     23215.46047  21541829.662    21541838.106
       240.000         202.000
  24045096.970    -2699718.11549  -2084437.83645  24045096.326    24045108.812
       205.000         139.000
  22706374.677      259052.59349    203769.60846  22706375.653    22706385.276
       229.000         178.000
  23053579.926    -4060074.64049  -3136054.84246  23053579.569    23053592.479
       217.000         163.000
  22654912.976      722210.30349    563105.62246  22654912.890    22654924.250
       223.000         172.000
  20502174.822     -769059.88749   -587525.16648  20502174.240    20502182.516
       246.000         216.000
  22571231.213     2488147.63749   1933181.48246  22571230.892    22571243.426
       227.000         177.000
 03  1 11 19 38 30.0000000  0  7G28G 9G26G 4G29G 7G 8
  21547571.780       55680.54849     46726.91547  21547571.527    21547579.812
       241.000         202.000
  24025821.963    -2801008.29449  -2163365.06745  24025820.601    24025834.455
       208.000         139.000
  22714476.303      301626.29849    236943.84046  22714476.495    22714488.098
       227.000         177.000
  23034190.206    -4161966.79149  -3215451.08045  23034189.143    23034202.453
       216.000         162.000
  22665031.235      775382.31949    604538.25546  22665031.125    22665043.120
       225.000         175.000
  20505061.355     -753891.13249   -575705.35148  20505060.582    20505069.083
       245.000         216.000
  22589431.034     2583788.05949   2007706.35146  22589430.872    22589441.841
       225.000         175.000
 03  1 11 19 39  0.0000000  0  7G28G 9G26G 4G29G 7G 8
  21553341.559       86000.61549     70352.89947  21553341.242    21553349.391
       240.000         201.000
  24006572.076    -2902165.42349  -2242188.63345  24006572.126    24006584.635
       209.000         138.000
  22722659.978      344631.95349    270454.63246  22722660.949    22722671.773
       227.000         176.000
  23014825.732    -4263725.93749  -3294743.66546  23014825.128    23014838.327
       218.000         163.000
  22675220.595      828927.15649    646261.38546  22675220.861    22675232.020
       227.000         177.000
  20508016.240     -738363.18849   -563605.65248  20508015.756    20508024.022
       247.000         216.000
  22607686.544     2679721.19549   2082459.30346  22607686.314    22607697.669
       224.000         173.000
 03  1 11 19 39 30.0000000  0  7G28G 9G26G 4G29G 7G 8
  21559139.247      116467.76849     94093.49347  21559139.019    21559147.524
       241.000         201.000
  23987348.202    -3003187.31249  -2320906.79945  23987347.815    23987361.097
       207.000         138.000
  22730925.487      388066.97749    304300.02146  22730925.568    22730936.567
       227.000         176.000
  22995487.395    -4365349.39649  -3373930.51546  22995486.266    22995500.084
       220.000         163.000
  22685480.457      882841.95249    688272.79946  22685481.018    22685492.206
       226.000         177.000
  20511039.169     -722477.85449   -551227.46948  20511038.414    20511046.949
       246.000         216.000
  22625997.389     2775945.27449   2157438.96746  22625997.758    22626007.617
       222.000         172.000
 03  1 11 19 40  0.0000000  0  7G28G 9G26G 4G29G 7G 8
  21564964.664      147080.30249    117947.39047  21564964.136    21564972.766
       240.000         200.000
  23968149.987    -3104073.64649  -2399519.36245  23968149.675    23968161.541
       207.000         137.000
  22739271.860      431926.88649    338476.50446  22739272.060    22739283.288
       226.000         175.000
  22976175.190    -4466835.84349  -3453010.61046  22976174.415    22976187.376
       222.000         164.000
  22695809.604      937121.82249    730568.71946  22695809.558    22695820.917
       224.000         175.000
  20514129.318     -706238.62649   -538573.52148  20514128.524    20514137.088
       246.000         216.000
  22644362.751     2872456.12549   2232642.06646  22644363.463    22644374.960
       221.000         171.000
 03  1 11 19 40 30.0000000  0  7G28G 9G26G 4G29G 7G 8
  21570818.526      177842.65649    141918.01947  21570818.003    21570826.463
       240.000         200.000
  23948978.994    -3204817.58249  -2478020.97345  23948978.307    23948991.267
       211.000         140.000
  22747699.485      476213.72249    372985.65646  22747699.825    22747710.864
       226.000         176.000
  22956890.322    -4568177.88349  -3531978.18746  22956889.966    22956902.495
       223.000         165.000
  22706208.568      991768.53749    773150.46046  22706209.178    22706219.502
       222.000         173.000
  20517287.383     -689642.68849   -525641.62048  20517286.778    20517295.234
       246.000         216.000
  22662783.389     2969256.27149   2308070.59446  22662783.402    22662795.217
       222.000         171.000
 03  1 11 19 41  0.0000000  0  7G28G 9G26G 4G29G 7G 8
  21576700.107      208750.40849    166001.95547  21576699.812    21576707.519
       239.000         198.000
  23929834.557    -3305421.76049  -2556413.70445  23929833.171    23929845.910
       213.000         144.000
  22756206.918      520920.42949    407821.95046  22756206.676    22756218.398
       224.000         175.000
  22937632.597    -4669377.16649  -3610834.54146  22937632.348    22937644.255
       221.000         165.000
  22716675.870     1046774.30049    816011.98546  22716675.863    22716687.317
       222.000         173.000
  20520512.159     -672696.36249   -512436.68948  20520511.286    20520519.802
       246.000         216.000
  22681257.705     3066339.01049   2383719.32446  22681257.422    22681270.040
       218.000         170.000
 03  1 11 19 41 30.0000000  0  7G28G 9G26G 4G29G 7G 8
  21582609.877      239806.70749    190201.64147  21582609.201    21582618.017
       239.000         198.000
  23910717.463    -3405881.39749  -2634693.79345  23910716.965    23910729.517
       213.000         146.000
  22764794.130      566047.07849    442985.48146  22764795.190    22764805.392
       226.000         175.000
  22918402.933    -4770428.02549  -3689575.24346  22918401.861    22918414.395
       221.000         165.000
  22727211.459     1102139.12249    859153.28246  22727211.319    22727224.274
       221.000         173.000
  20523803.746     -655398.76849   -498958.04248  20523803.037    20523811.808
       246.000         216.000
  22699785.937     3163704.96049   2459588.71946  22699785.915    22699798.582
       219.000         169.000
 03  1 11 19 42  0.0000000  0  7G28G 9G26G 4G29G 7G 8
  21588548.109      271012.14549    214517.53347  21588547.939    21588556.317
       240.000         199.000
  23891628.318    -3506193.94849  -2712859.29345  23891627.560    23891641.587
       213.000         146.000
  22773461.097      611590.96149    478474.15546  22773462.160    22773472.067
       228.000         176.000
  22899202.250    -4871327.45049  -3768197.94846  22899201.982    22899213.246
       221.000         165.000
  22737814.839     1157860.10849    902572.10046  22737815.398    22737827.286
       225.000         173.000
  20527161.962     -637751.35749   -485206.81148  20527161.312    20527170.187
       246.000         216.000
  22718367.682     3261352.24349   2535677.34346  22718367.172    22718380.348
       219.000         168.000
 03  1 11 19 42 30.0000000  0  7G28G 9G26G 4G29G 7G 8
  21594514.902      302367.56749    238950.29947  21594514.679    21594522.577
       241.000         199.000
  23872567.775    -3606356.53349  -2790907.92845  23872567.835    23872581.481
       216.000         149.000
  22782207.068      657550.65249    514286.85246  22782207.466    22782218.977
       228.000         176.000
  22880031.090    -4972071.53749  -3846699.61146  22880029.565    22880042.380
       220.000         165.000
  22748485.727     1213935.07649    946266.78846  22748485.941    22748496.549
       227.000         174.000
  20530586.547     -619755.04749   -471183.70848  20530585.991    20530594.617
       245.000         216.000
  22737002.783     3359279.68549   2611984.26046  22737002.511    22737015.127
       219.000         169.000
 03  1 11 19 43  0.0000000  0  7G28G 9G26G 4G29G 7G 8
  21600510.017      333872.07249    263499.24347  21600509.598    21600517.456
       240.000         198.000
  23853536.305    -3706367.59549  -2868838.52745  23853536.201    23853550.013
       216.000         150.000
  22791031.307      703922.70249    550420.82646  22791030.718    22791042.976
       224.000         176.000
  22860889.821    -5072657.92849  -3925078.40046  22860889.076    22860901.726
       221.000         165.000
  22759223.344     1270360.52549    990234.56446  22759223.667    22759235.526
       227.000         175.000
  20534077.037     -601412.23849   -456890.60548  20534076.205    20534084.711
       245.000         216.000
  22755690.626     3457484.30449   2688507.19046  22755690.164    22755702.801
       222.000         171.000
 03  1 11 19 43 30.0000000  0  7G28G 9G26G 4G29G 7G 8
  21606533.694      365526.43549    288164.95947  21606533.388    21606541.351
       240.000         197.000
  23834534.136    -3806224.70749  -2946649.13345  23834534.215    23834547.831
       218.000         152.000
  22799933.531      750704.74149    586874.26746  22799933.834    22799945.260
       226.000         176.000
  22841779.313    -5173083.33149  -4003331.76146  22841779.195    22841790.493
       222.000         165.000
  22770026.899     1327133.66949   1034473.24846  22770026.719    22770039.442
       224.000         175.000
  20537633.160     -582724.41649   -442328.66148  20537632.643    20537641.113
       246.000         215.000
  22774430.899     3555964.36449   2765244.73246  22774430.610    22774442.868
       223.000         171.000
 03  1 11 19 44  0.0000000  0  7G28G 9G26G 4G29G 7G 8
  21612586.038      397331.76649    312948.30347  21612585.658    21612594.066
       239.000         197.000
  23815561.820    -3905924.85249  -3024337.42845  23815561.640    23815574.661
       218.000         153.000
  22808913.622      797894.92949    623645.75446  22808914.447    22808925.645
       228.000         176.000
  22822700.157    -5273344.06349  -4081456.80546  22822700.044    22822712.311
       224.000         166.000
  22780896.191     1384252.37149   1078981.19146  22780896.264    22780908.479
       222.000         174.000
  20541254.886     -563692.45349   -427498.55848  20541254.555    20541262.678
       246.000         216.000
  22793223.285     3654718.62149   2842195.94246  22793223.310    22793235.899
       224.000         172.000
 03  1 11 19 44 30.0000000  0  7G28G 9G26G 4G29G 7G 8
  21618667.131      429288.12249    337849.32547  21618666.798    21618675.520
       239.000         197.000
  23796619.722    -4005465.70549  -3101901.60245  23796619.283    23796633.204
       218.000         154.000
  22817971.065      845490.60249    660733.20046  22817971.117    22817982.369
       228.000         176.000
  22803652.899    -5373437.11749  -4159451.22346  22803652.430    22803664.579
       223.000         168.000
  22791830.885     1441713.64749   1123756.11146  22791831.643    22791843.328
       223.000         174.000
  20544941.757     -544318.12549   -412401.67648  20544941.043    20544949.553
       246.000         216.000
  22812067.426     3753744.99549   2919359.19046  22812067.214    22812079.542
       225.000         172.000
 03  1 11 19 45  0.0000000  0  7G28G 9G26G 4G29G 7G 8
  21624776.973      461395.14649    362867.75447  21624776.539    21624784.647
       240.000         197.000
  23777708.327    -4104845.54049  -3179340.29345  23777707.026    23777722.072
       216.000         154.000
  22827104.931      893488.55549    698134.13146  22827105.014    22827117.026
       228.000         176.000
  22784638.042    -5473359.99249  -4237313.02246  22784637.734    22784650.616
       224.000         169.000
  22802830.102     1499513.93849   1168795.16846  22802829.020    22802841.577
       219.000         170.000
  20548693.267     -524603.79449   -397039.85848  20548692.526    20548701.033
       246.000         216.000
  22830962.939     3853040.67149   2996732.28046  22830962.623    22830975.509
       226.000         172.000
 03  1 11 19 45 30.0000000  0  7G28G 9G26G 4G29G 7G 8
  21630915.755      493654.27649    388004.70647  21630915.749    21630923.844
       241.000         197.000
  23758828.033    -4204060.81549  -3256650.75845  23758827.476    23758841.771
       217.000         153.000
  22836314.925      941887.33649    735847.38746  22836314.578    22836326.521
       225.000         175.000
  22765656.368    -5573108.71649  -4315039.12946  22765655.355    22765668.188
       224.000         171.000
  22813893.430     1557651.57449   1214097.06346  22813892.921    22813904.680
       221.000         168.000
  20552509.418     -504549.90849   -381413.45348  20552508.824    20552517.350
       246.000         215.000
  22849909.593     3952604.74049   3074314.51246  22849909.237    22849921.934
       227.000         171.000
 03  1 11 19 46  0.0000000  0  7G28G 9G26G 4G29G 7G 8
  21637083.562      526065.83849    413260.43547  21637083.409    21637091.361
       241.000         198.000
  23739979.225    -4303109.50249  -3333831.41445  23739978.655    23739993.239
       212.000         153.000
  22845600.688      990684.24149    773870.86346  22845601.249    22845612.007
       224.000         174.000
  22746708.434    -5672680.17349  -4392627.09146  22746707.722    22746720.325
       225.000         172.000
  22825020.420     1616123.39749   1259659.39146  22825019.598    22825032.030
       219.000         168.000
  20556389.821     -484158.23949   -365523.84848  20556389.368    20556397.639
       246.000         215.000
  22868906.961     4052435.15549   3152104.26746  22868908.014    22868919.346
       227.000         171.000
 03  1 11 19 46 30.0000000  0  7G28G 9G26G 4G29G 7G 8
  21643280.513      558630.74549    438635.65647  21643280.599    21643287.909
       241.000         198.000
  23721162.925    -4401988.66149  -3410879.97045  23721162.991    23721175.922
       211.000         152.000
  22854961.842     1039877.14649    812202.88146  22854962.059    22854973.492
       224.000         174.000
  22727794.797    -5772070.71449  -4470074.08446  22727793.696    22727807.192
       223.000         172.000
  22836210.429     1674926.87149   1305480.16246  22836210.550    22836223.057
       223.000         170.000
  20560334.326     -463430.03549   -349372.00648  20560333.467    20560342.244
       245.000         215.000
  22887954.723     4152530.34849   3230100.33646  22887954.939    22887967.928
       226.000         170.000
 03  1 11 19 47  0.0000000  0  7G28G 9G26G 4G29G 7G 8
  21649506.622      591348.48849    464129.96847  21649506.359    21649514.280
       240.000         197.000
  23702379.223    -4500696.45049  -3487794.95245  23702377.336    23702392.735
       211.000         151.000
  22864397.782     1089462.81449    850840.96546  22864398.746    22864409.788
       226.000         174.000
  22708916.051    -5871277.83749  -4547378.16046  22708916.095    22708927.545
       225.000         172.000
  22847462.927     1734058.56949   1351556.67546  22847462.811    22847474.155
       224.000         170.000
  20564342.319     -442367.58149   -332959.70648  20564341.722    20564350.438
       246.000         215.000
  22907052.329     4252887.64349   3308300.66046  22907051.928    22907064.393
       225.000         168.000
 03  1 11 19 47 30.0000000  0  7G28G 9G26G 4G29G 7G 8
  21655761.823      624219.81149    489743.94947  21655761.348    21655769.452
       240.000         197.000
  23683628.683    -4599230.06649  -3564574.23645  23683628.825    23683642.779
       209.000         151.000
  22873908.088     1139438.94849    889783.32146  22873908.643    22873920.518
       224.000         174.000
  22690073.055    -5970298.26449  -4624536.75846  22690073.119    22690085.214
       225.000         173.000
  22858777.244     1793515.75849   1397886.80546  22858777.847    22858789.661
       223.000         170.000
  20568413.726     -420972.28049   -316288.04748  20568413.294    20568421.866
       246.000         216.000
  22926199.318     4353505.10349   3386703.71646  22926199.642    22926211.725
       224.000         167.000
 03  1 11 19 48  0.0000000  0  7G28G 9G26G 4G29G 7G 8
  21662046.215      657244.67849    515477.57947  21662045.838    21662054.381
       240.000         197.000
  23664911.762    -4697587.96549  -3641216.57545  23664910.533    23664924.975
       211.000         149.000
  22883491.932     1189802.41649    929027.47146  22883492.228    22883503.989
       226.000         174.000
  22671266.134    -6069129.15049  -4701547.66746  22671266.149    22671278.333
       225.000         174.000
  22870153.169     1853295.07649   1444467.94246  22870154.162    22870165.157
       226.000         171.000
  20572548.087     -399246.16849   -299358.61448  20572547.312    20572556.048
       245.000         216.000
  22945395.346     4454380.39449   3465307.66446  22945394.244    22945407.886
       222.000         166.000
 03  1 11 19 48 30.0000000  0  7G28G 9G26G 4G29G 7G 8
  21668360.224      690424.92149    541332.26747  21668359.887    21668368.504
       239.000         197.000
  23646228.897    -4795766.13949  -3717718.87345  23646229.026    23646242.229
       210.000         148.000
  22893149.287     1240552.21049    968572.66346  22893149.712    22893160.634
       224.000         173.000
  22652496.004    -6167765.96249  -4778407.34846  22652495.004    22652508.269
       226.000         174.000
  22881590.024     1913395.37349   1491299.21946  22881590.704    22881601.304
       225.000         173.000
  20576745.363     -377189.36349   -282171.50048  20576745.066    20576753.506
       247.000         216.000
  22964640.311     4555513.17349   3544112.24746  22964640.590    22964652.965
       222.000         165.000
 03  1 11 19 49  0.0000000  0  7G28G 9G26G 4G29G 7G 8
  21674703.673      723760.02649    567307.62747  21674703.195    21674711.489
       239.000         196.000
  23627580.761    -4893763.00249  -3794079.87745  23627580.676    23627594.347
       213.000         150.000
  22902879.509     1291684.73349   1008416.08246  22902879.986    22902891.869
       226.000         174.000
  22633763.189    -6266206.41249  -4855114.02546  22633763.222    22633774.934
       225.000         174.000
  22893087.211     1973812.62049   1538377.44246  22893087.445    22893100.218
       221.000         171.000
  20581005.169     -354804.32449   -264728.62048  20581004.487    20581013.414
       246.000         216.000
  22983933.718     4656900.38749   3623115.08246  22983934.004    22983946.448
       222.000         165.000
 03  1 11 19 49 30.0000000  0  7G28G 9G26G 4G29G 7G 8
  21681076.475      757249.43949    593403.23147  21681076.183    21681084.619
       239.000         196.000
  23608967.341    -4991577.08349  -3870298.46045  23608965.423    23608981.051
       208.000         150.000
  22912682.082     1343196.41649   1048554.96546  22912682.600    22912695.136
       227.000         176.000
  22615068.179    -6364448.53149  -4931666.15546  22615067.145    22615080.059
       224.000         174.000
  22904643.788     2034542.88549   1585699.57446  22904644.475    22904655.603
       223.000         169.000
  20585326.798     -332093.90049   -247032.19148  20585326.265    20585334.891
       245.000         216.000
  23003274.972     4758538.72149   3702313.60546  23003275.234    23003287.685
       222.000         164.000
 03  1 11 19 50  0.0000000  0  7G28G 9G26G 4G29G 7G 8
  21687479.066      790895.32049    619620.75747  21687478.311    21687487.419
       238.000         197.000
  23590389.408    -5089204.05949  -3946371.25445  23590390.103    23590403.936
       211.000         151.000
  22922556.604     1395086.45449   1088988.64546  22922557.254    22922568.993
       226.000         176.000
  22596411.960    -6462487.00549  -5008059.59346  22596411.690    22596424.207
       225.000         174.000
  22916259.894     2095585.03549   1633264.75646  22916260.683    22916272.375
       225.000         169.000
  20589710.463     -309057.55749   -229081.80348  20589709.741    20589718.319
       246.000         215.000
  23022664.121     4860428.31349   3781707.89246  23022663.802    23022677.202
       221.000         164.000
 03  1 11 19 50 30.0000000  0  7G28G 9G26G 4G29G 7G 8
  21693911.428      824697.87749    645960.36047  21693910.898    21693919.720
       238.000         197.000
  23571847.552    -5186642.28749  -4022296.96345  23571846.980    23571861.243
       215.000         153.000
  22932502.386     1447351.77749   1129714.76546  22932503.588    22932514.655
       227.000         175.000
  22577795.066    -6560319.29149  -5084292.36446  22577794.038    22577807.040
       227.000         174.000
  22927934.792     2156935.72549   1681070.37546  22927935.531    22927948.179
       225.000         170.000
  20594155.705     -285697.65449   -210879.28748  20594155.273    20594163.418
       246.000         215.000
  23042100.461     4962566.50849   3861295.90646  23042100.486    23042113.033
       220.000         164.000
 03  1 11 19 51  0.0000000  0  7G28G 9G26G 4G29G 7G 8
  21700373.625      858657.16749    672422.09547  21700373.224    21700382.357
       238.000         197.000
  23553342.142    -5283889.29449  -4098073.66045  23553341.331    23553356.087
       217.000         155.000
  22942519.087     1499989.32549   1170730.94146  22942519.744    22942531.030
       227.000         175.000
  22559218.061    -6657942.38949  -5160362.12846  22559217.998    22559229.990
       227.000         174.000
  22939667.594     2218591.85649   1729113.98346  22939666.859    22939679.532
       221.000         169.000
  20598662.249     -262016.11749   -192426.15048  20598661.543    20598670.230
       245.000         215.000
  23061583.806     5064951.05049   3941075.86546  23061584.058    23061596.005
       221.000         164.000
 03  1 11 19 51 30.0000000  0  7G28G 9G26G 4G29G 7G 8
  21706865.926      892774.02449    699006.60447  21706865.740    21706874.413
       238.000         197.000
  23534873.684    -5380941.87749  -4173698.86045  23534873.366    23534885.127
       217.000         155.000
  22952606.197     1552997.21249   1212035.66546  22952606.171    22952619.278
       225.000         175.000
  22540681.487    -6755352.68849  -5236266.06846  22540680.332    22540692.725
       226.000         175.000
  22951457.860     2280550.99049   1777393.63946  22951458.356    22951470.626
       220.000         168.000
  20603229.644     -238013.90949   -173723.14148  20603228.911    20603237.759
       245.000         215.000
  23081113.848     5167580.32649   4021046.52545  23081114.817    23081126.327
       219.000         162.000
 03  1 11 19 52  0.0000000  0  7G28G 9G26G 4G29G 7G 8
  21713388.255      927048.66549    725714.06247  21713388.054    21713396.496
       239.000         197.000
  23516442.701    -5477797.78249  -4249170.82545  23516441.436    23516453.636
       219.000         154.000
  22962763.270     1606372.50549   1253626.69046  22962763.620    22962775.624
       225.000         174.000
  22522185.829    -6852547.11749  -5312001.79946  22522184.966    22522197.663
       226.000         176.000
  22963305.370     2342810.08749   1825907.07346  22963306.634    22963318.393
       222.000         168.000
  20607857.751     -213692.83149   -154771.66148  20607857.047    20607865.844
       245.000         215.000
  23100690.088     5270452.34249   4101206.32445  23100690.335    23100702.581
       218.000         161.000
 03  1 11 19 52 30.0000000  0  7G28G 9G26G 4G29G 7G 8
  21719940.622      961481.48249    752544.77747  21719940.858    21719949.170
       239.000         197.000
  23498049.371    -5574454.77049  -4324487.75045  23498049.259    23498061.613
       220.000         156.000
  22972989.724     1660112.34749   1295501.78946  22972990.140    22973001.933
       225.000         172.000
  22503731.766    -6949522.89449  -5387567.15446  22503730.851    22503742.175
       227.000         177.000
  22975209.462     2405365.67449   1874651.56246  22975210.493    22975222.014
       222.000         168.000
  20612546.197     -189054.96649   -135573.33648  20612545.382    20612554.075
       245.000         215.000
  23120312.102     5373564.81949   4181553.51245  23120312.621    23120324.752
       218.000         161.000
 03  1 11 19 53  0.0000000  0  7G28G 9G26G 4G29G 7G 8
  21726523.232      996073.11349    779499.24547  21726523.071    21726531.294
       239.000         196.000
  23479694.346    -5670910.03849  -4399647.49245  23479693.207    23479705.992
       222.000         157.000
  22983285.025     1714214.11249   1337658.89346  22983285.672    22983297.733
       224.000         170.000
  22485319.891    -7046276.54249  -5462959.42446  22485319.277    22485331.398
       227.000         178.000
  22987169.466     2468215.25149   1923625.12846  22987169.903    22987182.576
       223.000         168.000
  20617294.655     -164101.53049   -116129.10648  20617293.974    20617302.768
       245.000         215.000
  23139979.262     5476915.61249   4262086.40645  23139978.796    23139991.750
       216.000         161.000
 03  1 11 19 53 30.0000000  0  7G28G 9G26G 4G29G 7G 8
  21733136.353     1030825.06849    806578.64047  21733135.953    21733144.737
       239.000         196.000
  23461378.238    -5767160.47549  -4474647.64145  23461376.877    23461389.756
       221.000         158.000
  22993648.803     1768676.19349   1380096.77946  22993649.558    22993661.475
       225.000         171.000
  22466951.145    -7142803.87149  -5538175.33546  22466950.724    22466962.442
       228.000         178.000
  22999185.119     2531356.80849   1972826.18046  22999185.675    22999198.655
       221.000         169.000
  20622103.108     -138833.18249    -96439.49548  20622102.615    20622111.377
       246.000         215.000
  23159691.299     5580503.93849   4342804.38645  23159690.270    23159704.444
       215.000         160.000
 03  1 11 19 54  0.0000000  0  7G28G 9G26G 4G29G 7G 8
  21739780.031     1065737.23549    833782.87047  21739779.983    21739788.564
       239.000         196.000
  23443101.593    -5863203.88949  -4549486.48245  23443102.248    23443113.881
       221.000         157.000
  23004080.590     1823495.43049   1422812.95246  23004080.686    23004092.866
       224.000         171.000
  22448626.087    -7239102.10949  -5613212.72046  22448625.880    22448636.929
       228.000         178.000
  23011255.732     2594786.91649   2022252.07746  23011256.219    23011268.458
       223.000         171.000
  20626971.049     -113252.08949    -76506.18848  20626970.525    20626979.032
       246.000         215.000
  23179448.111     5684327.25649   4423705.47545  23179447.852    23179461.756
       212.000         159.000
 03  1 11 19 54 30.0000000  0  7G28G 9G26G 4G29G 7G 8
  21746454.290     1100810.07449    861112.29947  21746454.143    21746462.822
       239.000         196.000
  23424864.775    -5959037.87949  -4624162.12645  23424863.714    23424876.601
       218.000         157.000
  23014579.809     1878669.05549   1465805.28946  23014580.288    23014591.846
       225.000         172.000
  22430345.128    -7335168.23949  -5688069.25646  22430345.135    22430356.851
       227.000         178.000
  23023380.607     2658502.46349   2071900.40546  23023381.595    23023392.741
       224.000         169.000
  20631898.157      -87359.96449    -56330.51848  20631897.435    20631906.188
       245.000         215.000
  23199249.138     5788383.35449   4504787.93045  23199247.885    23199264.001
       212.000         158.000
 03  1 11 19 55  0.0000000  0  7G28G 9G26G 4G29G 7G 8
  21753159.146     1136043.95649    888567.22547  21753158.762    21753167.573
       239.000         195.000
  23406668.194    -6054659.98249  -4698672.68745  23406667.661    23406681.184
       218.000         156.000
  23025146.085     1934194.25349   1509071.56046  23025146.803    23025158.916
       225.000         172.000
  22412108.973    -7430999.08149  -5762742.43646  22412108.940    22412120.464
       228.000         178.000
  23035559.112     2722500.46449   2121768.82346  23035559.494    23035572.193
       219.000         167.000
  20636884.141      -61158.57849    -35913.86348  20636883.433    20636892.280
       246.000         215.000
  23219094.026     5892669.80449   4586049.89145  23219092.976    23219108.559
       212.000         158.000
 03  1 11 19 55 30.0000000  0  7G28G 9G26G 4G29G 7G 8
  21759894.795     1171439.50349    916148.12347  21759894.588    21759903.100
       239.000         195.000
  23388512.644    -6150067.34449  -4773015.89845  23388512.590    23388525.125
       214.000         156.000
  23035778.758     1990068.63149   1552609.91946  23035779.332    23035789.814
       223.000         171.000
  22393918.274    -7526591.23849  -5837229.63446  22393917.563    22393929.821
       228.000         179.000
  23047790.822     2786778.23249   2171855.25046  23047790.127    23047802.771
       217.000         163.000
  20641928.756      -34649.23249    -15257.23848  20641928.310    20641936.964
       246.000         215.000
  23238982.686     5997185.27549   4667490.31845  23238982.557    23238997.448
       213.000         158.000
 03  1 11 19 56  0.0000000  0  7G28G 9G26G 4G29G 7G 8
  21766661.114     1206996.43349    943854.76547  21766660.844    21766669.335
       238.000         195.000
  23370398.401    -6245258.44849  -4847190.59845  23370398.620    23370411.048
       215.000         155.000
  23046477.004     2046288.45649   1596417.45546  23046477.576    23046489.775
       223.000         171.000
  22375773.387    -7621942.50249  -5911529.12346  22375773.045    22375784.996
       228.000         179.000
  23060075.176     2851331.85849   2222156.61446  23060074.633    23060088.246
       219.000         163.000
  20647031.477       -7834.61149      5637.26148  20647030.988    20647039.541
       246.000         215.000
  23258914.374     6101926.47849   4749106.63245  23258914.798    23258928.225
       215.000         159.000
 03  1 11 19 56 30.0000000  0  7G28G 9G26G 4G29G 7G 8
  21773458.329     1242715.80749    971687.99247  21773458.159    21773466.727
       240.000         196.000
  23352325.823    -6340230.04549  -4921194.24145  23352323.413    23352337.666
       211.000         154.000
  23057240.700     2102851.89549   1640492.76846  23057241.564    23057252.665
       224.000         171.000
  22357675.071    -7717048.87649  -5985637.78646  22357674.454    22357686.306
       228.000         180.000
  23072411.337     2916159.09449   2272671.17946  23072410.732    23072424.942
       218.000         164.000
  20652192.095       19284.45649     26768.99548  20652191.495    20652200.069
       246.000         215.000
  23278888.979     6206892.20349   4830897.87945  23278889.610    23278903.216
       217.000         161.000
 03  1 11 19 57  0.0000000  0  7G28G 9G26G 4G29G 7G 8
  21780286.509     1278597.83549    999647.95047  21780286.411    21780295.191
       240.000         196.000
  23334295.247    -6434979.90849  -4995025.10345  23334294.704    23334306.520
       214.000         155.000
  23068069.197     2159755.67449   1684833.28246  23068068.718    23068080.516
       224.000         171.000
  22339623.999    -7811907.77149  -6059553.60846  22339624.160    22339634.810
       228.000         179.000
  23084798.869     2981256.54149   2323396.30846  23084798.966    23084811.508
       217.000         163.000
  20657410.196       46705.89949     48136.34748  20657409.323    20657418.092
       245.000         215.000
  23298905.903     6312079.87749   4912862.07946  23298906.153    23298920.059
       219.000         164.000
 03  1 11 19 57 30.0000000  0  7G28G 9G26G 4G29G 7G 8
  21787145.813     1314643.12149   1027735.13147  21787145.813    21787154.060
       240.000         196.000
  23316307.757    -6529505.10449  -5068680.91745  23316307.846    23316319.392
       214.000         157.000
  23078962.115     2216997.28049   1729437.02546  23078963.626    23078974.853
       228.000         172.000
  22321620.695    -7906515.38549  -6133273.63846  22321620.993    22321631.310
       229.000         179.000
  23097237.412     3046621.40949   2374329.81546  23097237.205    23097250.095
       217.000         163.000
  20662685.577       74428.32249     69738.22448  20662684.741    20662693.579
       245.000         214.000
  23318964.677     6417487.59149   4994997.73746  23318965.176    23318979.020
       220.000         165.000
 03  1 11 19 58  0.0000000  0  7G28G 9G26G 4G29G 7G 8
  21794036.026     1350850.89849   1055948.93147  21794035.793    21794044.299
       238.000         195.000
  23298363.108    -6623804.43849  -5142160.73545  23298362.090    23298375.158
       217.000         160.000
  23089918.564     2274572.71549   1774300.91246  23089918.612    23089931.441
       221.000         171.000
  22303665.533    -8000870.19549  -6206796.66446  22303665.374    22303675.818
       229.000         179.000
  23109726.107     3112249.57749   2425468.48646  23109726.619    23109739.260
       219.000         165.000
  20668017.641      102448.89049     91572.42748  20668016.910    20668025.672
       245.000         214.000
  23339064.638     6523112.13849   5077302.37646  23339065.181    23339079.228
       222.000         166.000
 03  1 11 19 58 30.0000000  0  7G28G 9G26G 4G29G 7G 8
  21800957.642     1387224.22249   1084291.72347  21800957.191    21800965.915
       238.000         194.000
  23280462.451    -6717872.90249  -5215460.66446  23280461.662    23280474.657
       220.000         163.000
  23100938.236     2332481.68749   1819424.65846  23100938.893    23100950.840
       224.000         171.000
  22285759.488    -8094966.21849  -6280118.05046  22285759.310    22285770.007
       228.000         179.000
  23122264.981     3178140.22249   2476811.68546  23122265.888    23122279.311
       222.000         167.000
  20673406.621      130768.27249    113639.47048  20673406.009    20673414.787
       245.000         214.000
  23359205.899     6628953.73549   5159776.14046  23359206.288    23359220.038
       222.000         166.000
 03  1 11 19 59  0.0000000  0  7G28G 9G26G 4G29G 7G 8
  21807910.652     1423761.91049   1112762.59547  21807910.248    21807918.738
       238.000         194.000
  23262605.771    -6811709.35649  -5288579.81046  23262605.184    23262618.931
       218.000         165.000
  23112020.742     2390719.87949   1864804.95646  23112021.201    23112033.414
       222.000         172.000
  22267902.907    -8188801.99049  -6353236.64446  22267902.532    22267913.571
       228.000         179.000
  23134852.964     3244289.07249   2528356.07246  23134853.874    23134866.416
       219.000         167.000
  20678851.932      159383.25749    135936.84348  20678851.709    20678860.041
       246.000         214.000
  23379387.848     6735008.87949   5242416.29546  23379388.436    23379401.572
       221.000         165.000
 03  1 11 19 59 30.0000000  0  7G28G 9G26G 4G29G 7G 8
  21814895.246     1460465.89349   1141363.04347  21814894.693    21814902.876
       238.000         193.000
  23244793.777    -6905310.22649  -5361515.37846  23244792.055    23244805.600
       223.000         167.000
  23123165.595     2449285.73349   1910440.58546  23123166.075    23123176.991
       224.000         170.000
  22250096.758    -8282373.10849  -6426149.00746  22250096.479    22250107.687
       229.000         180.000
  23147489.629     3310694.38749   2580100.28346  23147490.905    23147502.474
       220.000         166.000
  20684353.463      188293.64749    158464.40348  20684352.930    20684361.628
       246.000         215.000
  23399610.188     6841276.68949   5325222.17446  23399610.277    23399623.686
       221.000         163.000
 03  1 11 20  0  0.0000000  0  7G28G 9G26G 4G29G 7G 8
  21821911.414     1497336.06949   1170092.99647  21821910.885    21821919.343
       238.000         192.000
  23227027.244    -6998673.33849  -5434265.70046  23227027.284    23227038.833
       223.000         168.000
  23134372.129     2508176.12149   1956329.11146  23134372.887    23134384.069
       222.000         167.000
  22232341.517    -8375676.72149  -6498852.92546  22232341.180    22232352.371
       229.000         180.000
  23160174.230     3377352.43949   2632041.46246  23160173.925    23160187.368
       215.000         165.000
  20689910.712      217497.22449    181220.41648  20689910.033    20689918.734
       245.000         214.000
  23419872.536     6947754.59049   5408191.74945  23419872.979    23419885.116
       219.000         162.000
 03  1 11 20  0 30.0000000  0  7G28G 9G26G 4G29G 7G 8
  21828959.194     1534372.58749   1198952.57447  21828959.006    21828966.949
       239.000         192.000
  23209306.635    -7091796.51549  -5506829.05246  23209305.862    23209318.171
       225.000         168.000
  23145639.811     2567387.69249   2002467.88846  23145640.856    23145651.505
       223.000         166.000
  22214637.703    -8468710.16949  -6571346.33746  22214638.256    22214648.352
       231.000         180.000
  23172906.317     3444260.03349   2684177.08646  23172906.681    23172918.428
       219.000         164.000
  20695523.374      246991.81149    204203.19748  20695522.628    20695531.408
       245.000         214.000
  23440174.207     7054439.94449   5491322.96245  23440173.965    23440188.521
       219.000         160.000
 03  1 11 20  1  0.0000000  0  7G28G 9G26G 4G29G 7G 8
  21836038.928     1571576.48349   1227942.57547  21836038.545    21836047.060
       238.000         192.000
  23191632.098    -7184676.63249  -5579203.00246  23191632.197    23191645.357
       225.000         167.000
  23156968.333     2626918.27849   2048855.25446  23156968.814    23156980.309
       222.000         168.000
  22196986.052    -8561469.67049  -6643626.28746  22196986.296    22196996.799
       231.000         181.000
  23185685.566     3511414.66549   2736505.23046  23185685.394    23185697.848
       220.000         164.000
  20701191.179      276776.38849    227411.93748  20701190.594    20701199.200
       246.000         214.000
  23460515.003     7161331.28149   5574614.69845  23460514.044    23460529.417
       219.000         160.000
 03  1 11 20  1 30.0000000  0  7G28G 9G26G 4G29G 7G 8
  21843150.464     1608947.85449   1257063.06347  21843150.222    21843158.312
       238.000         193.000
  23174004.098    -7277311.58749  -5651385.93046  23174001.942    23174015.602
       221.000         165.000
  23168356.819     2686764.62549   2095488.65546  23168357.720    23168368.958
       222.000         170.000
  22179386.993    -8653952.66149  -6715690.76346  22179386.590    22179397.264
       232.000         182.000
  23198511.088     3578812.90249   2789023.19345  23198510.755    23198524.474
       217.000         162.000
  20706913.757      306848.84149    250844.99948  20706912.972    20706921.564
       245.000         214.000
  23480894.462     7268425.96549   5658064.87945  23480893.785    23480908.732
       219.000         162.000
 03  1 11 20  2  0.0000000  0  8G28G 9G26G 4G29G 7G 8G24
  21850294.063     1646487.64249   1286314.78947  21850293.437    21850302.190
       239.000         194.000
  23156423.012    -7369698.67849  -5723375.72546  23156422.262    23156434.889
       220.000         163.000
  23179804.901     2746924.15149   2142366.08546  23179806.344    23179817.782
       223.000         169.000
  22161841.253    -8746155.39749  -6787536.86246  22161840.667    22161851.001
       231.000         183.000
  23211382.295     3646451.93649   2841728.76345  23211384.203    23211397.382
       220.000         161.000
  20712690.872      337207.87549    274501.36848  20712690.183    20712698.964
       245.000         214.000
  23501312.271     7375722.23349   5741672.13045  23501312.380    23501326.483
       218.000         161.000
                   -903232.81049   -309667.97543
       207.000          74.000
 03  1 11 20  2 30.0000000  0  8G28G 9G26G 4G29G 7G 8G24
  21857469.587     1684194.85949   1315696.97747  21857469.209    21857478.044
       238.000         195.000
  23138889.662    -7461836.47549  -5795171.29545  23138889.350    23138901.629
       219.000         160.000
  23191311.816     2807392.87449   2189484.47246  23191311.809    23191325.325
       224.000         168.000
  22144349.135    -8838076.23749  -6859163.29346  22144347.897    22144359.647
       231.000         183.000
  23224298.898     3714327.69149   2894618.81245  23224299.982    23224313.219
       220.000         162.000
  20718522.003      367850.57749    298378.77448  20718521.476    20718530.067
       246.000         214.000
  23521767.937     7483216.82749   5825433.92345  23521768.209    23521782.569
       218.000         160.000
                  -1010305.86949   -393100.25343
       207.000          74.000
 03  1 11 20  3  0.0000000  0  8G28G 9G26G 4G29G 7G 8G24
  21864676.935     1722069.75949   1345209.82347  21864676.519    21864685.805
       238.000         195.000
  23121404.359    -7553722.54049  -5866770.65045  23121403.985    23121415.090
       217.000         157.000
  23202877.084     2868167.62349   2236841.33946  23202877.322    23202889.312
       223.000         167.000
  22126911.228    -8929712.10649  -6930567.66746  22126910.888    22126921.484
       230.000         184.000
  23237259.834     3782436.62849   2947690.54445  23237260.699    23237274.264
       218.000         161.000
  20724406.734      398774.97049    322475.68448  20724406.252    20724414.869
       245.000         214.000
  23542260.874     7590907.08049   5909348.16845  23542260.792    23542275.276
       218.000         160.000
                  -1117379.28449   -476531.85443
       208.000          74.000
 03  1 11 20  3 30.0000000  0  8G28G 9G26G 4G29G 7G 8G24
  21871916.491     1760113.94449   1374854.58347  21871916.058    21871925.154
       237.000         194.000
  23103967.537    -7645353.37249  -5938171.15145  23103967.666    23103977.854
       217.000         156.000
  23214500.051     2929246.53349   2284435.19446  23214499.347    23214512.975
       225.000         168.000
  22109528.353    -9021059.03849  -7001746.89346  22109528.082    22109538.795
       230.000         185.000
  23250264.771     3850776.63049   3000942.33745  23250265.366    23250278.495
       217.000         160.000
  20730344.910      429980.13549    346791.37648  20730344.361    20730353.077
       246.000         214.000
  23562790.848     7698791.74349   5993413.90345  23562791.329    23562805.673
       218.000         159.000
                  -1224449.30649   -190791.54243
       209.000          74.000
 03  1 11 20  4  0.0000000  0  8G28G 9G26G 4G29G 7G 8G24
  21879188.659     1798329.17249   1404632.62647  21879188.303    21879196.950
       237.000         193.000
  23086580.055    -7736724.87549  -6009369.56345  23086579.643    23086590.695
       217.000         157.000
  23226180.564     2990627.99349   2332264.81246  23226180.670    23226193.681
       224.000         169.000
  22092201.317    -9112112.56949  -7072697.49846  22092200.408    22092211.954
       231.000         185.000
  23263313.300     3919346.17749   3054372.98145  23263314.343    23263325.920
       217.000         160.000
  20736336.491      461465.80449    371325.64148  20736335.773    20736344.723
       245.000         214.000
  23583357.865     7806870.18249   6077630.62145  23583357.691    23583372.028
       217.000         158.000
                  -1331511.70649   -274216.66343
       210.000          74.000
 03  1 11 20  4 30.0000000  0  8G28G 9G26G 4G29G 7G 8G24
  21886493.353     1836715.63649   1434544.10247  21886493.136    21886502.052
       237.000         192.000
  23069242.153    -7827835.05149  -6080364.34945  23069240.547    23069253.556
       217.000         159.000
  23237918.190     3052308.89949   2380327.73346  23237918.804    23237930.066
       222.000         169.000
  22074930.556    -9202869.97749  -7143417.37346  22074930.234    22074940.777
       231.000         186.000
  23276404.789     3988141.67549   3107979.67845  23276405.410    23276416.550
       217.000         160.000
  20742381.001      493230.21549    396077.10648  20742380.519    20742389.104
       245.000         214.000
  23603961.248     7915139.99149   6161996.48045  23603960.628    23603974.795
       216.000         155.000
                  -1438564.21349   -357633.79244                  24107042.984
       210.000         111.000
 03  1 11 20  5  0.0000000  0  8G28G 9G26G 4G29G 7G 8G24
  21893830.816     1875273.70949   1464589.29247  21893830.407    21893839.528
       236.000         192.000
  23051954.503    -7918681.38749  -6151153.53746  23051953.974    23051965.735
       218.000         164.000
  23249712.106     3114286.27349   2428621.69346  23249712.369    23249725.278
       224.000         169.000
  22057716.763    -9293328.04549  -7213904.00646  22057716.391    22057727.010
       231.000         186.000
  23289538.603     4057160.04349   3161760.03846  23289538.718    23289550.991
       219.000         163.000
  20748478.275      525271.41249    421044.25548  20748477.998    20748486.106
       246.000         214.000
  23624600.606     8023598.75849   6246509.55345  23624602.118    23624614.715
       214.000         152.000
  24086656.770    -1545604.21649   -441041.18445  24086654.546    24086673.754
       210.000         137.000
 03  1 11 20  5 30.0000000  0  8G28G 9G26G 4G29G 7G 8G24
  21901201.053     1914004.48849   1494769.06747  21901200.894    21901209.354
       237.000         191.000
  23034717.730    -8009260.80849  -6221734.74046  23034717.047    23034729.021
       221.000         167.000
  23261562.073     3176557.64549   2477144.76146  23261562.086    23261575.538
       223.000         168.000
  22040560.720    -9383483.15949  -7284154.57946  22040560.467    22040570.929
       232.000         186.000
  23302714.595     4126398.87649   3215712.22146  23302715.766    23302727.365
       219.000         166.000
  20754628.085      557588.32849    446226.24848  20754627.640    20754636.159
       246.000         214.000
  23645275.591     8132244.80949   6331168.57745  23645276.975    23645289.559
       213.000         148.000
  24066290.456    -1652628.38649   -524436.22345  24066289.255    24066307.538
       212.000         142.000
 03  1 11 20  6  0.0000000  0  8G28G 9G26G 4G29G 7G 8G24
  21908604.156     1952907.80449   1525083.29147  21908603.549    21908612.206
       238.000         191.000
  23017532.138    -8099571.23049  -6292106.34546  23017531.744    23017543.914
       224.000         171.000
  23273467.203     3239119.80649   2525894.38346  23273467.264    23273479.628
       222.000         167.000
  22023462.821    -9473332.87449  -7354167.18946  22023462.314    22023472.531
       231.000         185.000
  23315931.544     4195854.23349   3269833.10246  23315930.737    23315944.554
       217.000         163.000
  20760829.884      590178.63249    471621.27348  20760829.297    20760837.860
       246.000         214.000
  23665985.611     8241075.39549   6415971.38345  23665985.709    23665999.395
       212.000         146.000
  24045927.670    -1759634.78049   -607817.40445  24045927.081    24045944.560
       215.000         146.000
 03  1 11 20  6 30.0000000  0  8G28G 9G26G 4G29G 7G 8G24
  21916039.953     1991983.08349   1555531.51647  21916039.871    21916048.308
       238.000         191.000
  23000397.968    -8189611.08349  -6362267.11346  23000397.256    23000409.567
       225.000         173.000
  23285426.922     3301968.59149   2574867.37446  23285427.364    23285439.528
       223.000         167.000
  22006423.369    -9562874.90849  -7423940.04946  22006422.681    22006433.394
       230.000         184.000
  23329188.841     4265522.32449   3324119.76045  23329188.789    23329203.389
       218.000         162.000
  20767083.136      623039.72549    497227.30748  20767082.398    20767091.332
       245.000         214.000
  23686730.068     8350087.49549   6500915.64545  23686730.358    23686744.620
       208.000         142.000
  24025568.707    -1866621.09049   -691182.88845  24025567.875    24025584.871
       216.000         148.000
 03  1 11 20  7  0.0000000  0  8G28G 9G26G 4G29G 7G 8G24
  21923508.834     2031232.05749   1586115.08047  21923508.811    21923516.716
       237.000         191.000
  22983315.915    -8279376.86549  -6432214.32146  22983314.722    22983328.087
       225.000         174.000
  23297441.082     3365102.32549   2624062.38346  23297440.977    23297453.309
       223.000         168.000
  21989443.077    -9652105.36449  -7493470.13546  21989442.616    21989453.511
       230.000         184.000
  23342486.475     4335401.03249   3378570.53546  23342487.522    23342500.635
       222.000         163.000
  20773387.755      656170.80149    523043.71748  20773387.123    20773395.958
       245.000         214.000
  23707508.881     8459279.85749   6586000.35945  23707509.363    23707524.157
       207.000         137.000
  24005214.235    -1973583.87049   -774530.02045  24005211.908    24005230.955
       215.000         150.000
 03  1 11 20  7 30.0000000  0  8G28G 9G26G 4G29G 7G 8G24
  21931010.977     2070655.46549   1616834.56247  21931011.027    21931019.226
       237.000         191.000
  22966286.665    -8368865.60749  -6501945.64546  22966285.581    22966297.891
       223.000         173.000
  23309508.915     3428518.29149   2673477.35046  23309509.782    23309521.881
       224.000         168.000
  21972522.823    -9741020.65849  -7562754.64846  21972522.389    21972532.952
       230.000         184.000
  23355823.823     4405487.51649   3433183.21646  23355824.989    23355838.134
       220.000         164.000
  20779743.579      689570.56049    549069.49048  20779742.903    20779751.891
       245.000         213.000
  23728321.593     8568650.53849   6671224.01745  23728321.615    23728337.270
       205.000         133.000
  23984864.515    -2080520.29749   -857856.60845  23984862.745    23984880.570
       217.000         153.000
 03  1 11 20  8  0.0000000  0  8G28G 9G26G 4G29G 7G 8G24
  21938546.267     2110253.08849   1647689.79047  21938545.801    21938554.766
       236.000         191.000
  22949310.504    -8458075.45349  -6571459.65346  22949309.414    22949321.976
       223.000         172.000
  23321629.695     3492212.99549   2723109.47246  23321630.181    23321642.102
       224.000         167.000
  21955663.158    -9829618.26649  -7631791.61646  21955662.511    21955673.800
       231.000         185.000
  23369199.851     4475778.11449   3487954.94646  23369200.379    23369214.847
       219.000         163.000
  20786149.991      723236.71349    575302.83648  20786149.288    20786158.227
       244.000         213.000
  23749167.716     8678196.78149   6756584.48744  23749165.705    23749182.388
       203.000         130.000
  23964520.342    -2187427.77449   -941160.62245  23964519.129    23964536.578
       219.000         155.000
 03  1 11 20  8 30.0000000  0  8G28G 9G26G 4G29G 7G 8G24
  21946114.787     2150026.00949   1678681.61147  21946114.181    21946123.203
       236.000         190.000
  22932387.892    -8547003.32449  -6640753.93546  22932387.568    22932399.266
       221.000         169.000
  23333802.995     3556184.04149   2772956.95246  23333802.715    23333815.125
       220.000         166.000
  21938864.616    -9917894.86449  -7700578.45446  21938864.510    21938874.584
       233.000         186.000
  23382614.103     4546270.25849   3542883.72045  23382612.614    23382627.952
       215.000         161.000
  20792606.901      757168.07449    601742.84348  20792606.128    20792615.071
       244.000         213.000
  23770046.804     8787916.79849   6842080.36344  23770045.470    23770062.487
       200.000         126.000
  23944182.287    -2294303.26949  -1024439.70845  23944180.519    23944198.038
       220.000         157.000
 03  1 11 20  9  0.0000000  0  8G28G 9G26G 4G29G 7G 8G24
  21953716.805     2189974.98349   1709810.61747  21953716.498    21953724.901
       236.000         190.000
  22915519.361    -8635646.37849  -6709826.28546  22915518.547    22915531.504
       216.000         165.000
  23346028.246     3620428.71949   2823017.62046  23346027.921    23346041.105
       221.000         165.000
  21922127.857   -10005846.80749  -7769112.32546  21922127.937    21922137.883
       233.000         186.000
  23396066.177     4616961.09549   3597967.33145  23396067.569    23396079.934
       215.000         158.000
  20799113.934      791363.07449    628388.28748  20799113.303    20799121.958
       244.000         213.000
  23790958.471     8897808.69649   6927710.12844  23790957.823    23790972.043
       200.000         121.000
  23923850.972    -2401143.61149  -1107691.37245  23923849.134    23923866.405
       220.000         158.000
 03  1 11 20  9 30.0000000  0  8G28G 9G26G 4G29G 7G 8G24
  21961352.412     2230100.31849   1741077.05447  21961351.733    21961360.731
       235.000         189.000
  22898705.624    -8724002.34149  -6778674.91245  22898705.106    22898717.068
       217.000         162.000
  23358305.032     3684943.86449   2873289.04446  23358305.112    23358317.897
       221.000         165.000
  21905453.374   -10093471.51549  -7837391.20046  21905453.270    21905463.372
       233.000         187.000
  23409555.676     4687847.35849   3653203.21545  23409555.502    23409568.816
       212.000         156.000
  20805670.897      825820.03549    655237.85048  20805670.394    20805679.267
       245.000         213.000
  23811902.562     9007870.12349   7013472.02544  23811901.354    23811918.131
       197.000         121.000
  23903526.728    -2507946.36549  -1190913.77145  23903524.614    23903541.170
       219.000         158.000
 03  1 11 20 10  0.0000000  0  8G28G 9G26G 4G29G 7G 8G24
  21969021.625     2270402.55449   1772481.32247  21969021.503    21969030.291
       235.000         188.000
  22881947.239    -8812068.28649  -6847297.55645  22881945.239    22881958.908
       218.000         161.000
  23370632.839     3749726.48449   2923768.90046  23370633.417    23370645.662
       222.000         166.000
  21888841.762   -10180765.78949  -7905412.61247  21888841.860    21888852.029
       234.000         188.000
  23423081.690     4758925.95549   3708588.95945  23423081.328    23423096.122
       211.000         153.000
  20812277.404      860537.02049    682290.02648  20812276.980    20812285.645
       246.000         214.000
  23832878.570     9118098.67548   7099364.14844  23832878.162    23832898.744
       194.000         116.000
  23883210.042    -2614708.91949  -1274104.83245  23883208.189    23883224.115
       219.000         159.000
 03  1 11 20 10 30.0000000  0  8G28G 9G26G 4G29G 7G 8G24
  21976724.598     2310881.43449   1804023.24547  21976724.340    21976732.368
       236.000         188.000
  22865244.091    -8899842.42049  -6915692.84045  22865243.202    22865255.573
       218.000         161.000
  23383010.946     3814773.33949   2974454.66146  23383010.739    23383023.827
       221.000         166.000
  21872293.581   -10267727.11349  -7973174.58047  21872293.586    21872303.543
       234.000         189.000
  23436643.390     4830193.18549   3764121.65945  23436643.160    23436658.077
       209.000         152.000
  20818932.918      895511.83149    709543.10848  20818932.373    20818941.114
       245.000         214.000
  23853885.701     9228491.72848   7185384.43944  23853885.549    23853901.272
       188.000         114.000
  23862901.566    -2721428.72849  -1357262.60745  23862899.828    23862916.050
       219.000         160.000
 03  1 11 20 11  0.0000000  0  8G28G 9G26G 4G29G 7G 8G24
  21984461.458     2351538.65649   1835704.14347  21984461.264    21984469.777
       237.000         189.000
  22848596.989    -8987321.22349  -6983858.01845  22848596.386    22848608.055
       221.000         162.000
  23395438.960     3880082.15549   3025344.53745  23395439.354    23395450.882
       220.000         162.000
  21855809.415   -10354351.54349  -8040674.04447  21855809.378    21855819.862
       234.000         189.000
  23450240.499     4901646.82549   3819799.63245  23450240.187    23450255.510
       211.000         152.000
  20825637.346      930743.73549    736996.51848  20825636.752    20825645.753
       245.000         213.000
  23874923.919     9339048.00248   7271531.88944  23874918.238    23874938.249
       189.000         111.000
  23842601.876    -2828102.44949  -1440384.48045  23842600.791    23842616.997
       222.000         161.000
 03  1 11 20 11 30.0000000  0  8G28G 9G26G 4G29G 7G 8G24
  21992232.189     2392373.78149   1867523.66547  21992232.244    21992241.481
       237.000         190.000
  22832006.700    -9074503.19249  -7051791.88946  22832007.010    22832017.112
       223.000         165.000
  23407915.936     3945649.19749   3076435.65645  23407914.978    23407928.340
       218.000         159.000
  21839389.729   -10440636.94149  -8107909.32047  21839389.415    21839400.053
       233.000         189.000
  23463872.484     4973283.07249   3875619.89845  23463873.458    23463887.245
       214.000         155.000
  20832390.211      966230.43449    764648.46148  20832389.367    20832398.441
       244.000         213.000
  23895993.004     9449764.34348   7357804.12644                  23895994.817
       185.000         106.000
  23822311.453    -2934727.70949  -1523468.60045  23822309.398    23822326.287
       224.000         162.000
 03  1 11 20 12  0.0000000  0  8G28G 9G26G 4G29G 7G 8G24
  22000036.742     2433386.39849   1899481.48547  22000036.412    22000045.846
       237.000         191.000
  22815473.423    -9161386.29149  -7119492.86746  22815473.247    22815484.278
       226.000         168.000
  23420441.396     4011470.69349   3127725.03345  23420441.446    23420454.949
       218.000         160.000
  21823034.970   -10526580.90549  -8174878.54447  21823034.927    21823044.880
       233.000         189.000
  23477538.703     5045097.93549   3931579.35945  23477540.247    23477553.168
       217.000         157.000
  20839190.991     1001969.14349    792496.77548  20839190.309    20839199.676
       244.000         213.000
  23917091.931     9560637.83448   7444198.81744                  23917096.159
       176.000         101.000
  23802030.502    -3041302.73049  -1606513.60045  23802029.008    23802044.443
       222.000         162.000
 03  1 11 20 12 30.0000000  0  8G28G 9G26G 4G29G 7G 8G24
  22007875.421     2474578.27649   1931578.98847  22007875.055    22007884.514
       237.000         192.000
  22798997.686    -9247966.85449  -7186958.13246  22798997.852    22799009.526
       226.000         171.000
  23433014.910     4077544.74149   3179211.22246  23433016.390    23433027.677
       221.000         164.000
  21806746.052   -10612179.42149  -8241578.59447  21806746.244    21806756.477
       234.000         190.000
  23491238.607     5117089.45949   3987676.47645  23491238.604    23491253.364
       218.000         157.000
  20846039.655     1037959.32649    820541.04748  20846039.157    20846048.221
       244.000         213.000
                   9671667.12348   7530714.88644
       173.000          95.000
  23781759.757    -3147823.70049  -1689516.50545  23781757.792    23781774.828
       220.000         161.000
 03  1 11 20 13  0.0000000  0  8G28G 9G26G 4G29G 7G 8G24
  22015748.224     2515949.61149   1963816.32747  22015748.055    22015756.894
       238.000         192.000
  22782579.998    -9334242.44949  -7254185.74346  22782580.228    22782590.403
       226.000         173.000
  23445636.182     4143868.55249   3230891.99046  23445636.184    23445650.000
       219.000         165.000
  21790523.539   -10697429.38849  -8308007.03947  21790523.664    21790533.596
       234.000         190.000
  23504971.495     5189254.58449   4043908.85145  23504971.587    23504985.287
       217.000         157.000
  20852935.956     1074199.34749    848779.99747  20852935.553    20852944.237
       245.000         212.000
                   9782850.11458   3023553.74543
       165.000          74.000
  23761499.850    -3254287.72249  -1772475.07345  23761497.757    23761513.219
       219.000         160.000
 03  1 11 20 13 30.0000000  0  7G28G 9G26G 4G29G 7G24
  22023655.590     2557502.24349   1996194.93847  22023655.531    22023663.691
       237.000         191.000
  22766221.033    -9420209.38849  -7321172.83346  22766221.363    22766232.772
       227.000         174.000
  23458304.343     4210440.07149   3282765.75946  23458305.503    23458318.039
       220.000         164.000
  21774368.073   -10782326.71849  -8374160.71647  21774368.029    21774378.082
       235.000         190.000
  23518736.763     5261591.26549   4100274.92245  23518735.868    23518750.829
       215.000         157.000
  20859879.732     1110688.63349    877213.17147  20859879.166    20859888.077
       244.000         212.000
  23741251.624    -3360690.68149  -1855386.10445  23741249.805    23741265.852
       218.000         160.000
 03  1 11 20 14  0.0000000  0  7G28G 9G26G 4G29G 7G24
  22031597.288     2599235.49049   2028714.28647  22031597.213    22031605.851
       236.000         190.000
  22749921.142    -9505866.27549  -7387918.33646  22749921.167    22749932.228
       224.000         175.000
  23471018.936     4277255.22549   3334829.40046  23471019.311    23471032.070
       219.000         163.000
  21758280.061   -10866869.52449  -8440038.13247  21758279.756    21758289.788
       233.000         190.000
  23532533.615     5334095.25349   4156771.35445  23532534.296    23532548.081
       216.000         160.000
  20866870.311     1147424.29949    905838.33747  20866869.757    20866878.866
       244.000         212.000
  23721015.397    -3467030.84249  -1938248.18545  23721013.814    23721029.928
       217.000         159.000
 03  1 11 20 14 30.0000000  0  7G28G 9G26G 4G29G 7G24
  22039573.395     2641150.22949   2061375.05747  22039572.651    22039581.759
       235.000         190.000
  22733680.691    -9591210.12949  -7454419.91046  22733680.181    22733691.636
       223.000         174.000
  23483779.460     4344311.32749   3387080.81846  23483779.378    23483792.959
       220.000         163.000
  21742260.043   -10951054.54149  -8505636.76147  21742259.927    21742269.985
       234.000         190.000
  23546361.926     5406763.73949   4213395.94945  23546363.482    23546376.971
       219.000         160.000
  20873907.548     1184404.98949    934654.42647  20873907.205    20873916.028
       244.000         212.000
  23700791.755    -3573305.26449  -2021059.09245  23700790.834    23700806.129
       217.000         158.000
 03  1 11 20 15  0.0000000  0  7G28G 9G26G 4G29G 7G24
  22047584.229     2683247.69949   2094178.20247  22047583.645    22047593.118
       235.000         189.000
  22717500.140    -9676237.67549  -7520675.01146  22717499.782    22717510.876
       220.000         172.000
  23496585.430     4411606.33849   3439518.39246  23496586.242    23496597.237
       221.000         163.000
  21726308.839   -11034877.88649  -8570953.55147  21726308.600    21726319.171
       233.000         191.000
  23560221.385     5479594.47749   4270146.98945  23560221.598    23560237.170
       214.000         160.000
  20880991.279     1221629.92749    963660.83747  20880990.731    20880999.565
       245.000         212.000
  23680581.313    -3679510.35449  -2103815.99645  23680580.655    23680595.223
       217.000         156.000
 03  1 11 20 15 30.0000000  0  7G28G 9G26G 4G29G 7G24
  22055629.893     2725528.22149   2127123.99547  22055629.805    22055639.109
       236.000         190.000
  22701380.420    -9760946.35449  -7586681.64846  22701379.852    22701391.711
       224.000         172.000
  23509436.314     4479137.14349   3492139.68846  23509436.636    23509449.181
       223.000         164.000
  21710427.031   -11118336.76449  -8635986.35047  21710427.154    21710437.183
       235.000         191.000
  23574110.935     5552584.28049   4327021.96945  23574111.402    23574125.833
       214.000         157.000
  20888121.163     1259097.25549    992856.12047  20888120.755    20888129.272
       245.000         212.000
  23660384.505    -3785643.57949  -2186516.90245  23660383.248    23660399.614
       217.000         156.000
 03  1 11 20 16  0.0000000  0  7G28G 9G26G 4G29G 7G24
  22063710.399     2767991.55449   2160212.23947  22063710.291    22063719.541
       236.000         190.000
  22685321.993    -9845334.36849  -7652438.39646  22685321.739    22685332.883
       226.000         172.000
  23522331.409     4546899.80349   3544941.65346  23522331.968    23522344.481
       221.000         165.000
  21694615.049   -11201428.98349  -8700733.44147  21694614.841    21694625.105
       235.000         192.000
  23588029.983     5625729.22349   4384017.82745  23588030.167    23588044.333
       213.000         155.000
  20895296.591     1296804.56049   1022238.40647  20895295.598    20895304.933
       243.000         212.000
  23640201.809    -3891702.68749  -2269160.07445  23640201.909    23640215.244
       218.000         155.000
 03  1 11 20 16 30.0000000  0  7G28G 9G26G 4G29G 7G24
  22071825.684     2810637.79349   2193443.00347  22071825.493    22071834.414
       235.000         189.000
  22669324.864    -9929399.90449  -7717943.88546  22669324.453    22669335.595
       226.000         172.000
  23535269.894     4614890.92249   3597921.62246  23535270.861    23535281.730
       221.000         164.000
  21678873.275   -11284152.08449  -8765192.90747  21678872.739    21678883.025
       235.000         192.000
  23601977.931     5699025.61049   4441131.72645  23601978.400    23601993.424
       211.000         153.000
  20902517.218     1334749.59449   1051805.93547  20902516.489    20902525.762
       245.000         212.000
  23620033.779    -3997685.23849  -2351743.58345  23620033.401    23620048.077
       217.000         155.000
 03  1 11 20 17  0.0000000  0  7G28G 9G26G 4G29G 7G24
  22079976.050     2853468.38649   2226817.41947  22079975.621    22079985.065
       234.000         188.000
  22653389.665   -10013139.30149  -7783195.24346  22653389.705    22653399.833
       227.000         173.000
  23548251.348     4683108.53949   3651078.06745  23548253.014    23548264.089
       219.000         162.000
  21663202.482   -11366502.09349  -8829361.66047  21663201.897    21663213.119
       235.000         192.000
  23615954.327     5772471.52549   4498362.12445  23615955.174    23615970.432
       213.000         152.000
  20909783.065     1372931.62049   1081558.13347  20909782.589    20909791.718
       244.000         212.000
  23599881.092    -4103587.51249  -2434264.55745  23599879.553    23599894.609
       219.000         155.000
 03  1 11 20 17 30.0000000  0  7G28G 9G26G 4G29G 7G24
  22088161.492     2896483.30849   2260335.47247  22088160.914    22088170.437
       234.000         188.000
  22637517.057   -10096550.26849  -7848190.69346  22637516.923    22637527.957
       228.000         174.000
  23561275.160     4751549.23649   3704408.40245  23561275.668    23561287.920
       219.000         160.000
  21647603.165   -11448476.54549  -8893237.77347  21647603.216    21647613.532
       234.000         192.000
  23629958.751     5846063.35649   4555706.19045  23629959.799    23629972.547
       214.000         152.000
  20917093.653     1411348.65649   1111493.45047  20917092.938    20917101.986
       244.000         212.000
  23579744.169    -4209406.96949  -2516720.98345  23579742.704    23579759.479
       216.000         155.000
 03  1 11 20 18  0.0000000  0  7G28G 9G26G 4G29G 7G24
  22096382.222     2939683.30249   2293997.73147  22096382.902    22096391.388
       235.000         189.000
  22621707.463   -10179629.99649  -7912928.02546  22621706.948    22621718.404
       228.000         174.000
  23574340.891     4820210.11149   3757910.24545  23574342.572    23574354.413
       218.000         161.000
  21632076.064   -11530072.05649  -8956818.59047  21632076.155    21632086.119
       236.000         192.000
  23643990.268     5919798.24149   4613161.74645  23643991.046    23644004.740
       213.000         153.000
  20924448.561     1449999.30549   1141610.80947  20924447.986    20924456.909
       244.000         212.000
  23559623.503    -4315140.62849  -2599110.55445  23559621.803    23559637.791
       216.000         154.000
 03  1 11 20 18 30.0000000  0  7G28G 9G26G 4G29G 7G24
  22104638.462     2983068.72049   2327804.48847  22104638.407    22104647.605
       236.000         189.000
  22605961.287   -10262376.48749  -7977405.68346  22605960.559    22605972.607
       228.000         175.000
  23587447.942     4889088.10349   3811581.29945  23587448.030    23587462.038
       221.000         162.000
  21616621.633   -11611286.16049  -9020102.21547  21616621.644    21616631.414
       236.000         192.000
  23658048.292     5993672.83249   4670726.15645  23658049.513    23658063.424
       214.000         153.000
  20931847.623     1488881.43849   1171908.54747  20931847.194    20931856.158
       244.000         212.000
  23539519.589    -4420785.84749  -2681431.21145  23539518.411    23539534.187
       216.000         154.000
 03  1 11 20 19  0.0000000  0  7G28G 9G26G 4G29G 7G24
  22112930.023     3026640.26049   2361756.26547  22112930.337    22112938.568
       235.000         188.000
  22590278.967   -10344786.86649  -8041621.42846  22590278.865    22590289.613
       228.000         175.000
  23600595.704     4958180.13349   3865419.11446  23600595.488    23600608.794
       222.000         165.000
  21601240.231   -11692115.68349  -9083086.16947  21601239.893    21601249.749
       236.000         193.000
  23672132.425     6067684.15149   4728397.12545  23672132.923    23672146.936
       213.000         153.000
  20939290.505     1527993.76849   1202385.66347  20939290.021    20939298.773
       244.000         211.000
  23519433.129    -4526339.77249  -2763680.73745  23519432.286    23519446.089
       216.000         154.000
 03  1 11 20 19 30.0000000  0  7G28G 9G26G 4G29G 7G24
  22121256.966     3070398.24749   2395853.32346  22121256.383    22121265.962
       232.000         186.000
  22574661.119   -10426858.58749  -8105573.29046  22574660.997    22574671.163
       229.000         176.000
  23613783.845     5027483.24349   3919421.42846  23613784.047    23613796.562
       224.000         167.000
  21585932.447   -11772557.83749  -9145768.28047  21585931.920    21585941.833
       234.000         193.000
  23686242.035     6141829.15549   4786172.25545  23686243.495    23686256.846
       216.000         155.000
  20946776.860     1567334.48549   1233040.74847  20946776.169    20946785.288
       244.000         212.000
  23499364.656    -4631799.59749  -2845856.88545  23499363.669    23499377.400
       216.000         153.000
 03  1 11 20 20  0.0000000  0  7G28G 9G26G 4G29G 7G24
  22129619.494     3114344.23749   2430096.87146  22129619.153    22129628.467
       232.000         184.000
  22559108.331   -10508588.00749  -8169258.41746  22559107.825    22559119.744
       226.000         176.000
  23627011.883     5096995.65949   3973586.84846  23627012.060    23627024.225
       220.000         165.000
  21570699.201   -11852608.45149  -9208145.28447  21570699.016    21570709.143
       235.000         193.000
  23700376.601     6216105.76749   4844049.92645  23700377.060    23700390.687
       215.000         156.000
  20954306.532     1606902.98249   1263873.32847  20954305.696    20954314.997
       243.000         211.000
  23479314.842    -4737161.23449  -2927956.55145  23479313.460    23479328.248
       217.000         154.000
 03  1 11 20 20 30.0000000  0  7G28G 9G26G 4G29G 7G24
  22138017.958     3158478.29949   2464486.98546  22138017.479    22138026.300
       233.000         184.000
  22543620.958   -10589973.18049  -8232675.31246  22543619.947    22543631.519
       225.000         176.000
  23640278.861     5166713.78949   4027912.53445  23640279.105    23640291.209
       219.000         161.000
  21555540.901   -11932265.31649  -9270215.48047  21555540.880    21555550.824
       236.000         194.000
  23714535.517     6290510.50549   4902027.41045  23714536.048    23714551.405
       212.000         156.000
  20961879.079     1646697.22549   1294881.80947  20961878.543    20961887.541
       244.000         211.000
  23459284.262    -4842422.15349  -3009977.71245  23459283.636    23459297.786
       219.000         155.000
 03  1 11 20 21  0.0000000  0  7G28G 9G26G 4G29G 7G24
  22146452.245     3202800.24349   2499023.49646  22146451.750    22146460.742
       233.000         186.000
  22528199.465   -10671012.26249  -8295822.50046  22528198.862    22528209.495
       225.000         175.000
  23653584.286     5236633.92949   4082395.61745  23653584.854    23653597.461
       217.000         158.000
  21540457.996   -12011526.28349  -9331977.18447  21540457.841    21540468.285
       236.000         195.000
  23728717.924     6365039.41649   4960101.69145  23728719.349    23728733.452
       215.000         155.000
  20969494.148     1686714.75649   1326064.28347  20969493.662    20969502.668
       244.000         211.000
  23439273.268    -4947580.54649  -3091919.00345  23439272.100    23439286.588
       220.000         158.000
 03  1 11 20 21 30.0000000  0  7G28G 9G26G 4G29G 7G24
  22154922.388     3247310.99649   2533707.12646  22154921.847    22154931.420
       234.000         186.000
  22512844.521   -10751702.28749  -8358697.71746  22512844.782    22512854.810
       227.000         176.000
  23666927.645     5306753.53449   4137034.13245  23666927.507    23666940.740
       218.000         157.000
  21525451.070   -12090387.70649  -9393427.55947  21525451.220    21525460.623
       238.000         195.000
  23742923.622     6439689.91549   5018270.68445  23742923.996    23742937.738
       211.000         153.000
  20977151.534     1726954.36049   1357419.80147  20977151.140    20977159.870
       244.000         211.000
  23419282.301    -5052632.93049  -3173777.66245  23419281.429    23419296.048
       216.000         158.000
 03  1 11 20 22  0.0000000  0  7G28G 9G26G 4G29G 7G24
  22163428.568     3292011.29349   2568538.44746  22163428.308    22163438.155
       232.000         186.000
  22497556.703   -10832040.39449  -8421298.70046  22497556.416    22497568.296
       227.000         178.000
  23680308.357     5377069.72749   4191825.83245  23680308.803    23680320.647
       219.000         158.000
  21510520.790   -12168846.83549  -9454564.46247  21510521.076    21510530.537
       238.000         195.000
  23757151.923     6514459.26449   5076532.31645  23757152.476    23757167.378
       211.000         152.000
  20984850.954     1767414.81249   1388947.41547  20984850.530    20984859.441
       245.000         211.000
  23399311.926    -5157576.05449  -3255551.23045  23399310.514    23399324.560
       219.000         160.000
 03  1 11 20 22 30.0000000  0  7G28G 9G26G 4G29G 7G24
  22171970.864     3336901.72049   2603517.91946  22171970.714    22171980.248
       233.000         186.000
  22482336.229   -10912024.04849  -8483623.49946  22482335.863    22482346.943
       229.000         179.000
  23693726.122     5447579.63749   4246768.50945  23693725.955    23693738.734
       219.000         156.000
  21495667.695   -12246900.33349  -9515385.28147  21495667.529    21495676.973
       237.000         195.000
  23771402.307     6589344.46249   5134884.18645  23771403.200    23771417.548
       212.000         151.000
  20992592.012     1808094.33749   1420645.72947  20992591.411    20992600.449
       244.000         211.000
  23379362.869    -5262407.26949  -3337237.56445  23379361.185    23379375.775
       215.000         158.000
 03  1 11 20 23  0.0000000  0  7G28G 9G26G 4G29G 7G24
  22180549.473     3381982.17749   2638645.46946  22180549.215    22180558.710
       234.000         185.000
  22467183.577   -10991651.40549  -8545670.67746  22467183.243    22467193.835
       228.000         179.000
  23707179.841     5518279.69049   4301859.35745  23707180.550    23707193.238
       218.000         152.000
  21480892.000   -12324546.29249  -9575888.54447  21480891.898    21480901.579
       236.000         195.000
  23785673.907     6664341.74549   5193323.41045  23785675.240    23785688.848
       212.000         149.000
  21000374.327     1848990.83649   1452513.11447  21000373.874    21000382.662
       245.000         211.000
  23359435.435    -5367124.31749  -3418834.98445  23359434.700    23359448.700
       213.000         157.000
 03  1 11 20 23 30.0000000  0  7G28G 9G26G 4G29G 7G24
  22189164.477     3427253.32049   2673921.62346  22189164.261    22189173.295
       235.000         184.000
  22452099.335   -11070919.56149  -8607437.93946  22452099.425    22452110.152
       228.000         179.000
  23720669.148     5589167.02549   4357096.13845  23720668.693    23720683.939
       214.000         150.000
  21466194.513   -12401781.57949  -9636071.80047  21466194.873    21466204.066
       236.000         195.000
  23799966.518     6739448.38749   5251847.85445  23799967.365    23799981.864
       214.000         148.000
  21008197.754     1890102.79849   1484548.38147  21008197.288    21008205.855
       245.000         211.000
  23339530.437    -5471723.97949  -3500340.92145  23339529.110    23339543.678
       214.000         155.000
 03  1 11 20 24  0.0000000  0  7G28G 9G26G 4G29G 7G24
  22197815.793     3472715.58949   2709346.70346  22197816.332    22197824.693
       234.000         184.000
  22437083.947   -11149825.86449  -8668923.24846  22437083.420    22437094.467
       230.000         179.000
  23734193.647     5660238.79449   4412476.57745  23734195.119    23734207.000
       215.000         152.000
  21451575.824   -12478603.40649  -9695932.88247  21451576.243    21451585.359
       236.000         195.000
  23814279.299     6814661.10849   5310454.97445  23814280.477    23814295.903
       214.000         147.000
  21016061.867     1931428.52649   1516750.22147  21016061.653    21016069.995
       244.000         211.000
  23319648.322    -5576203.13849  -3581752.96945  23319647.234    23319661.994
       211.000         153.000
 03  1 11 20 24 30.0000000  0  7G28G 9G26G 4G29G 7G24
  22206503.627     3518369.92249   2744921.42946  22206502.998    22206512.468
       233.000         183.000
  22422137.843   -11228367.54749  -8730124.45646  22422137.058    22422148.535
       229.000         178.000
  23747752.797     5731492.10249   4467998.50145  23747754.042    23747767.599
       214.000         154.000
  21437036.384   -12555008.57049  -9755469.28347  21437036.309    21437046.122
       236.000         195.000
  23828611.498     6889977.26649   5369142.67945  23828611.396    23828624.885
       213.000         144.000
  21023966.436     1972966.81449   1549117.69247  21023965.891    21023974.752
       244.000         211.000
  23299789.787    -5680559.01849  -3663068.95745  23299789.222    23299803.591
       211.000         153.000
 03  1 11 20 25  0.0000000  0  7G28G 9G26G 4G29G 7G24
  22215228.131     3564217.13449   2780646.45046  22215227.888    22215236.219
       235.000         183.000
  22407261.650   -11306542.00449  -8791039.50346  22407261.805    22407271.952
       228.000         178.000
  23761346.057     5802924.45749   4523659.92045  23761347.232    23761360.006
       214.000         155.000
  21422576.776   -12630993.93449  -9814678.57547  21422576.449    21422586.369
       237.000         195.000
  23842963.069     6965394.30649   5427908.97945  23842963.540    23842979.717
       213.000         145.000
  21031911.151     2014716.59049   1581649.95247  21031910.451    21031919.488
       243.000         211.000
  23279955.354    -5784788.36949  -3744286.37845  23279954.563    23279968.962
       213.000         154.000
 03  1 11 20 25 30.0000000  0  7G28G 9G26G 4G29G 7G24
  22223989.317     3610256.51449   2816521.22746  22223989.352    22223998.519
       235.000         183.000
  22392455.619   -11384347.79649  -8851667.27546  22392455.506    22392466.056
       227.000         178.000
  23774972.601     5874531.45149   4579457.42445  23774972.649    23774985.314
       214.000         157.000
  21408197.314   -12706557.83749  -9873559.46147  21408197.203    21408207.019
       237.000         196.000
  23857333.030     7040907.74049   5486750.44545  23857332.862    23857348.418
       212.000         143.000
  21039895.542     2056674.67649   1614344.53347  21039895.094    21039904.003
       243.000         211.000
  23260145.431    -5888889.40249  -3825403.79445  23260144.217    23260159.219
       214.000         156.000
 03  1 11 20 26  0.0000000  0  7G28G 9G26G 4G29G 7G24
  22232787.248     3656489.26849   2852546.68746  22232787.571    22232796.532
       234.000         184.000
  22377720.327   -11461781.72149  -8912005.27846  22377720.496    22377730.224
       229.000         178.000
  23788631.796     5946310.95749   4635389.32345  23788630.744    23788645.984
       214.000         158.000
  21393898.733   -12781696.93749  -9932109.33747  21393898.992    21393908.527
       239.000         197.000
  23871720.663     7116515.17049   5545665.10445  23871721.281    23871736.033
       212.000         143.000
  21047919.395     2098840.34849   1647200.85647  21047918.709    21047927.977
       243.000         211.000
  23240360.667    -5992858.39049  -3906418.32145  23240359.444    23240374.292
       217.000         157.000
 03  1 11 20 26 30.0000000  0  7G28G 9G26G 4G29G 7G24
  22241622.012     3702916.06149   2888723.33846  22241621.556    22241630.786
       234.000         183.000
  22363056.480   -11538841.01649  -8972051.37046  22363056.028    22363066.757
       227.000         179.000
  23802323.249     6018260.08449   4691453.40245  23802323.794    23802337.682
       218.000         160.000
  21379681.600   -12856408.12049  -9990325.77347  21379681.305    21379691.204
       238.000         198.000
  23886125.943     7192213.96349   5604650.97945  23886126.009    23886141.176
       211.000         142.000
  21055982.524     2141212.17849   1680217.82447  21055981.837    21055990.986
       243.000         210.000
  23220601.533    -6096692.35849  -3987327.64645  23220599.973    23220614.823
       216.000         158.000
 03  1 11 20 27  0.0000000  0  7G28G 9G26G 4G29G 7G24
  22250493.761     3749537.50449   2925051.66546  22250492.894    22250502.949
       233.000         183.000
  22348464.255   -11615523.02449  -9031803.46346  22348464.200    22348474.089
       228.000         179.000
  23816046.547     6090376.06249   4747647.50745  23816047.064    23816060.668
       218.000         161.000
  21365546.449   -12930688.48749 -10048206.50647  21365546.450    21365556.136
       239.000         199.000
  23900547.843     7268001.16249   5663705.74145  23900547.315    23900565.195
       209.000         140.000
  21064084.625     2183788.98149   1713394.51547  21064084.118    21064093.153
       243.000         210.000
  23200868.660    -6200388.04849  -4068129.21145  23200867.694    23200881.970
       216.000         159.000
 03  1 11 20 27 30.0000000  0  7G28G 9G26G 4G29G 7G24
  22259402.715     3796354.48749   2961532.35146  22259401.707    22259412.123
       233.000         184.000
  22333944.482   -11691824.90349  -9091259.36546  22333944.922    22333954.885
       228.000         180.000
  23829801.125     6162656.08649   4803969.44445  23829801.002    23829815.427
       218.000         159.000
  21351493.910   -13004535.16849 -10105749.29247  21351493.948    21351503.686
       239.000         199.000
  23914985.998     7343874.17949   5722827.35445  23914985.230    23914999.233
       206.000         138.000
  21072225.382     2226569.05949   1746729.59947  21072224.652    21072234.479
       243.000         211.000
  23181162.822    -6303942.22849  -4148820.50545  23181161.586    23181176.279
       219.000         160.000
 03  1 11 20 28  0.0000000  0  7G28G 9G26G 4G29G 7G24
  22268348.845     3843366.63649   2998165.10446  22268348.443    22268358.036
       235.000         185.000
  22319497.321   -11767744.98849  -9150417.73746  22319496.964    22319507.996
       230.000         181.000
  23843586.204     6235096.44849   4860416.33245  23843587.288    23843598.562
       218.000         156.000
  21337524.278   -13077945.98349 -10162952.44747  21337524.189    21337533.735
       239.000         199.000
  23929439.681     7419828.98649   5782012.70745  23929439.304    23929455.748
       204.000         138.000
  21080404.474     2269550.26049   1780221.39947  21080404.010    21080413.210
       243.000         211.000
  23161484.332    -6407353.05349  -4229400.07745  23161483.599    23161496.716
       218.000         159.000
 03  1 11 20 28 30.0000000  0  7G28G 9G26G 4G29G 7G24
  22277332.410     3890574.92549   3034950.71246  22277331.934    22277341.457
       235.000         185.000
  22305123.256   -11843280.43049  -9209276.40746  22305122.575    22305133.231
       231.000         182.000
  23857401.320     6307694.63249   4916986.17945  23857402.264    23857414.837
       220.000         155.000
  21323638.084   -13150917.75849 -10219813.49447  21323637.683    21323647.420
       239.000         199.000
  23943908.616     7495863.15249   5841259.86645  23943909.476    23943923.053
       204.000         138.000
  21088621.693     2312731.44549   1813869.03447  21088621.201    21088630.366
       244.000         210.000
  23141833.691    -6510617.00049  -4309865.20045  23141833.312    23141846.893
       216.000         158.000
 03  1 11 20 29  0.0000000  0  7G28G 9G26G 4G29G 7G24
  22286353.209     3937979.02849   3071888.89846  22286352.899    22286362.784
       234.000         184.000
  22290822.911   -11918429.27549  -9267833.85046  22290822.775    22290832.705
       230.000         182.000
  23871245.801     6380446.90449   4973676.10145  23871245.960    23871259.526
       219.000         155.000
  21309835.808   -13223448.57249 -10276330.94047  21309836.047    21309845.358
       239.000         200.000
  23958391.973     7571972.76449   5900565.82145  23958392.090    23958407.404
       204.000         135.000
  21096876.526     2356110.40649   1847670.77547  21096875.927    21096885.051
       243.000         210.000
  23122211.376    -6613732.03449  -4390214.28445  23122210.247    23122223.573
       216.000         157.000
 03  1 11 20 29 30.0000000  0  7G28G 9G26G 4G29G 7G24
  22295411.501     3985580.40649   3108980.80846  22295411.578    22295420.009
       233.000         183.000
  22276596.578   -11993188.47549  -9326087.66246  22276596.153    22276606.138
       232.000         183.000
  23885119.135     6453350.88349   5030484.24445  23885119.306    23885132.960
       216.000         155.000
  21296118.260   -13295534.88949 -10332502.01947  21296118.534    21296127.707
       240.000         200.000
  23972889.141     7648155.68149   5959928.87545  23972890.413    23972905.197
       203.000         133.000
  21105168.762     2399686.17949   1881625.88347  21105168.246    21105177.327
       243.000         210.000
  23102618.157    -6716694.24349  -4470444.28045  23102617.191    23102629.610
       217.000         156.000
 03  1 11 20 30  0.0000000  0  7G28G 9G26G 4G29G 7G24
  22304507.438     4033379.30849   3146226.64646  22304507.101    22304516.782
       232.000         182.000
  22262444.915   -12067555.65949  -9384036.01446  22262444.420    22262454.235
       232.000         183.000
  23899020.597     6526403.69749   5087408.34745  23899020.772    23899035.313
       216.000         154.000
  21282485.750   -13367174.28849 -10388324.84547  21282485.562    21282495.106
       239.000         201.000
  23987399.707     7724408.56149   6019346.49545  23987399.769    23987414.829
       203.000         132.000
  21113498.050     2443456.95749   1915732.94447  21113497.320    21113506.862
       243.000         210.000
  23083054.294    -6819501.29849  -4550553.36845  23083052.495    23083066.176
       218.000         157.000
 03  1 11 20 30 30.0000000  0  7G28G 9G26G 4G29G 7G24
  22313640.907     4081375.97749   3183626.56346  22313640.458    22313649.973
       232.000         182.000
  22248368.439   -12141528.51049  -9441677.08946  22248367.905    22248377.747
       232.000         182.000
  23912949.942     6599602.00249   5144445.82445  23912951.318    23912963.926
       216.000         153.000
  21268938.658   -13438364.13949 -10443797.37947  21268938.750    21268947.758
       239.000         200.000
  24001923.008     7800728.44449   6078816.29045  24001923.394    24001940.218
       198.000         132.000
  21121864.155     2487421.20749   1949990.76147  21121863.748    21121872.688
       243.000         209.000
  23063520.591    -6922149.84149  -4630538.95045  23063519.728    23063532.026
       219.000         159.000
 03  1 11 20 31  0.0000000  0  7G28G 9G26G 4G29G 7G24
  22322812.381     4129572.21949   3221181.98846  22322811.739    22322821.318
       231.000         182.000
  22234367.490   -12215103.36149  -9499008.04146  22234366.518    22234377.819
       229.000         182.000
  23926906.832     6672943.94549   5201595.23845  23926907.557    23926921.619
       215.000         153.000
  21255477.835   -13509100.73849 -10498916.73847  21255477.979    21255486.887
       239.000         200.000
  24016458.978     7877113.54549   6138336.89244  24016461.530    24016474.551
       205.000         131.000
  21130267.062     2531578.52649   1984399.02447  21130266.331    21130275.463
       243.000         209.000
  23044017.882    -7024636.44749  -4710398.36045  23044016.819    23044030.063
       220.000         161.000
 03  1 11 20 31 30.0000000  0  7G28G 9G26G 4G29G 7G24
  22332021.390     4177966.29349   3258891.56646  22332020.974    22332030.530
       229.000         181.000
  22220442.262   -12288279.60649  -9556028.40346  22220441.219    22220452.960
       229.000         181.000
  23940889.892     6746424.71149   5258852.78345  23940889.967    23940903.648
       211.000         153.000
  21242103.415   -13579383.32749 -10553682.33147  21242102.978    21242112.340
       240.000         199.000
  24031006.682     7953558.58249   6197904.19944  24031007.670    24031023.928
       201.000         131.000
  21138706.021     2575925.31949   2018954.92947  21138705.609    21138714.208
       243.000         209.000
  23024546.066    -7126960.24149  -4790130.91846  23024545.329    23024558.227
       221.000         163.000
 03  1 11 20 32  0.0000000  0  7G28G 9G26G 4G29G 7G24
  22341268.394     4226559.98349   3296756.69346  22341267.802    22341277.473
       230.000         180.000
  22206593.590   -12361053.94949  -9612735.59146  22206593.295    22206603.491
       230.000         181.000
  23954898.829     6820042.24749   5316216.90445  23954898.669    23954913.734
       210.000         153.000
  21228816.158   -13649208.24149 -10608091.30047  21228815.937    21228824.897
       239.000         198.000
  24045565.090     8030061.82649   6257516.82944  24045567.060    24045580.748
       197.000         130.000
  21147181.025     2620461.15449   2053658.13847  21147180.472    21147189.360
       243.000         209.000
  23005106.153    -7229116.60449  -4869733.02746  23005105.977    23005118.532
       222.000         164.000
 03  1 11 20 32 30.0000000  0  7G28G 9G26G 4G29G 7G24
  22350553.569     4275353.98549   3334777.91946  22350553.784    22350563.962
       230.000         180.000
  22192822.049   -12433423.65749  -9669127.47546  22192821.819    22192831.669
       230.000         181.000
  23968933.145     6893793.85049   5373685.51145  23968934.352    23968947.452
       213.000         154.000
  21215616.514   -13718572.48149 -10662141.29947  21215616.225    21215625.875
       239.000         199.000
  24060133.601     8106620.49449   6317172.65944  24060132.027    24060151.686
       197.000         127.000
  21155691.669     2665184.68749   2088507.61147  21155691.190    21155700.074
       243.000         209.000
  22985698.676    -7331102.56249  -4949202.36546  22985697.563    22985711.327
       222.000         166.000
 03  1 11 20 33  0.0000000  0  7G28G 9G26G 4G29G 7G24
  22359876.904     4324347.67149   3372954.73846  22359876.580    22359886.744
       230.000         181.000
  22179127.790   -12505387.22749  -9725202.89446  22179126.880    22179136.942
       230.000         182.000
  23982992.569     6967675.57549   5431255.49445  23982993.299    23983006.907
       215.000         154.000
  21202504.750   -13787474.59949 -10715831.20947  21202504.831    21202513.936
       239.000         200.000
  24074711.920     8183230.62749   6376868.59544  24074713.603    24074727.405
       198.000         126.000
  21164237.506     2710093.39649   2123501.37647  21164236.504    21164246.134
       242.000         209.000
  22966323.880    -7432916.43549  -5028537.63146  22966323.475    22966336.082
       224.000         167.000
 03  1 11 20 33 30.0000000  0  7G28G 9G26G 4G29G 7G24
  22369238.211     4373541.12549   3411287.20846  22369238.618    22369248.136
       232.000         182.000
  22165511.176   -12576942.46249  -9780960.12946  22165510.546    22165521.089
       231.000         183.000
  23997076.115     7041683.96349   5488924.21845  23997075.630    23997091.206
       212.000         154.000
  21189481.462   -13855912.25749 -10769159.19247  21189481.457    21189490.834
       240.000         200.000
  24089300.108     8259888.83449   6436601.97444  24089300.394    24089315.845
       197.000         124.000
  21172818.206     2755185.39449   2158637.96747  21172817.643    21172826.883
       242.000         209.000
  22946982.505    -7534555.46649  -5107736.67746  22946981.645    22946995.566
       225.000         167.000
 03  1 11 20 34  0.0000000  0  7G28G 9G26G 4G29G 7G24
  22378637.707     4422935.06949   3449775.91846  22378637.921    22378647.555
       232.000         183.000
  22151972.702   -12648086.95649  -9836397.30346  22151972.219    22151982.982
       231.000         185.000
  24011182.992     7115816.37849   5546689.58045  24011182.484    24011197.447
       216.000         151.000
  21176547.152   -13923882.74449 -10822123.15547  21176547.181    21176556.636
       239.000         201.000
  24103896.912     8336592.38649   6496370.70844  24103900.767    24103912.333
       200.000         124.000
  21181433.596     2800459.26549   2193916.27747  21181432.899    21181442.263
       242.000         208.000
  22927674.894    -7636016.77649  -5186797.22846  22927673.992    22927687.220
       223.000         167.000
 03  1 11 20 34 30.0000000  0  7G28G 9G26G 4G29G 7G24
  22388075.523     4472530.59049   3488421.66946  22388075.058    22388085.225
       230.000         184.000
  22138513.092   -12718817.56249  -9891511.96846  22138512.767    22138523.383
       232.000         186.000
  24025313.154     7190070.35649   5604549.67245  24025313.831    24025328.222
       217.000         151.000
  21163702.180   -13991382.82049 -10874720.56447  21163702.064    21163711.939
       239.000         201.000
  24118501.855     8413338.89349   6556172.88944  24118500.420    24118519.911
       197.000         123.000
  21190083.348     2845914.26549   2229335.72447  21190082.691    21190092.407
       242.000         208.000
  22908401.639    -7737297.01649  -5265716.70646  22908400.304    22908414.126
       223.000         166.000
 03  1 11 20 35  0.0000000  0  7G28G 9G26G 4G29G 7G24
  22397551.671     4522328.38049   3527225.04846  22397551.288    22397561.636
       231.000         183.000
  22125132.625   -12789131.64449  -9946302.08446  22125131.890    22125142.930
       232.000         186.000
  24039466.000     7264443.22749   5662502.40745  24039467.063    24039481.136
       215.000         151.000
  21150947.259   -14058409.81549 -10926949.34247  21150947.064    21150956.889
       240.000         201.000
  24133113.995     8490125.76649   6616006.52444  24133112.544    24133126.692
       196.000         120.000
  21198767.376     2891549.03649   2264895.25047  21198766.869    21198776.221
       242.000         209.000
  22889163.501    -7838392.71949  -5344492.40246  22889163.012    22889175.823
       221.000         166.000
 03  1 11 20 35 30.0000000  0  7G28G 9G26G 4G29G 7G24
  22407066.608     4572329.55949   3566186.91046  22407066.311    22407077.013
       232.000         184.000
  22111832.071   -12859026.23249 -10000765.31446  22111831.388    22111843.292
       230.000         185.000
  24053641.011     7338932.45249   5720545.79445  24053642.390    24053657.658
       215.000         151.000
  21138283.057   -14124960.63049 -10978807.07147  21138283.411    21138292.141
       239.000         202.000
  24147733.001     8566950.31849   6675869.50244  24147731.773    24147750.382
       195.000         118.000
  21207485.402     2937362.56049   2300594.06447  21207484.954    21207494.269
       242.000         209.000
  22869961.201    -7939300.56149  -5423121.70446  22869960.376    22869972.555
       224.000         166.000
 03  1 11 20 36  0.0000000  0  7G28G 9G26G 4G29G 7G24
  22416620.235     4622533.86349   3605307.05946  22416620.397    22416629.820
       232.000         183.000
  22098611.550   -12928499.61549 -10054900.33646  22098611.350    22098622.211
       230.000         184.000
  24067837.590     7413534.55049   5778677.12745  24067838.432    24067853.001
       212.000         152.000
  21125709.811   -14191033.22849 -11030292.15947  21125709.905    21125719.043
       240.000         202.000
  24162359.033     8643809.20548   6735759.23844  24162358.048    24162371.365
       194.000         118.000
  21216237.146     2983352.93049   2336430.68047  21216236.975    21216245.987
       243.000         209.000
  22850795.254    -8040018.01549  -5501602.66846  22850794.554    22850807.927
       225.000         166.000
 03  1 11 20 36 30.0000000  0  8G28G 9G26G 4G29G 7G 5G24
  22426211.446     4672935.24349   3644580.77346  22426211.537    22426221.121
       233.000         183.000
  22085470.579   -12997555.94749 -10108710.38946  22085470.217    22085480.922
       230.000         184.000
  24082053.704     7488240.12349   5836889.08245  24082053.691    24082070.010
       212.000         151.000
  21113226.826   -14256631.71249 -11081407.81447  21113226.847    21113236.056
       240.000         202.000
  24176989.528     8720692.90649   6795668.34444  24176988.729    24177007.503
       196.000         116.000
  21225021.019     3029511.98949   2372398.73747  21225020.984    21225029.833
       243.000         209.000
  24555367.613    -1865994.19849  -1427902.75145  24555365.754    24555381.676
       207.000         141.000
  22831664.802    -8140548.74549  -5579938.13346  22831664.288    22831677.117
       224.000         166.000
 03  1 11 20 37  0.0000000  0  8G28G 9G26G 4G29G 7G 5G24
  22435841.934     4723542.68549   3684015.04746  22435841.440    22435851.603
       231.000         182.000
  22072411.049   -13066184.65849 -10162187.21546  22072410.628    22072421.327
       232.000         185.000
  24096290.143     7563054.51449   5895185.83845  24096289.816    24096305.963
       209.000         151.000
  21100836.152   -14321745.10049 -11132145.46047  21100836.125    21100845.362
       239.000         202.000
  24191625.621     8797606.96348   6855601.06744  24191623.967    24191643.035
       191.000         113.000
  21233838.357     3075846.76749   2408503.72147  21233837.880    21233847.200
       243.000         208.000
  24539585.270    -1948928.49749  -1492526.64245  24539584.229    24539600.125
       207.000         141.000
  22812572.037    -8240881.20949  -5658119.10946  22812571.705    22812584.131
       224.000         166.000
 03  1 11 20 37 30.0000000  0  8G28G 9G26G 4G29G 7G 5G24
  22445511.592     4774356.79249   3723610.35846  22445511.366    22445522.267
       231.000         181.000
  22059433.385   -13134382.80149 -10215328.54946  22059433.062    22059443.951
       231.000         186.000
  24110546.890     7637975.00949   5953565.24745  24110547.975    24110562.411
       208.000         148.000
  21088538.284   -14386370.66949 -11182502.99547  21088538.429    21088547.720
       240.000         203.000
  24206266.855     8874548.44248   6915555.16144  24206264.542    24206286.583
       189.000         109.000
  21242688.769     3122355.92649   2444744.57747  21242688.113    21242697.404
       242.000         208.000
  24523797.022    -2031895.67649  -1557176.18745  24523796.679    24523811.795
       213.000         142.000
  22793517.487    -8341012.83049  -5736143.58746  22793517.286    22793527.900
       226.000         167.000
 03  1 11 20 38  0.0000000  0  8G28G 9G26G 4G29G 7G 5G24
  22455220.356     4825376.63849   3763365.97346  22455220.474    22455231.074
       232.000         180.000
  22046537.682   -13202149.31649 -10268133.54746  22046537.280    22046548.109
       232.000         186.000
  24124823.192     7712997.47549   6012024.12145  24124823.882    24124839.293
       207.000         148.000
  21076333.440   -14450507.37149 -11232479.59847  21076333.428    21076342.723
       241.000         203.000
  24220912.675     8951513.44348   6975527.57944  24220913.540
       188.000         107.000
  21251571.798     3169036.72649   2481119.18047  21251571.113    21251580.219
       242.000         207.000
  24508002.740    -2114896.52049  -1621851.99645  24508002.593    24508017.215
       211.000         143.000
  22774501.550    -8440941.84049  -5814010.18646  22774500.401    22774512.437
       226.000         167.000
 03  1 11 20 38 30.0000000  0  8G28G 9G26G 4G29G 7G 5G24
  22464968.377     4876601.76949   3803281.57646  22464968.826    22464978.265
       232.000         180.000
  22033724.427   -13269483.00849 -10320601.29146  22033723.970    22033735.078
       233.000         186.000
  24139118.383     7788117.66749   6070559.14445  24139119.605    24139133.784
       209.000         149.000
  21064221.872   -14514153.72349 -11282074.10547  21064221.783    21064231.570
       241.000         204.000
  24235562.546     9028497.88348   7035515.18744  24235568.115
       190.000         105.000
  21260486.978     3215886.67649   2517625.58247  21260486.402    21260495.677
       241.000         206.000
  24492201.701    -2197931.59949  -1686554.42045  24492200.952    24492217.123
       211.000         143.000
  22755524.439    -8540666.01249  -5891717.16146  22755523.629    22755536.116
       224.000         167.000
 03  1 11 20 39  0.0000000  0  8G28G 9G26G 4G29G 7G 5G24
  22474755.358     4928031.87249   3843356.88446  22474755.311    22474764.869
       229.000         178.000
  22020993.832   -13336382.29649 -10372730.52146  22020992.954    22021003.551
       232.000         187.000
  24153431.528     7863332.04149   6129167.55945  24153431.757    24153447.409
       209.000         148.000
  21052203.962   -14577308.01349 -11331285.18447  21052204.032    21052213.546
       240.000         205.000
  24250215.551     9105498.03348   7095514.95244  24250220.861    24250238.964
       188.000         108.000
  21269433.970     3262903.44549   2554261.97947  21269433.258    21269442.742
       241.000         206.000
  24476394.051    -2281001.04449  -1751283.59945  24476392.536    24476409.191
       210.000         144.000
  22736586.782    -8640183.35949  -5969262.97246  22736586.099    22736598.378
       223.000         168.000
 03  1 11 20 39 30.0000000  0  8G28G 9G26G 4G29G 7G 5G24
  22484581.388     4979668.26149   3883592.94346  22484580.469    22484590.529
       228.000         175.000
  22008346.441   -13402844.02949 -10424518.81046  22008345.669    22008356.495
       232.000         186.000
  24167762.064     7938638.50349   6187847.70945  24167764.025    24167777.138
       210.000         150.000
  21040280.322   -14639967.21649 -11380110.47947  21040280.567    21040289.820
       241.000         206.000
  24264871.269     9182511.78748   7155525.37444  24264872.109    24264886.124
       194.000         107.000
  21278412.590     3310086.42749   2591027.88947  21278411.892    21278421.582
       242.000         206.000
  24460579.952    -2364103.57549  -1816038.56645  24460578.424    24460595.117
       213.000         146.000
  22717689.113    -8739490.12349  -6046644.69346  22717687.602    22717701.466
       223.000         169.000
 03  1 11 20 40  0.0000000  0  8G28G 9G26G 4G29G 7G 5G24
  22494446.737     5031511.18149   3923989.92646  22494446.159    22494456.171
       229.000         174.000
  21995782.715   -13468866.04049 -10475964.44146  21995782.177    21995792.875
       232.000         187.000
  24182109.731     8014033.84249   6246597.12245  24182111.163    24182126.361
       213.000         151.000
  21028451.383   -14702128.96849 -11428548.15147  21028451.596    21028460.697
       241.000         205.000
  24279529.036     9259536.06048   7215543.91544                  24279531.000
       186.000         106.000
  21287422.567     3357434.15149   2627922.17047  21287422.064    21287431.322
       241.000         206.000
  24444759.631    -2447238.77449  -1880819.01945  24444757.956    24444774.397
       210.000         144.000
  22698831.911    -8838583.86749  -6123860.41646  22698831.556    22698843.972
       225.000         171.000
 03  1 11 20 40 30.0000000  0  8G28G 9G26G 4G29G 7G 5G24
  22504351.655     5083561.46149   3964548.48446  22504351.182    22504361.006
       228.000         175.000
  21983303.363   -13534445.35649 -10527065.12147  21983303.526    21983313.645
       234.000         188.000
  24196473.802     8089515.68149   6305413.94345  24196475.119    24196489.674
       213.000         152.000
  21016717.605   -14763790.44949 -11476596.00447  21016717.749    21016726.351
       241.000         204.000
                   9336568.64048   7275569.00644
       187.000          99.000
  21296463.736     3404945.68849   2664944.09447  21296463.265    21296472.803
       241.000         206.000
  24428933.214    -2530405.57249  -1945624.08945  24428932.692    24428947.232
       212.000         143.000
  22680016.107    -8937460.93849  -6200907.31046  22680015.892    22680028.369
       225.000         172.000
 03  1 11 20 41  0.0000000  0  8G28G 9G26G 4G29G 7G 5G24
  22514296.010     5135819.34949   4005268.81646  22514295.837    22514305.976
       230.000         175.000
  21970908.711   -13599579.97149 -10577819.28047  21970908.966    21970918.394
       234.000         189.000
  24210853.781     8165080.78349   6364295.64345  24210854.724    24210868.555
       214.000         151.000
  21005079.401   -14824949.36049 -11524252.24347  21005079.296    21005088.391
       241.000         204.000
                   9413606.09458   7335597.88944
       185.000          98.000
  21305535.799     3452619.22049   2702092.24247  21305535.375    21305544.499
       242.000         207.000
  24413101.052    -2613603.55749  -2010453.48845  24413099.753    24413115.806
       212.000         146.000
  22661242.055    -9036118.47849  -6277783.14446  22661242.168    22661254.136
       225.000         173.000
 03  1 11 20 41 30.0000000  0  8G28G 9G26G 4G29G 7G 5G24
  22524279.899     5188284.47049   4046150.63046  22524279.915    22524290.110
       230.000         176.000
  21958598.888   -13664268.49549 -10628225.83247  21958598.289    21958609.261
       232.000         189.000
  24225248.662     8240725.37549   6423239.29145  24225249.109    24225264.554
       214.000         148.000
  20993537.104   -14885604.33849 -11571515.80947  20993537.227    20993546.213
       241.000         204.000
                   9490645.02648   5109217.00743
       180.000          74.000
  21314638.254     3500452.53249   2739364.90047  21314637.853    21314647.422
       242.000         207.000
  24397262.894    -2696832.92049  -2075307.29645  24397262.557    24397278.259
       213.000         147.000
  22642510.080    -9134554.84449  -6354486.63146  22642509.637    22642522.369
       224.000         173.000
 03  1 11 20 42  0.0000000  0  8G28G 9G26G 4G29G 7G 5G24
  22534303.390     5240957.69949   4087194.60446  22534303.806    22534313.000
       228.000         174.000
  21946374.347   -13728508.21849 -10678282.67147  21946373.532    21946384.427
       233.000         188.000
  24239657.956     8316447.19349   6482243.09845  24239658.873    24239672.319
       211.000         144.000
  20982091.263   -14945752.53449 -11618384.48547  20982091.270    20982100.255
       241.000         204.000
                   9567682.92248   5169240.72943
       176.000          74.000
  21323770.902     3548444.67549   2776761.32047  21323770.521    21323780.011
       242.000         207.000
  24381418.974    -2780092.64849  -2140184.77645  24381417.776    24381432.988
       213.000         145.000
  22623820.944    -9232766.28649  -6431014.85246  22623821.025    22623832.847
       226.000         174.000
 03  1 11 20 42 30.0000000  0  8G28G 9G26G 4G29G 7G 5G24
  22544366.584     5293840.09549   4128401.57446  22544366.040    22544376.831
       228.000         173.000
  21934235.659   -13792296.36749 -10727987.63447  21934235.565    21934245.733
       233.000         189.000
  24254081.702     8392243.65349   6541305.07345  24254082.308    24254096.641
       212.000         143.000
  20970742.315   -15005391.27649 -11664856.18747  20970742.417    20970751.739
       241.000         205.000
                   9644717.30548   5229258.59943
       181.000          74.000
  21332933.622     3596594.80049   2814280.84547  21332933.078    21332942.772
       241.000         207.000
  24365569.453    -2863381.66949  -2205085.12345  24365567.029    24365584.305
       210.000         144.000
  22605175.324    -9330749.61949  -6507365.32946  22605175.433    22605187.143
       226.000         174.000
 03  1 11 20 43  0.0000000  0  8G28G 9G26G 4G29G 7G 5G24
  22554469.521     5346931.29249   4169771.24146  22554468.866    22554480.231
       227.000         173.000
  21922183.287   -13855631.59749 -10777339.67547  21922183.278    21922193.229
       234.000         189.000
  24268518.992     8468111.04549   6600422.31445  24268518.904    24268535.144
       212.000         144.000
  20959490.679   -15064519.01049 -11710929.69747  20959490.816    20959499.941
       242.000         205.000
                   9721744.66748   5218652.61843
       181.000          74.000
  21342125.957     3644900.55349   2851921.64147  21342125.164    21342134.967
       241.000         206.000
  24349714.230    -2946700.23549  -2270008.49745  24349712.085    24349728.537
       202.000         141.000
  22586573.564    -9428502.79849  -6583536.46846  22586572.921    22586585.025
       226.000         175.000
 03  1 11 20 43 30.0000000  0  8G28G 9G26G 4G29G 7G 5G24
  22564612.347     5400232.12049   4211304.23646  22564612.374    22564622.432
       228.000         174.000
  21910217.810   -13918511.00849 -10826336.54547  21910217.542    21910227.687
       234.000         190.000
  24282969.226     8544047.04849   6659593.02345  24282970.070    24282984.817
       214.000         145.000
  20948336.854   -15123132.93649 -11756602.83947  20948337.188    20948346.276
       242.000         206.000
                   9798762.61848   5278618.72143
       182.000          74.000
  21351347.631     3693361.06649   2889683.02447  21351347.080    21351356.519
       241.000         206.000
  24333853.376    -3030047.22149  -2334953.94745  24333851.355    24333867.314
       210.000         140.000
  22568016.068    -9526022.62949  -6659525.77346  22568015.438    22568027.263
       227.000         176.000
 03  1 11 20 44  0.0000000  0  8G28G 9G26G 4G29G 7G 5G24
  22574795.117     5453742.18149   4253000.27346  22574794.735    22574805.219
       230.000         176.000
  21898339.188   -13980932.92149 -10874976.91447  21898338.656    21898349.137
       233.000         190.000
  24297431.820     8620047.89849   6718814.24345  24297431.818    24297448.157
       213.000         147.000
  20937281.027   -15181231.54849 -11801874.44147  20937281.052    20937290.205
       241.000         206.000
                   9875768.33658   5338538.67443
       169.000          74.000
  21360598.506     3741974.40649   2927563.49647  21360597.866    21360607.522
       241.000         205.000
  24317987.392    -3113422.49649  -2399921.53645  24317987.028    24318002.347
       209.000         141.000
  22549503.482    -9623306.34449  -6735331.09046  22549502.684    22549515.586
       227.000         177.000
 03  1 11 20 44 30.0000000  0  8G28G 9G26G 4G29G 7G 5G24
  22585017.850     5507462.07249   4294859.81546  22585017.838    22585028.173
       230.000         177.000
  21886548.005   -14042895.34849 -10923259.25147  21886547.309    21886557.653
       233.000         189.000
  24311906.207     8696110.64649   6778083.68645  24311906.787    24311923.728
       215.000         147.000
  20926323.673   -15238812.68649 -11846742.81747  20926323.488    20926333.127
       242.000         205.000
                   9952762.90958   5328164.24543
       175.000          74.000
  21369878.253     3790739.00149   2965561.82547  21369878.031    21369886.977
       242.000         205.000
  24302116.015    -3196825.66849  -2464910.86845  24302113.257    24302130.197
       208.000         141.000
  22531036.292    -9720351.45949  -6810950.49146  22531035.439    22531048.343
       226.000         177.000
 03  1 11 20 45  0.0000000  0  8G28G 9G26G 4G29G 7G 5G24
  22595280.512     5561392.00949   4336883.03046  22595279.823    22595291.385
       227.000         176.000
  21874844.642   -14104395.87449 -10971181.66447  21874844.490    21874854.545
       234.000         189.000
  24326392.042     8772232.50049   6837399.21145  24326392.399    24326408.606
       218.000         148.000
  20915465.168   -15295874.07949 -11891206.19947  20915465.095    20915474.168
       241.000         205.000
                  10029733.53458   5388198.13143
       171.000          74.000
  21379186.408     3839653.47049   3003676.94147  21379185.838    21379195.320
       241.000         205.000
  24286239.485    -3280255.77649  -2529921.19245  24286237.358    24286254.464
       207.000         140.000
  22512614.976    -9817155.12249  -6886381.74946  22512614.062    22512626.878
       227.000         177.000
 03  1 11 20 45 30.0000000  0  8G28G 9G26G 4G29G 7G 5G24
  22605583.148     5615532.72649   4379070.49446  22605582.821    22605593.132
       227.000         174.000
  21863229.904   -14165432.08749 -11018742.27547  21863230.141    21863239.810
       235.000         190.000
  24340888.686     8848410.77449   6896758.68145  24340889.133    24340904.247
       217.000         150.000
  20904706.016   -15352413.32149 -11935262.71947  20904706.023    20904715.186
       242.000         205.000
                  10106682.41748   5448275.61043
       176.000          74.000
  21388522.789     3888716.66649   3041907.95547  21388521.974    21388531.965
       240.000         205.000
  24270358.239    -3363711.93649  -2594951.83245  24270358.161    24270372.134
       206.000         140.000
  22494240.254    -9913713.92449  -6961622.21846  22494238.673    22494251.897
       226.000         177.000
 03  1 11 20 46  0.0000000  0  8G28G 9G26G 4G29G 7G 5G24
  22615925.970     5669884.42549   4421422.35946  22615925.810    22615935.882
       228.000         174.000
  21851703.958   -14226001.95949 -11065939.49947  21851703.900    21851714.102
       234.000         191.000
  24355395.265     8924642.54249   6956159.86545  24355395.551    24355409.954
       217.000         150.000
  20894046.710   -15408428.31649 -11978910.72947  20894046.902    20894055.967
       242.000         206.000
                  10183607.11858   5437725.02343
       174.000          74.000
  21397887.236     3937927.19149   3080253.76447  21397886.441    21397896.277
       241.000         205.000
  24254472.107    -3447193.68749  -2660002.33945  24254470.240    24254485.188
       209.000         141.000
  22475912.650   -10010025.47849  -7036670.01346  22475911.280    22475924.250
       226.000         177.000
 03  1 11 20 46 30.0000000  0  8G28G 9G26G 4G29G 7G 5G24
  22626309.236     5724448.39649   4463939.64046  22626308.912    22626320.592
       229.000         174.000
  21840267.069   -14286102.71249 -11112771.18347  21840266.518    21840276.793
       233.000         191.000
  24369911.551     9000925.38349   7015600.80845  24369912.101    24369926.878
       215.000         151.000
  20883487.728   -15463916.32649 -12022148.10047  20883487.343    20883496.689
       242.000         206.000
                  10260505.36458   5497668.76043
       171.000          74.000
  21407279.593     3987284.37649   3118713.86147  21407279.149    21407288.923
       241.000         205.000
  24238581.341    -3530699.57349  -2725071.69845  24238580.520    24238596.773
       212.000         143.000
  22457632.705   -10106086.19549  -7111522.37146  22457632.664    22457645.056
       227.000         177.000
 03  1 11 20 47  0.0000000  0  8G28G 9G26G 4G29G 7G 5G24
  22636732.974     5779224.48149   4506622.17746  22636733.026    22636743.147
       228.000         176.000
  21828919.792   -14345732.52149 -11159235.89647  21828919.284    21828929.467
       234.000         190.000
  24384436.798     9077256.12249   7075079.09545  24384437.915    24384453.107
       213.000         150.000
  20873029.286   -15518875.49849 -12064973.39347  20873029.382    20873038.141
       242.000         206.000
                  10337374.02857   5557623.96243
       159.000          74.000
  21416699.595     4036786.33249   3157286.76447  21416698.868    21416709.101
       241.000         204.000
  24222686.251    -3614229.25549  -2790159.61445  24222686.363    24222701.234
       210.000         144.000
  22439401.045   -10201893.30549  -7186177.10046  22439399.947    22439413.013
       226.000         177.000
 03  1 11 20 47 30.0000000  0  7G28G 9G26G 4G 7G 5G24
  22647197.337     5834214.83249   4549471.68146  22647197.641    22647207.327
       227.000         176.000
  21817662.868   -14404887.62149 -11205330.71347  21817662.916    21817672.917
       235.000         191.000
  24398971.232     9153633.54249   7134593.74345  24398972.033    24398987.822
       211.000         150.000
  20862672.201   -15573302.25949 -12107383.82847  20862672.422    20862681.213
       242.000         206.000
  21426147.148     4086433.44849   3195972.77947  21426146.557    21426156.334
       240.000         204.000
  24206786.929    -3697780.58149  -2855264.38745  24206785.551    24206801.941
       208.000         143.000
  22421218.408   -10297442.38149  -7260630.76546  22421217.414    22421230.489
       225.000         177.000
 03  1 11 20 48  0.0000000  0  7G28G 9G26G 4G 7G 5G24
  22657702.851     5889421.35149   4592489.63146  22657701.799    22657712.847
       227.000         174.000
  21806497.079   -14463563.96349 -11251052.47047  21806497.086    21806506.588
       236.000         192.000
  24413514.129     9230056.67349   7194144.01245  24413514.516    24413530.733
       210.000         148.000
  20852417.185   -15627192.59149 -12149376.26647  20852417.092    20852426.526
       242.000         206.000
  21435622.417     4136226.19749   3234772.28847  21435621.618    21435631.401
       240.000         204.000
  24190883.494    -3781351.03549  -2920384.00145  24190882.341    24190898.158
       208.000         143.000
  22403085.771   -10392728.97549  -7334879.90346  22403084.437    22403097.560
       226.000         177.000
 03  1 11 20 48 30.0000000  0  7G28G 9G26G 4G 7G 5G24
  22668248.573     5944839.03449   4635672.12946  22668247.629    22668258.884
       226.000         173.000
  21795421.665   -14521765.27149 -11296404.08747  21795421.194    21795431.487
       235.000         192.000
  24428063.981     9306516.84349   7253723.09545  24428064.103    24428080.524
       207.000         147.000
  20842263.549   -15680550.23749 -12190953.61147  20842263.271    20842272.823
       242.000         207.000
  21445124.071     4186157.57749   3273679.82047  21445123.600    21445133.159
       240.000         203.000
  24174975.593    -3864945.51749  -2985522.39245  24174973.134    24174990.979
       206.000         143.000
  22385002.658   -10487755.84249  -7408926.64946  22385001.826    22385014.625
       227.000         179.000
 03  1 11 20 49  0.0000000  0  7G28G 9G26G 4G 7G 5G24
  22678834.608     6000468.63149   4679019.76046  22678834.649    22678845.021
       226.000         172.000
  21784437.109   -14579488.80049 -11341383.39847  21784436.528    21784446.480
       233.000         191.000
  24442620.539     9383011.78449   7313329.32045  24442621.725    24442637.934
       207.000         146.000
  20832211.759   -15733372.28849 -12232113.60847  20832211.710    20832221.012
       242.000         207.000
  21454651.949     4236226.81249   3312694.77847  21454651.094    21454660.915
       239.000         203.000
  24159063.561    -3948562.71149  -3050678.46445  24159063.089    24159079.104
       212.000         144.000
  22366969.669   -10582519.61649  -7482768.39646  22366969.040    22366981.025
       228.000         180.000
 03  1 11 20 49 30.0000000  0  7G28G 9G26G 4G 7G 5G24
  22689461.017     6056310.62049   4722532.88846  22689461.093    22689471.439
       225.000         172.000
  21773543.911   -14636732.38849 -11385988.72747  21773543.599    21773552.926
       235.000         191.000
  24457183.065     9459538.52649   7372960.29645  24457183.035    24457199.975
       206.000         145.000
  20822262.326   -15785657.04749 -12272854.93547  20822262.318    20822271.483
       243.000         207.000
  21464205.709     4286432.48649   3351816.06147  21464205.120    21464214.790
       239.000         202.000
  24143147.534    -4032201.81149  -3115851.61045  24143146.268    24143163.127
       209.000         146.000
  22348987.233   -10677017.36349  -7556402.84946  22348985.869    22348998.817
       227.000         180.000
 03  1 11 20 50  0.0000000  0  7G28G 9G26G 4G 7G 5G24
  22700128.142     6112366.52449   4766212.69246  22700127.918    22700139.210
       226.000         172.000
  21762742.676   -14693492.74049 -11430217.51047  21762742.227    21762752.311
       235.000         191.000
  24471751.287     9536095.53449   7432614.89345  24471752.708    24471769.848
       203.000         143.000
  20812415.733   -15837401.17449 -12313174.99747  20812416.024    20812424.728
       244.000         208.000
  21473785.460     4336774.46449   3391043.55447  21473784.748    21473794.692
       239.000         201.000
  24127227.734    -4115860.90649  -3181040.27345  24127226.838    24127242.852
       211.000         148.000
  22331056.128   -10771245.06749  -7629826.87846  22331054.982    22331067.694
       225.000         180.000
 03  1 11 20 50 30.0000000  0  7G28G 9G26G 4G 7G 5G24
  22710836.095     6168636.81849   4810059.58446  22710835.516    22710845.972
       225.000         170.000
  21752033.752   -14749767.80449 -11474068.14747  21752033.581    21752043.711
       236.000         192.000
  24486324.816     9612679.80249   7492290.69545  24486325.739    24486341.822
       207.000         145.000
  20802672.473   -15888602.76649 -12353072.30047  20802672.709    20802681.008
       244.000         208.000
  21483390.948     4387251.47349   3430376.26647  21483390.458    21483399.842
       239.000         201.000
  24111303.923    -4199539.31249  -3246244.01445  24111302.553    24111319.357
       205.000         146.000
  22313176.898   -10865199.87549  -7703038.25046  22313176.140    22313188.833
       224.000         179.000
 03  1 11 20 51  0.0000000  0  7G28G 9G26G 4G 7G 5G24
  22721584.814     6225121.41349   4854073.43746  22721584.514    22721596.200
       224.000         169.000
  21741417.701   -14805555.80849 -11517539.27047  21741417.750    21741427.758
       236.000         193.000
  24500903.140     9689288.31749   7551985.41045  24500903.987    24500921.134
       206.000         146.000
  20793032.681   -15939260.23249 -12392545.60647  20793032.883    20793041.579
       244.000         208.000
  21493021.841     4437861.93249   3469812.96747  21493021.501    21493030.906
       240.000         201.000
  24095376.706    -4283236.41649  -3311462.27245  24095376.558    24095391.256
       206.000         146.000
  22295350.128   -10958879.49149  -7776035.19446  22295349.581    22295361.890
       226.000         178.000
 03  1 11 20 51 30.0000000  0  7G28G 9G26G 4G 7G 5G24
  22732374.283     6281820.74949   4898254.62446  22732374.105    22732385.249
       225.000         170.000
  21730894.667   -14860854.56149 -11560629.15447  21730894.525    21730904.622
       236.000         194.000
  24515485.652     9765918.12649   7611696.69745  24515486.402    24515504.127
       209.000         146.000
  20783496.845   -15989371.35549 -12431593.18947  20783496.665    20783505.748
       243.000         209.000
  21502677.902     4488604.56049   3509352.66347  21502677.366    21502687.103
       240.000         202.000
  24079446.609    -4366951.32849  -3376694.47045  24079446.336    24079460.505
       207.000         145.000
  22277576.401   -11052280.92649  -7848815.38446  22277576.445    22277588.126
       227.000         179.000
 03  1 11 20 52  0.0000000  0  7G28G 9G26G 4G 7G 5G24
  22743204.737     6338733.87149   4942602.39446  22743204.347    22743215.259
       227.000         173.000
  21720464.930   -14915663.57749 -11603337.42447  21720464.985    21720474.902
       238.000         194.000
  24530071.556     9842565.38449   7671421.56545  24530071.905    24530087.863
       210.000         145.000
  20774065.004   -16038935.51949 -12470214.57347  20774064.864    20774073.952
       243.000         208.000
  21512358.650     4539476.94049   3548993.46247  21512358.534    21512368.058
       240.000         202.000
  24063512.542    -4450684.70449  -3441941.00045  24063512.427    24063525.601
       214.000         146.000
  22259855.958   -11145402.54749  -7921377.54946  22259855.593    22259867.496
       229.000         179.000
 03  1 11 20 52 30.0000000  0  7G28G 9G26G 4G 7G 5G24
  22754076.128     6395862.46349   4987118.08346  22754076.950    22754087.035
       228.000         173.000
  21710129.120   -14969979.19349 -11645661.22147  21710129.070    21710139.042
       237.000         194.000
  24544660.284     9919228.48249   7731158.80845  24544660.015    24544677.840
       206.000         144.000
  20764737.885   -16087949.40649 -12508407.17147  20764737.871    20764747.035
       243.000         208.000
  21522064.092     4590478.98349   3588735.29747  21522063.865    21522073.350
       241.000         203.000
  24047575.400    -4534434.22349  -3507200.17245  24047574.261    24047588.008
       206.000         146.000
  22242189.644   -11238239.85649  -7993718.18846  22242189.303    22242200.465
       230.000         180.000
 03  1 11 20 53  0.0000000  0  7G28G 9G26G 4G 7G 5G24
  22764988.745     6453207.06949   5031802.08846  22764988.406    22764998.490
       225.000         172.000
  21699887.423   -15023799.28849 -11687598.90547  21699886.781    21699897.255
       236.000         194.000
  24559251.293     9995904.70549   7790906.23445  24559251.544    24559268.723
       208.000         143.000
  20755515.877   -16136411.29049 -12546169.63547  20755515.835    20755524.640
       243.000         208.000
  21531794.085     4641609.73349   3628577.42647  21531793.749    21531803.067
       240.000         203.000
  24031635.183    -4618199.02649  -3572471.20645  24031634.176    24031648.330
       208.000         144.000
  22224577.806   -11330790.15049  -8065835.17246  22224577.425    22224588.798
       228.000         180.000
 03  1 11 20 53 30.0000000  0  7G28G 9G26G 4G 7G 5G24
  22775942.240     6510768.05949   5076654.70746  22775941.924    22775953.721
       225.000         171.000
  21689740.424   -15077121.83349 -11729148.89447  21689740.425    21689750.283
       238.000         194.000
  24573844.554    10072591.22349   7850661.73345  24573845.651    24573861.753
       208.000         142.000
  20746399.285   -16184319.12849 -12583500.38147  20746399.417    20746408.010
       243.000         208.000
  21541548.210     4692867.83249   3668518.77847  21541547.437    21541557.121
       239.000         202.000
  24015692.117    -4701978.38249  -3637753.58745  24015689.954    24015705.372
       207.000         143.000
  22207021.044   -11423050.75249  -8137726.44646  22207020.859    22207031.837
       229.000         180.000
 03  1 11 20 54  0.0000000  0  7G28G 9G26G 4G 7G 5G24
  22786937.004     6568545.81149   5121676.23246  22786936.392    22786947.557
       224.000         170.000
  21679688.598   -15129944.67449 -11770309.49247  21679688.384    21679698.512
       237.000         195.000
  24588439.188    10149285.37149   7910423.15645  24588439.877    24588457.053
       210.000         144.000
  20737388.490   -16231670.93149 -12620397.85147  20737388.435    20737397.297
       243.000         208.000
  21551326.224     4744252.13249   3708558.46547  21551325.378    21551335.038
       239.000         201.000
  23999746.805    -4785771.18449  -3703046.47745  23999745.942    23999761.974
       206.000         144.000
  22189520.059   -11515018.71249  -8209389.68146  22189519.545    22189531.458
       229.000         180.000
 03  1 11 20 54 30.0000000  0  7G28G 9G26G 4G 7G 5G24
  22797972.978     6626540.17249   5166866.53446  22797972.952    22797983.753
       224.000         170.000
  21669732.039   -15182266.69449 -11811079.84647  21669731.707    21669741.859
       237.000         195.000
  24603034.846    10225983.91349   7970187.95245  24603035.633    24603052.532
       210.000         143.000
  20728483.705   -16278465.59749 -12656861.19047  20728483.699    20728492.804
       243.000         209.000
  21561127.953     4795760.82949   3748695.07447  21561127.212    21561137.143
       239.000         201.000
  23983798.850    -4869577.29449  -3768349.73845  23983798.482    23983813.194
       208.000         145.000
  22172075.140   -11606691.75649  -8280823.12146  22172074.382    22172086.078
       229.000         181.000
 03  1 11 20 55  0.0000000  0  7G28G 9G26G 4G 7G 5G24
  22809050.217     6684751.26849   5212225.73046  22809049.654    22809061.005
       224.000         171.000
  21659871.001   -15234086.12649 -11851458.58047  21659870.574    21659880.657
       236.000         194.000
  24617630.613    10302683.70849   8029953.78445  24617630.279    24617648.214
       210.000         140.000
  20719685.222   -16324701.38149 -12692889.03647  20719685.240    20719694.572
       242.000         209.000
  21570953.224     4847392.53349   3788927.52447  21570952.910    21570962.752
       240.000         201.000
  23967848.695    -4953395.97949  -3833662.79845  23967847.454    23967863.825
       211.000         148.000
  22154686.799   -11698067.25249  -8352024.72146  22154685.790    22154697.728
       229.000         181.000
 03  1 11 20 55 30.0000000  0  7G28G 9G26G 4G 7G 5G24
  22820168.927     6743179.55649   5257754.16446  22820169.585    22820180.704
       225.000         172.000
  21650106.008   -15285400.88649 -11891444.06947  21650105.884    21650115.759
       237.000         194.000
  24632225.909    10379382.17949   8089718.58045  24632226.155    24632242.529
       209.000         138.000
  20710993.455   -16370376.39349 -12728479.92447  20710993.478    20711002.870
       243.000         209.000
  21580801.666     4899146.11649   3829254.95647  21580801.272    21580810.773
       240.000         201.000
  23951896.342    -5037226.32449  -3898984.95245  23951895.288    23951910.637
       210.000         149.000
  22137355.571   -11789142.61949  -8422992.44246  22137354.938    22137367.020
       228.000         181.000
 03  1 11 20 56  0.0000000  0  7G28G 9G26G 4G 7G 5G24
  22831328.771     6801824.20149   5303451.17646  22831328.460    22831339.595
       225.000         172.000
  21640437.339   -15336210.10649 -11931035.62247  21640437.457    21640447.408
       238.000         195.000
  24646820.556    10456075.34449   8149479.21445  24646821.970    24646837.197
       210.000         138.000
  20702408.583   -16415490.19749 -12763633.50947  20702408.801    20702417.682
       243.000         209.000
  21590672.872     4951019.13849   3869675.45447  21590672.478    21590682.032
       239.000         201.000
  23935941.631    -5121068.59249  -3964316.40445  23935940.363    23935956.018
       210.000         150.000
  22120081.814   -11879915.92449  -8493724.80446  22120080.897    22120093.514
       229.000         182.000
 03  1 11 20 56 30.0000000  0  7G28G 9G26G 4G 7G 5G24
  22842530.107     6860687.20149   5349318.34246  22842529.996    22842540.777
       224.000         171.000
  21630865.623   -15386510.13249 -11970230.39247  21630865.563    21630875.359
       238.000         196.000
  24661414.049    10532762.13149   8209234.91145  24661415.747    24661431.578
       210.000         138.000
  20693931.181   -16460039.25449 -12798347.03747  20693931.329    20693940.276
       244.000         209.000
  21600566.903     5003012.23649   3910189.52047  21600566.469    21600576.201
       240.000         201.000
  23919984.993    -5204920.02849  -4029655.00745  23919983.460    23919999.015
       211.000         150.000
  22102866.472   -11970382.52949  -8564218.19246  22102866.424    22102878.065
       230.000         183.000
 03  1 11 20 57  0.0000000  0  7G28G 9G26G 4G 7G 5G24
  22853772.875     6919768.41249   5395355.55446  22853772.602    22853783.491
       223.000         168.000
  21621390.935   -15436299.66849 -12009027.38147  21621390.593    21621400.809
       237.000         196.000
  24676005.620    10609439.27349   8268983.03645  24676006.976    24676024.507
       208.000         138.000
  20685561.491   -16504022.46949 -12832619.64647  20685561.664    20685570.240
       244.000         209.000
  21610483.443     5055123.57449   3950795.71147  21610482.764    21610492.575
       239.000         201.000
  23904026.662    -5288780.38049  -4095000.56245  23904024.908    23904040.912
       208.000         149.000
  22085710.034   -12060540.21549  -8634470.86446  22085709.362    22085721.782
       231.000         184.000
 03  1 11 20 57 30.0000000  0  7G28G 9G26G 4G 7G 5G24
  22865057.308     6979068.27649   5441563.13346  22865057.060    22865067.299
       222.000         167.000
  21612013.728   -15485576.54749 -12047424.91047  21612013.594    21612023.243
       237.000         196.000
  24690594.760    10686104.05349   8328721.52145  24690595.057    24690612.901
       207.000         136.000
  20677299.834   -16547437.81749 -12866449.75447  20677300.043    20677308.970
       244.000         210.000
  21620422.200     5107352.20149   3991493.29647  21620421.394    21620431.336
       239.000         201.000
  23888066.747    -5372648.63449  -4160352.29145  23888065.217    23888081.149
       208.000         147.000
  22068612.931   -12150386.13549  -8704480.59746  22068612.228    22068624.233
       230.000         184.000
 03  1 11 20 58  0.0000000  0  7G28G 9G26G 4G 7G 5G24
  22876383.521     7038587.02049   5487941.28546  22876383.699    22876394.343
       224.000         168.000
  21602734.495   -15534339.02849 -12085421.59947  21602734.718    21602743.981
       237.000         196.000
  24705180.798    10762753.87149   8388448.39745  24705181.459    24705196.426
       206.000         133.000
  20669146.487   -16590283.82649 -12899836.22847  20669146.408    20669155.674
       244.000         210.000
  21630382.973     5159696.86549   4032281.29347  21630381.908    21630392.163
       238.000         200.000
  23872105.731    -5456523.89449  -4225709.46745  23872103.726    23872119.570
       208.000         147.000
  22051575.595   -12239917.64149  -8774245.33246  22051574.693    22051586.745
       230.000         183.000
 03  1 11 20 58 30.0000000  0  7G28G 9G26G 4G 7G 5G24
  22887751.228     7098324.14949   5534489.57146  22887750.630    22887761.206
       222.000         168.000
  21593553.493   -15582585.96449 -12123016.55947  21593553.634    21593562.843
       238.000         196.000
  24719763.391    10839385.12949   8448160.78744  24719764.893    24719781.138
       206.000         131.000
  20661101.583   -16632559.47549 -12932778.26547  20661101.447    20661110.767
       243.000         210.000
  21640365.513     5212155.63449   4073158.20847  21640364.877    21640374.768
       238.000         200.000
  23856143.247    -5540405.99549  -4291071.98045  23856143.286    23856157.487
       212.000         149.000
  22034598.497   -12329132.43649  -8843763.29046  22034597.775    22034609.833
       231.000         184.000
 03  1 11 20 59  0.0000000  0  7G28G 9G26G 4G 7G 5G24
  22899160.511     7158280.20949   5581208.47646  22899161.510    22899172.093
       225.000         169.000
  21584470.939   -15630315.17249 -12160208.09747  21584471.122    21584479.755
       238.000         196.000
  24734342.217    10915995.25249   8507856.70244  24734342.481    24734359.048
       205.000         130.000
  20653165.688   -16674263.02949 -12965274.51147  20653165.701    20653174.478
       244.000         210.000
  21650369.663     5264727.65249   4114123.37347  21650369.011    21650379.068
       238.000         200.000
  23840179.939    -5624293.66349  -4356438.81645  23840179.757    23840194.200
       212.000         151.000
  22017682.118   -12418028.10649  -8913032.57746  22017681.626    22017693.258
       232.000         185.000
 03  1 11 20 59 30.0000000  0  7G28G 9G26G 4G 7G 5G24
  22910611.569     7218455.03149   5628097.86346  22910611.544    22910622.613
       224.000         169.000
  21575487.166   -15677525.51949 -12196995.32747  21575486.492    21575496.628
       237.000         196.000
  24748916.111    10992581.20449   8567533.75844  24748911.375    24748933.126
       202.000         126.000
  20645338.833   -16715393.36749 -12997324.09347  20645339.109    20645347.835
       245.000         210.000
  21660395.065     5317411.34549   4155175.55647  21660394.521    21660404.261
       239.000         199.000
  23824215.819    -5708186.42949  -4421809.59345  23824214.729    23824230.060
       213.000         153.000
  22000827.112   -12506601.94749  -8982051.08646  22000826.785    22000838.502
       232.000         186.000
 03  1 11 21  0  0.0000000  0  7G28G 9G26G 4G 7G 5G24
  22922104.188     7278849.43949   5675158.31546  22922105.077    22922114.956
       223.000         168.000
  21566602.409   -15724214.60949 -12233376.38247  21566602.022    21566611.918
       236.000         195.000
  24763484.713    11069140.84349   8627190.32644  24763486.805    24763498.712
       201.000         124.000
  20637621.530   -16755948.19249 -13028925.22447  20637621.822    20637630.565
       244.000         210.000
  21670441.643     5370206.09249   4196314.27647  21670440.956    21670451.008
       239.000         199.000
  23808250.756    -5792082.83849  -4487183.22845  23808248.233    23808264.848
       211.000         153.000
  21984033.960   -12594850.66549  -9050816.25346  21984034.090    21984045.593
       232.000         186.000
 03  1 11 21  0 30.0000000  0  7G28G 9G26G 4G 7G 5G24
  22933638.878     7339464.19349   5722390.47946  22933638.752    22933649.416
       223.000         168.000
  21557817.280   -15770380.25449 -12269349.55447  21557816.874    21557826.593
       238.000         196.000
  24778048.008    11145671.57949   8686824.36844  24778046.525    24778064.970
       199.000         122.000
  20630014.066   -16795925.79449 -13060076.56647  20630014.018    20630022.752
       244.000         211.000
  21680509.145     5423110.95549   4237538.80747  21680508.526    21680518.184
       240.000         199.000
  23792285.160    -5875981.71449  -4552558.76645  23792282.546    23792297.391
       213.000         153.000
  21967303.225   -12682771.40049  -9119325.83446  21967303.302    21967314.513
       233.000         187.000
 03  1 11 21  1  0.0000000  0  7G28G 9G26G 4G 7G 5G24
  22945215.412     7400298.68149   5769793.87746  22945215.508    22945225.606
       224.000         167.000
  21549132.064   -15816021.30049 -12304913.95147  21549131.946    21549141.459
       238.000         196.000
  24792605.325    11222170.26349   8746433.46044  24792606.546    24792621.384
       199.000         119.000
  20622516.560   -16835325.13549 -13090777.30747  20622516.269    20622525.279
       244.000         210.000
  21690597.389     5476124.33749   4278847.90047  21690596.932    21690606.248
       240.000         199.000
  23776319.047    -5959882.50549  -4617935.79345  23776317.518    23776332.180
       212.000         152.000
  21950635.272   -12770361.73649  -9187577.96946  21950634.812    21950646.469
       233.000         187.000
 03  1 11 21  1 30.0000000  0  7G28G 9G26G 4G 7G 5G24
  22956833.672     7461352.66149   5817368.31146  22956833.065    22956845.350
       224.000         167.000
  21540546.905   -15861136.50549 -12340068.59447  21540546.670    21540556.104
       238.000         197.000
  24807156.104    11298633.65149   8806015.04544  24807156.313    24807173.291
       196.000         117.000
  20615129.256   -16874145.30649 -13121026.74547  20615129.203    20615137.731
       244.000         210.000
  21700705.922     5529244.52649   4320240.22047  21700705.184    21700714.615
       239.000         198.000
  23760352.631    -6043784.70749  -4683313.93745  23760352.131    23760366.896
       215.000         153.000
  21934030.602   -12857619.51949  -9255570.96146  21934030.417    21934041.718
       233.000         187.000
 03  1 11 21  2  0.0000000  0  7G28G 9G26G 4G 7G 5G24
  22968493.804     7522627.20149   5865114.61646  22968492.923    22968505.801
       224.000         167.000
  21532062.260   -15905723.50549 -12374811.65047  21532062.184    21532071.484
       238.000         197.000
  24821699.739    11375059.47049   8865567.32144  24821700.025    24821716.734
       195.000         116.000
  20607852.597   -16912384.37549 -13150823.38347  20607852.521    20607861.030
       245.000         209.000
  21710834.570     5582470.76249   4361715.16947  21710833.852    21710843.165
       240.000         198.000
  23744386.611    -6127686.99849  -4748692.15245  23744386.203    23744399.530
       217.000         153.000
  21917489.711   -12944541.64249  -9323302.40446  21917489.128    21917500.295
       232.000         186.000
 03  1 11 21  2 30.0000000  0  7G28G 9G26G 4G 7G 5G24
  22980196.006     7584121.73949   5913032.31046  22980196.221    22980207.126
       225.000         168.000
  21523678.203   -15949781.48549 -12409142.48347  21523677.528    21523687.574
       237.000         197.000
  24836235.555    11451444.43248   8925087.74444  24836234.892    24836257.075
       194.000         113.000
  20600686.604   -16950041.80849 -13180166.79147  20600686.521    20600695.284
       245.000         210.000
  21720983.186     5635801.59949   4403271.62447  21720982.876    21720991.948
       240.000         198.000
  23728420.603    -6211588.99349  -4814070.09545  23728419.437    23728433.520
       217.000         155.000
  21901013.072   -13031126.31749  -9390770.88246  21901012.145    21901024.221
       231.000         185.000
 03  1 11 21  3  0.0000000  0  7G28G 9G26G 4G 7G 5G24
  22991940.152     7645836.52049   5961121.65746  22991939.781    22991951.626
       225.000         168.000
  21515395.118   -15993308.72949 -12443059.75547  21515395.042    21515404.758
       238.000         197.000
  24850763.211    11527785.77348   8984574.20944  24850762.865    24850782.126
       193.000         113.000
  20593631.648   -16987115.83849 -13209055.59447  20593631.775    20593640.478
       244.000         211.000
  21731151.391     5689235.63049   4444908.49747  21731150.637    21731160.500
       238.000         198.000
  23712454.516    -6295489.52249  -4879446.92045  23712452.671    23712467.947
       209.000         155.000
  21884601.124   -13117370.92749  -9457974.37946  21884600.636    21884612.256
       232.000         186.000
 03  1 11 21  3 30.0000000  0  7G28G 9G26G 4G 7G 5G24
  23003726.170     7707772.06849   6009383.01346  23003725.732    23003737.612
       222.000         168.000
  21507213.596   -16036303.13849 -12476561.82547  21507213.646    21507223.419
       239.000         198.000
  24865282.060    11604081.24648   9044024.88144  24865282.263    24865302.959
       190.000         113.000
  20586688.015   -17023604.70349 -13237488.42847  20586687.982    20586696.849
       245.000         211.000
  21741339.047     5742772.27649   4486625.32647  21741338.155    21741347.841
       238.000         197.000
  23696488.964    -6379387.27449  -4944821.54445  23696487.913    23696502.308
       213.000         155.000
  21868254.564   -13203272.06449  -9524910.22847  21868254.303    21868266.055
       233.000         188.000
 03  1 11 21  4  0.0000000  0  7G28G 9G26G 4G 7G 5G24
  23015554.202     7769929.14749   6057817.00246  23015553.624    23015565.234
       222.000         167.000
  21499133.742   -16078762.67049 -12509647.11947  21499133.310    21499143.207
       238.000         199.000
  24879791.296    11680328.48648   9103438.01444                  24879788.471
       186.000         107.000
  20579855.977   -17059506.86549 -13265464.08747  20579856.042    20579864.759
       245.000         211.000
  21751546.120     5796410.82449   4528421.56747  21751545.548    21751555.467
       239.000         198.000
  23680524.544    -6463280.88249  -5010192.94645  23680523.844    23680537.371
       215.000         154.000
  21851974.121   -13288826.75549  -9591576.11547  21851974.193    21851985.081
       234.000         188.000
 03  1 11 21  4 30.0000000  0  7G28G 9G26G 4G 7G 5G24
  23027424.242     7832306.87249   6106422.89446  23027424.206    23027435.818
       224.000         167.000
  21491155.790   -16120686.53149 -12542315.01147  21491155.772    21491165.309
       239.000         199.000
  24894291.064    11756524.12549   9162810.87344                  24894289.252
       197.000         106.000
  20573135.756   -17094821.86149 -13292982.21647  20573136.014    20573144.315
       245.000         211.000
  21761772.234     5850149.36849   4570295.72447  21761771.649    21761781.511
       239.000         197.000
  23664560.929    -6547170.12649  -5075560.96345  23664559.626    23664573.827
       214.000         154.000
  21835759.973   -13374033.18249  -9657970.62347  21835759.558    21835771.345
       234.000         189.000
 03  1 11 21  5  0.0000000  0  7G28G 9G26G 4G 7G 5G24
  23039336.525     7894905.34349   6155200.81546  23039336.579    23039348.241
       225.000         169.000
  21483280.167   -16162073.29349 -12574564.37847  21483280.225    21483289.552
       240.000         199.000
                  11832665.14448   9222141.27544
       190.000         100.000
  20566527.549   -17129548.36049 -13320041.77447  20566527.509    20566536.314
       245.000         211.000
  21772017.106     5903986.60249   4612246.78147  21772016.157    21772026.397
       238.000         197.000
  23648598.198    -6631054.30149  -5140925.07245  23648597.597    23648610.509
       217.000         153.000
  21819612.482   -13458889.10349  -9724092.00947  21819612.287    21819623.678
       235.000         189.000
 03  1 11 21  5 30.0000000  0  7G28G 9G26G 4G 7G 5G24
  23051290.858     7957725.13749   6204151.20046  23051291.103    23051302.902
       224.000         169.000
  21475507.165   -16202921.35849 -12606393.97847  21475507.086    21475516.088
       240.000         200.000
                  11908748.94048   6893356.11943
       189.000          74.000
  20560031.559   -17163685.01749 -13346641.71547  20560031.546    20560040.278
       246.000         212.000
  21782280.642     5957921.56949   4654273.98647  21782280.241    21782289.997
       239.000         198.000
  23632636.737    -6714932.32849  -5206284.38645  23632635.927    23632647.934
       215.000         151.000
  21803532.169   -13543391.77449  -9789938.14347  21803531.509    21803543.209
       235.000         189.000
 03  1 11 21  6  0.0000000  0  7G28G 9G26G 4G 7G 5G24
  23063287.345     8020766.74049   6253274.40646  23063287.478    23063299.306
       224.000         167.000
  21467836.894   -16243228.81249 -12637802.32847  21467836.566    21467845.807
       240.000         200.000
                  11984773.38348   6952604.01743
       180.000          74.000
  20553648.026   -17197230.34949 -13372780.89347  20553647.946    20553656.605
       246.000         212.000
  21792562.768     6011953.62549   4696376.84647  21792562.163    21792572.196
       238.000         198.000
  23616676.517    -6798802.40549  -5271637.52045  23616675.456    23616689.203
       210.000         149.000
  21787519.633   -13627538.03449  -9855506.55347  21787519.024    21787530.054
       236.000         190.000
 03  1 11 21  6 30.0000000  0  7G28G 9G26G 4G 7G 5G24
  23075325.980     8084029.82149   6302570.20246  23075325.674    23075337.000
       223.000         166.000
  21460269.766   -16282994.33849 -12668788.40047  21460269.415    21460279.014
       240.000         200.000
                  12060735.65948   7011815.73043
       186.000          74.000
  20547377.196   -17230183.21949 -13398458.41447  20547377.157    20547385.888
       246.000         211.000
  21802863.016     6066081.46049   4738554.33647  21802862.402    21802872.016
       238.000         197.000
  23600717.672    -6882663.86849  -5336983.88745  23600717.054    23600729.570
       210.000         150.000
  21771575.375   -13711325.27049  -9920795.20747  21771574.533    21771586.227
       234.000         190.000
 03  1 11 21  7  0.0000000  0  7G28G 9G26G 4G 7G 5G24
  23087406.823     8147514.80249   6352038.89546  23087406.321    23087418.029
       223.000         166.000
  21452806.015   -16322216.28849 -12699350.90447  21452805.632    21452815.161
       239.000         201.000
                  12136633.07348   7003772.56443
       187.000          74.000
  20541219.364   -17262542.36849 -13423673.29847  20541219.450    20541228.065
       246.000         211.000
  21813181.218     6120304.12249   4780805.72347  21813180.419    21813190.537
       237.000         197.000
  23584760.857    -6966515.63549  -5402322.68545  23584759.251    23584773.686
       212.000         153.000
  21755699.779   -13794751.14149  -9985802.26947  21755699.113    21755710.342
       234.000         191.000
 03  1 11 21  7 30.0000000  0  6G28G 9G 4G 7G 5G24
  23099531.105     8211227.85349   6401685.30646  23099532.297    23099542.316
       224.000         166.000
  21445447.115   -16360887.30049 -12729484.10547  21445446.986    21445456.258
       240.000         201.000
  20535175.982   -17294300.72649 -13448420.03747  20535176.233    20535184.565
       246.000         212.000
  21823518.381     6174626.47549   4823134.80047  21823517.503    21823527.518
       236.000         196.000
  23568807.522    -7050350.55249  -5467648.41845  23568807.894    23568821.024
       215.000         156.000
  21739894.647   -13877806.81449 -10050520.87647  21739894.085    21739905.426
       235.000         192.000
 03  1 11 21  8  0.0000000  0  6G28G 9G 4G 7G 5G24
  23111697.643     8275162.59349   6451504.46746  23111697.215    23111708.441
       223.000         167.000
  21438192.154   -16399012.25949 -12759191.80647  21438191.709    21438200.857
       239.000         201.000
  20529245.875   -17325463.61349 -13472702.77047  20529245.859    20529254.400
       246.000         212.000
  21833872.972     6229040.91849   4865535.63247  21833872.155    21833882.429
       237.000         196.000
  23552856.406    -7134174.09749  -5532965.27645  23552856.687    23552869.199
       216.000         157.000
  21724159.264   -13960496.49649 -10114954.29447  21724158.848    21724169.826
       236.000         193.000
 03  1 11 21  8 30.0000000  0  6G28G 9G 4G 7G 5G24
  23123905.692     8339315.78649   6501493.86546  23123905.064    23123917.865
       223.000         167.000
  21431040.632   -16436593.12649 -12788475.55047  21431040.669    21431049.719
       241.000         202.000
  20523428.617   -17356033.30949 -13496523.27947  20523428.566    20523437.208
       246.000         212.000
  21844244.261     6283543.03449   4908004.77547  21844243.865    21844253.781
       237.000         195.000
  23536907.145    -7217988.74249  -5598275.23345  23536906.049    23536919.261
       214.000         156.000
  21708493.429   -14042821.13049 -10179103.25247  21708493.163    21708504.004
       236.000         193.000
 03  1 11 21  9  0.0000000  0  6G28G 9G 4G 7G 5G24
  23136155.728     8403689.80749   6551655.31546  23136155.123    23136166.664
       223.000         167.000
  21423993.522   -16473626.31549 -12817332.53147  21423993.328    21424002.898
       241.000         202.000
  20517724.794   -17386006.80249 -13519879.22347  20517724.655    20517733.578
       246.000         212.000
  21854632.642     6338134.12249   4950543.25947  21854632.453    21854641.542
       238.000         195.000
  23520960.052    -7301791.18849  -5663575.64745  23520957.930    23520972.005
       211.000         155.000
  21692897.912   -14124775.82049 -10242963.94447  21692897.869    21692907.765
       235.000         193.000
 03  1 11 21  9 30.0000000  0  6G28G 9G 4G 7G 5G24
  23148447.973     8468285.27549   6601989.33146  23148447.723    23148459.372
       223.000         167.000
  21417050.972   -16510109.72149 -12845761.11147  21417050.914    21417060.173
       240.000         202.000
  20512134.770   -17415382.26949 -13542769.17747  20512134.994    20512143.575
       246.000         212.000
  21865037.887     6392813.56749   4993150.58447  21865037.619    21865047.201
       237.000         195.000
  23505015.377    -7385579.57749  -5728865.12945  23505013.947    23505027.360
       214.000         155.000
  21677373.326   -14206357.72749 -10306534.16347  21677372.787    21677383.837
       235.000         193.000
 03  1 11 21 10  0.0000000  0  6G28G 9G 4G 7G 5G24
  23160782.536     8533103.11649   6652496.61546  23160783.104    23160794.016
       224.000         167.000
  21410213.395   -16546041.14949 -12873759.57147  21410212.858    21410222.288
       240.000         202.000
  20506658.980   -17444157.82449 -13565191.66447  20506658.985    20506667.439
       246.000         212.000
  21875459.963     6447581.21449   5035826.64547  21875460.024    21875469.276
       239.000         195.000
  23489073.591    -7469351.96749  -5794142.14845  23489071.884    23489086.861
       213.000         157.000
  21661920.274   -14287563.25549 -10369811.09047  21661919.805    21661930.697
       236.000         193.000
 03  1 11 21 10 30.0000000  0  6G28G 9G 4G 7G 5G24
  23173159.486     8598143.64149   6703177.41046  23173158.746    23173172.095
       226.000         168.000
  21403481.135   -16581419.11749 -12901326.76647  21403480.839    21403490.114
       241.000         202.000
  20501297.520   -17472332.22949 -13587145.72147  20501297.467    20501306.118
       246.000         212.000
  21885898.641     6502436.26249   5078570.80447  21885898.048    21885908.113
       238.000         195.000
  23473135.345    -7553107.37949  -5859405.92445  23473134.917    23473148.626
       220.000         161.000
  21646539.410   -14368389.85949 -10432792.76147  21646539.283    21646550.295
       236.000         193.000
 03  1 11 21 11  0.0000000  0  6G28G 9G 4G 7G 5G24
  23185578.571     8663405.38949   6754030.59346  23185577.709    23185590.445
       226.000         169.000
  21396854.071   -16616243.96649 -12928462.97047  21396853.746    21396863.347
       240.000         201.000
  20496050.324   -17499906.27649 -13608631.97147  20496050.589    20496058.891
       247.000         212.000
  21896353.291     6557375.98649   5121380.94647  21896352.531    21896362.856
       237.000         196.000
  23457200.666    -7636845.84349  -5924656.50046  23457200.438    23457213.089
       221.000         164.000
  21631230.946   -14448836.19849 -10495478.12447  21631230.681    21631241.619
       236.000         193.000
 03  1 11 21 11 30.0000000  0  6G28G 9G 4G 7G 5G24
  23198039.846     8728889.23749   6805056.84346  23198040.021    23198051.778
       224.000         169.000
  21390332.667   -16650513.65449 -12955166.58147  21390331.821    21390342.044
       239.000         201.000
  20490917.715   -17526878.28449 -13629649.09748  20490917.963    20490926.289
       247.000         213.000
  21906824.066     6612400.24849   5164256.96047  21906823.652    21906833.819
       237.000         196.000
  23441269.262    -7720565.69449  -5989892.57046  23441267.788    23441282.262
       217.000         163.000
  21615995.284   -14528899.58749 -10557865.09447  21615994.568    21616005.484
       236.000         194.000
 03  1 11 21 12  0.0000000  0  6G28G 9G 4G 7G 5G24
  23210543.537     8794595.83649   6856256.66046  23210543.915    23210555.010
       223.000         168.000
  21383917.322   -16684226.12549 -12981435.99647  21383917.192    21383926.435
       240.000         202.000
  20485900.015   -17553246.61549 -13650195.82948  20485900.336    20485908.817
       247.000         213.000
  21917310.896     6667508.70349   5207198.56547  21917310.362    21917320.298
       237.000         196.000
  23425341.695    -7804265.09449  -6055112.71845  23425340.025    23425353.929
       220.000         161.000
  21600833.069   -14608576.92649 -10619951.24647  21600832.505    21600843.527
       236.000         194.000
 03  1 11 21 12 30.0000000  0  6G28G 9G 4G 7G 5G24
  23223089.406     8860524.61349   6907629.59046  23223089.360    23223099.789
       223.000         166.000
  21377608.221   -16717380.76049 -13007270.73447  21377607.970    21377617.456
       240.000         202.000
  20480997.199   -17579011.07649 -13670272.00448  20480997.321    20481005.898
       247.000         213.000
  21927813.341     6722699.52649   5250204.35547  21927812.781    21927822.885
       237.000         195.000
  23409418.139    -7887943.69149  -6120316.67145  23409417.418    23409431.066
       220.000         160.000
  21585744.778   -14687866.26849 -10681735.06447  21585744.370    21585755.231
       236.000         194.000
 03  1 11 21 13  0.0000000  0  6G28G 9G 4G 7G 5G24
  23235677.757     8926676.63049   6959176.50146  23235678.245    23235688.769
       225.000         165.000
  21371405.529   -16749975.41449 -13032669.12447  21371405.294    21371414.874
       240.000         202.000
  20476209.664   -17604169.86649 -13689876.21748  20476209.695    20476218.059
       247.000         213.000
  21938331.601     6777972.89149   5293274.46747  21938331.539    21938341.048
       237.000         195.000
  23393498.777    -7971599.25549  -6185502.65445  23393498.138    23393512.070
       219.000         160.000
  21570730.834   -14766764.39849 -10743214.04347  21570730.014    21570741.358
       236.000         195.000
 03  1 11 21 13 30.0000000  0  6G28G 9G 4G 7G 5G24
  23248308.732     8993052.17549   7010897.56646  23248308.831    23248321.160
       223.000         165.000
  21365309.846   -16782008.56249 -13057629.97547  21365309.524    21365319.245
       239.000         202.000
  20471537.550   -17628721.85649 -13709007.59548  20471537.519    20471545.995
       246.000         213.000
  21948865.432     6833328.07449   5336408.32147  21948864.537    21948874.971
       237.000         195.000
  23377583.883    -8055230.65249  -6250669.83845  23377582.426    23377596.258
       217.000         161.000
  21555791.842   -14845268.60649 -10804386.07647  21555791.296    21555802.362
       237.000         195.000
 03  1 11 21 14  0.0000000  0  6G28G 9G 4G 7G 5G24
  23260982.166     9059650.23949   7062792.01246  23260982.167    23260994.202
       222.000         164.000
  21359320.949   -16813480.15249 -13082153.25347  21359320.840    21359330.371
       240.000         203.000
  20466980.765   -17652667.50349 -13727666.49547  20466980.554    20466989.413
       246.000         212.000
  21959414.341     6888762.90449   5379604.22747  21959413.604    21959424.012
       237.000         195.000
  23361673.667    -8138837.72549  -6315818.05145  23361672.800    23361686.839
       217.000         162.000
  21540928.164   -14923377.45249 -10865250.02747  21540927.916    21540938.981
       237.000         196.000
 03  1 11 21 14 30.0000000  0  6G28G 9G 4G 7G 5G24
  23273697.804     9126470.76849   7114859.82845  23273697.534    23273709.026
       221.000         161.000
  21353439.190   -16844388.91949 -13106237.96347  21353438.582    21353448.067
       239.000         202.000
  20462539.483   -17676006.07049 -13745852.35147  20462539.669    20462548.208
       246.000         212.000
  21969978.243     6944276.46849   5422861.48747  21969977.901    21969987.361
       237.000         194.000
  23345768.418    -8222419.10849  -6380946.23045  23345766.112    23345781.500
       216.000         162.000
  21526140.231   -15001088.32649 -10925803.87747  21526139.724    21526150.717
       236.000         196.000
 03  1 11 21 15  0.0000000  0  6G28G 9G 4G 7G 5G24
  23286455.796     9193514.02849   7167101.20745  23286453.973    23286467.139
       220.000         160.000
  21347664.732   -16874733.39449 -13129882.96347  21347664.519    21347673.701
       239.000         202.000
  20458214.029   -17698736.46749 -13763564.30448  20458214.113    20458222.815
       247.000         213.000
  21980556.948     6999868.03749   5466179.54047  21980556.437    21980566.107
       237.000         194.000
  23329868.299    -8305973.44949  -6446053.34645  23329868.598    23329881.156
       218.000         161.000
  21511428.519   -15078398.43749 -10986045.44547  21511427.948    21511438.830
       237.000         196.000
 03  1 11 21 15 30.0000000  0  6G28G 9G 4G 7G 5G24
  23299256.054     9260780.39449   7219516.42945  23299254.602    23299268.586
       221.000         159.000
  21341997.857   -16904512.47349 -13153087.38947  21341997.483    21342007.017
       239.000         202.000
  20454004.491   -17720857.71849 -13780801.59348  20454004.517    20454013.177
       247.000         213.000
  21991150.396     7055536.81449   5509557.75547  21991150.144    21991159.438
       237.000         194.000
  23313973.702    -8389499.54249  -6511138.44345  23313972.942    23313986.025
       217.000         160.000
  21496793.415   -15155306.07149 -11045973.38847  21496792.860    21496803.812
       237.000         196.000
 03  1 11 21 16  0.0000000  0  6G28G 9G 4G 7G 5G24
  23312098.792     9328269.53449   7272105.21745  23312099.629    23312113.206
       219.000         158.000
  21336438.819   -16933725.26949 -13175850.56147  21336438.851    21336448.073
       240.000         203.000
  20449910.924   -17742369.62749 -13797564.06648  20449910.971    20449919.165
       245.000         213.000
  22001758.363     7111281.64649   5552995.23047  22001757.760    22001768.046
       237.000         193.000
  23298084.805    -8472996.19749  -6576200.60345  23298083.672    23298096.737
       216.000         158.000
  21482235.356   -15231808.81549 -11105585.83447  21482235.118    21482245.616
       238.000         196.000
 03  1 11 21 16 30.0000000  0  6G28G 9G 4G 7G 5G24
  23324983.922     9395981.11849   7324867.35145  23324984.469    23324996.748
       218.000         157.000
  21330987.795   -16962371.07949 -13198171.92347  21330987.874    21330996.732
       241.000         203.000
  20445933.337   -17763271.70349 -13813851.35148  20445933.235    20445941.591
       245.000         213.000
  22012380.647     7167101.27849   5596490.98447  22012380.426    22012390.215
       237.000         193.000
  23282201.693    -8556462.50849  -6641239.10245  23282201.327    23282213.350
       217.000         157.000
  21467754.805   -15307904.56949 -11164881.14447  21467754.333    21467764.871
       238.000         197.000
 03  1 11 21 17  0.0000000  0  6G28G 9G 4G 7G 5G24
  23337911.434     9463915.02949   7377802.72345  23337910.950    23337923.262
       216.000         155.000
  21325644.759   -16990449.10249 -13220050.85047  21325644.643    21325653.996
       241.000         203.000
  20442071.797   -17783563.73549 -13829663.28048  20442071.968    20442080.212
       245.000         213.000
  22023016.866     7222994.42349   5640044.02747  22023016.433    22023026.627
       237.000         193.000
  23266324.518    -8639897.73349  -6706253.38945  23266323.479    23266336.116
       215.000         158.000
  21453352.057   -15383591.37249 -11223857.79447  21453351.584    21453362.219
       238.000         197.000
 03  1 11 21 17 30.0000000  0  6G28G 9G 4G 7G 5G24
  23350881.236     9532071.49449   7430911.51345  23350881.261    23350894.182
       216.000         153.000
  21320410.016   -17017957.68749 -13241486.06247  21320409.668    21320418.713
       240.000         203.000
  20438326.682   -17803244.57349 -13844998.95948  20438326.751    20438335.080
       246.000         213.000
  22033667.003     7278960.69449   5683654.06147  22033666.530    22033676.207
       236.000         192.000
  23250453.340    -8723300.20549  -6771242.14645  23250452.227    23250465.666
       218.000         159.000
  21439027.646   -15458866.61749 -11282513.74447  21439027.140    21439037.407
       238.000         198.000
 03  1 11 21 18  0.0000000  0  6G28G 9G 4G 7G 5G24
  23363893.508     9600450.74849   7484193.90345  23363894.982    23363905.318
       215.000         150.000
  21315283.863   -17044895.65549 -13262476.63647  21315283.636    21315292.928
       240.000         203.000
  20434697.983   -17822313.42249 -13859857.76248  20434697.763    20434706.148
       245.000         213.000
  22044330.828     7334999.60949   5727320.70947  22044329.848    22044340.258
       235.000         191.000
  23234588.783    -8806668.42949  -6836204.21145  23234588.559    23234601.166
       219.000         162.000
  21424782.085   -15533727.13349 -11340846.52947  21424781.632    21424791.808
       238.000         197.000
 03  1 11 21 18 30.0000000  0  6G28G 9G 4G 7G 5G24
  23376948.110     9669051.90149   7537649.18845  23376950.074    23376960.659
       214.000         149.000
  21310266.326   -17071262.89349 -13283022.48047  21310266.130    21310275.226
       241.000         204.000
  20431185.585   -17840770.63349 -13874239.96147  20431185.485    20431193.959
       245.000         212.000
  22055008.006     7391109.29349   5771042.49647  22055007.166    22055017.491
       235.000         191.000
  23218730.853    -8890001.84849  -6901139.15446  23218730.288    23218743.024
       219.000         163.000
  21410615.670   -15608171.87149 -11398855.33547  21410614.940    21410625.461
       238.000         198.000
 03  1 11 21 19  0.0000000  0  6G28G 9G 4G 7G 5G24
  23390044.941     9737875.71249   7591277.97745  23390045.099    23390057.902
       210.000         147.000
  21305357.763   -17097057.64449 -13303122.24247  21305357.328    21305367.021
       241.000         204.000
  20427789.853   -17858615.04549 -13888144.65948  20427789.795    20427798.496
       245.000         213.000
  22065698.693     7447289.31349   5814819.09747  22065697.975    22065708.551
       235.000         191.000
  23202880.077    -8973298.63349  -6966045.55546  23202879.990    23202892.016
       221.000         165.000
  21396528.926   -15682197.87249 -11456537.85047  21396528.472    21396538.634
       238.000         198.000
 03  1 11 21 19 30.0000000  0  6G28G 9G 4G 7G 5G24
  23403183.897     9806921.70849   7645079.90945  23403183.203    23403196.981
       209.000         145.000
  21300558.067   -17122279.44449 -13322775.55247  21300557.501    21300567.071
       240.000         204.000
  20424510.823   -17875846.55549 -13901571.77348  20424510.875    20424519.554
       246.000         214.000
  22076402.565     7503538.65049   5858649.70747  22076401.975    22076412.642
       236.000         191.000
  23187036.511    -9056557.73149  -7030922.56546  23187035.509    23187047.242
       224.000         167.000
  21382522.269   -15755803.14849 -11513892.52547  21382521.898    21382531.955
       238.000         198.000
 03  1 11 21 20  0.0000000  0  6G28G 9G 4G 7G 5G24
  23416365.121     9876190.48749   7699055.40345  23416365.797    23416377.978
       210.000         143.000
  21295867.707   -17146926.88049 -13341981.31147  21295867.248    21295876.806
       240.000         203.000
  20421348.637   -17892463.94949 -13914520.35548  20421348.694    20421357.063
       246.000         214.000
  22087119.747     7559856.95549   5902534.06547  22087119.465    22087129.193
       236.000         191.000
  23171200.348    -9139777.54849  -7095768.95846  23171199.332    23171211.558
       223.000         168.000
  21368596.102   -15828985.06749 -11570917.32147  21368595.579    21368605.954
       238.000         198.000
 03  1 11 21 20 30.0000000  0  6G28G 9G 4G 7G 5G24
  23429589.060     9945681.76349   7753204.31845  23429590.272    23429600.318
       211.000         141.000
  21291286.927   -17170999.02949 -13360738.78747  21291286.719    21291295.855
       242.000         204.000
  20418303.303   -17908467.12149 -13926990.32348  20418303.493    20418311.341
       246.000         213.000
  22097849.749     7616243.34449   5946471.48047  22097849.427    22097859.542
       234.000         191.000
  23155371.644    -9222956.63649  -7160583.62246  23155370.381    23155382.688
       223.000         169.000
  21354750.912   -15901741.58749 -11627610.62347  21354750.534    21354761.071
       238.000         198.000
 03  1 11 21 21  0.0000000  0  6G28G 9G 4G 7G 5G24
  23442855.233    10015395.45849   7807526.55245  23442854.739    23442867.283
       210.000         139.000
  21286815.790   -17194495.29049 -13379047.52647  21286815.284    21286824.723
       240.000         204.000
  20415374.955   -17923855.64049 -13938981.34248  20415374.790    20415383.214
       246.000         213.000
  22108592.519     7672696.61149   5990461.00247  22108592.160    22108602.485
       235.000         191.000
  23139550.836    -9306094.07549  -7225365.82946  23139549.343    23139561.986
       219.000         169.000
  21340987.077   -15974070.50249 -11683970.73247  21340986.882    21340997.300
       239.000         198.000
 03  1 11 21 21 30.0000000  0  6G28G 9G 4G 7G 5G24
  23456163.649    10085331.33949   7862021.90645  23456164.715    23456176.012
       207.000         137.000
  21282454.283   -17217414.70549 -13396906.77947  21282453.844    21282463.121
       241.000         204.000
  20412563.544   -17938629.32249 -13950493.27248  20412563.636    20412571.898
       245.000         213.000
  22119347.847     7729215.97949   6034502.03547  22119347.574    22119357.882
       235.000         191.000
  23123738.296    -9389188.40549  -7290114.44146  23123736.041    23123749.081
       218.000         168.000
  21327305.151   -16045969.55449 -11739995.87547  21327304.804    21327315.422
       239.000         199.000
 03  1 11 21 22  0.0000000  0  6G28G 9G 4G 7G 5G24
  23469514.288    10155489.17049   7916690.19345  23469514.683    23469524.232
       206.000         133.000
  21278202.597   -17239756.84349 -13414316.20547  21278202.397    21278211.772
       241.000         204.000
  20409869.210   -17952788.11449 -13961526.06948  20409869.282    20409877.562
       245.000         214.000
  22130115.515     7785800.23849   6078593.63747  22130115.040    22130125.929
       235.000         191.000
  23107934.056    -9472238.68449  -7354828.73946  23107932.871    23107944.925
       222.000         168.000
  21313705.286   -16117437.13949 -11795684.81947  21313704.779    21313715.299
       239.000         199.000
 03  1 11 21 22 30.0000000  0  6G28G 9G 4G 7G 5G24
  23482907.416    10225868.46949   7971531.03345  23482908.930    23482919.937
       207.000         132.000
  21274061.048   -17261520.92949 -13431275.19447  21274061.004    21274069.961
       242.000         205.000
  20407291.865   -17966332.01749 -13972079.72548  20407291.816    20407300.137
       246.000         214.000
  22140895.408     7842448.53149   6122735.13647  22140894.678    22140904.722
       233.000         190.000
  23092138.483    -9555243.89949  -7419507.92846  23092137.226    23092149.662
       218.000         168.000
  21300187.819   -16188471.12549 -11851035.89347  21300187.107    21300197.510
       238.000         199.000
 03  1 11 21 23  0.0000000  0  6G28G 9G 4G 7G 5G24
  23496342.498    10296469.43949   8026544.61944  23496342.511    23496355.283
       200.000         130.000
  21270029.668   -17282706.12849 -13447783.11347  21270029.605    21270038.483
       241.000         205.000
  20404831.663   -17979260.50249 -13982153.84948  20404832.019    20404840.023
       246.000         214.000
  22151687.186     7899159.85449   6166925.75247  22151686.397    22151696.620
       234.000         189.000
  23076351.683    -9638202.70549  -7484150.94646  23076350.305    23076362.596
       217.000         166.000
  21286753.387   -16259069.27349 -11906047.34847  21286752.838    21286763.280
       239.000         200.000
 03  1 11 21 23 30.0000000  0  6G28G 9G 4G 7G 5G24
  23509819.665    10367292.39249   8081731.20744  23509819.860    23509833.626
       201.000         128.000
  21266108.668   -17303311.15949 -13463838.94447  21266108.409    21266117.427
       241.000         204.000
  20402488.732   -17991572.71249 -13991747.74548  20402488.841    20402496.977
       246.000         214.000
  22162490.984     7955934.17449   6211165.44747  22162490.647    22162500.365
       235.000         189.000
  23060574.167    -9721112.97549  -7548756.16545  23060571.988    23060584.146
       216.000         162.000
  21273402.417   -16329228.84049 -11960717.04847  21273401.760    21273412.186
       238.000         200.000
 03  1 11 21 24  0.0000000  0  6G28G 9G 4G 7G 5G24
  23523339.378    10438336.73049   8137090.26644  23523340.410    23523351.090
       198.000         127.000
  21262298.002   -17323335.88049 -13479442.59347  21262297.897    21262306.645
       241.000         205.000
  20400262.994   -18003269.01549 -14000861.71248  20400262.912    20400270.962
       246.000         214.000
  22173306.547     8012769.93449   6255453.02347  22173306.110    22173316.124
       234.000         189.000
  23044805.997    -9803974.17349  -7613323.15245  23044805.333    23044816.284
       216.000         160.000
  21260135.130   -16398948.51549 -12015043.97447  21260134.265    21260145.002
       238.000         200.000
 03  1 11 21 24 30.0000000  0  6G28G 9G 4G 7G 5G24
  23536900.901    10509602.00349   8192621.49944  23536898.284    23536914.577
       199.000         127.000
  21258597.920   -17342779.94049 -13494593.76947  21258597.529    21258606.589
       241.000         205.000
  20398154.371   -18014349.60249 -14009495.90748  20398154.292    20398162.328
       246.000         214.000
  22184133.479     8069666.24049   6299787.76147  22184132.844    22184143.292
       233.000         189.000
  23029047.472    -9886785.27349  -7677851.11045  23029045.903    23029058.826
       217.000         160.000
  21246951.816   -16468226.41649 -12069026.66147  21246951.102    21246961.617
       239.000         200.000
 03  1 11 21 25  0.0000000  0  6G28G 9G 4G 7G 5G24
  23550504.434    10581088.47149   8248325.06544  23550503.825    23550517.360
       198.000         126.000
  21255008.457   -17361642.16949 -13509291.57447  21255007.934    21255017.327
       241.000         204.000
  20396163.050   -18024813.93649 -14017649.90148  20396163.130    20396171.147
       246.000         214.000
  22194971.932     8126622.51749   6344169.22947  22194971.451    22194982.182
       234.000         189.000
  23013298.748    -9969544.36349  -7742338.54245  23013297.626    23013310.014
       217.000         161.000
  21233853.146   -16537060.20149 -12122663.29747  21233852.750    21233863.041
       239.000         201.000
 03  1 11 21 25 30.0000000  0  6G28G 9G 4G 7G 5G24
  23564150.063    10652796.66949   8304201.39244  23564151.937    23564162.570
       198.000         124.000
  21251529.980   -17379921.40849 -13523535.09047  21251529.472    21251538.855
       241.000         204.000
  20394289.246   -18034660.92049 -14025322.84248  20394289.547    20394297.667
       246.000         215.000
  22205821.716     8183638.49949   6388597.22647  22205820.970    22205831.771
       234.000         190.000
  22997560.438   -10052249.49949  -7806783.93345  22997558.162    22997571.316
       219.000         161.000
  21220839.517   -16605446.97049 -12175951.59747  21220838.969    21220849.348
       239.000         201.000
 03  1 11 21 26  0.0000000  0  6G28G 9G 4G 7G 5G24
  23577837.817    10724725.65749   8360249.79044  23577837.912    23577850.928
       196.000         124.000
  21248162.434   -17397617.96849 -13537324.57147  21248162.383    21248171.174
       241.000         204.000
  20392532.671   -18043891.75649 -14032515.66448  20392532.553    20392540.984
       246.000         215.000
  22216682.651     8240712.74949   6433070.61647  22216682.241    22216692.646
       234.000         190.000
  22981832.391   -10134900.05349  -7871186.80946  22981831.769    22981844.191
       221.000         163.000
  21207911.192   -16673385.26149 -12228890.43547  21207910.539    21207921.139
       239.000         201.000
 03  1 11 21 26 30.0000000  0  6G28G 9G 4G 7G 5G24
  23591567.380    10796875.41849   8416470.19344  23591566.638    23591578.500
       196.000         121.000
  21244905.901   -17414730.90049 -13550659.27847  21244905.378    21244914.742
       241.000         204.000
  20390893.316   -18052505.95249 -14039227.98948  20390892.959    20390901.351
       245.000         214.000
  22227554.578     8297844.76749   6477589.01447  22227554.244    22227563.750
       234.000         190.000
  22966115.158   -10217494.46149  -7935545.91646  22966114.310    22966126.533
       224.000         166.000
  21195068.583   -16740873.17249 -12281478.33647  21195068.090    21195078.340
       239.000         202.000
 03  1 11 21 27  0.0000000  0  6G28G 9G 4G 7G 5G24
  23605339.218    10869244.37049   8472861.41644  23605340.303    23605350.947
       200.000         121.000
  21241760.340   -17431260.69649 -13563539.59847  21241759.986    21241769.361
       241.000         204.000
  20389371.124   -18060504.73749 -14045460.77448  20389371.362    20389379.141
       246.000         214.000
  22238437.106     8355032.32649   6522150.69247  22238436.771    22238445.942
       235.000         189.000
  22950408.777   -10300032.44049  -7999861.07446  22950408.063    22950418.568
       226.000         168.000
  21182311.858   -16807909.82349 -12333714.60647  21182311.411    21182321.834
       239.000         202.000
 03  1 11 21 27 30.0000000  0  6G28G 9G 4G 7G 5G24
  23619152.563    10941834.21448   8529424.80644  23619146.645    23619166.614
       194.000         114.000
  21238726.140   -17447205.14449 -13575963.80147  21238725.636    21238735.156
       240.000         204.000
  20387966.560   -18067886.14649 -14051212.48548  20387966.594    20387974.459
       246.000         214.000
  22249330.388     8412276.51049   6566756.49747  22249330.239    22249339.593
       235.000         188.000
  22934713.525   -10382510.98549  -8064129.90546  22934712.099    22934724.435
       224.000         169.000
  21169641.682   -16874491.62549 -12385596.45247  21169641.582    21169651.583
       240.000         202.000
 03  1 11 21 28  0.0000000  0  6G28G 9G 4G 7G 5G24
  23633007.859    11014644.61349   8586160.01444  23633012.616    23633018.399
       195.000         113.000
  21235803.371   -17462564.01049 -13587931.69947  21235803.319    21235812.193
       242.000         204.000
  20386679.269   -18074650.77349 -14056483.58048  20386679.136    20386687.403
       246.000         214.000
  22260234.281     8469576.27249   6611405.61447  22260233.931    22260243.546
       235.000         188.000
  22919029.680   -10464928.96249  -8128351.53446  22919029.026    22919040.517
       225.000         170.000
  21157058.468   -16940616.67649 -12437122.38047  21157057.884    21157068.210
       240.000         202.000
 03  1 11 21 28 30.0000000  0  6G28G 9G 4G 7G 5G24
  23646905.294    11087675.40648   8643066.92744  23646907.367    23646918.215
       194.000         113.000
  21232992.306   -17477336.66249 -13599442.81247  21232992.075    21233001.077
       241.000         205.000
  20385509.323   -18080798.38649 -14061273.89448  20385509.136    20385517.904
       245.000         214.000
  22271148.590     8526931.12249   6656097.64547  22271148.025    22271158.290
       234.000         189.000
  22903357.848   -10547284.97749  -8192524.88746  22903357.585    22903368.504
       225.000         171.000
  21144562.402   -17006283.16749 -12488290.99747  21144561.784    21144572.347
       238.000         202.000
 03  1 11 21 29  0.0000000  0  6G28G 9G 4G 7G 5G24
  23660844.129    11160924.13348   8700143.68344  23660846.966    23660854.487
       194.000         111.000
  21230292.321   -17491524.82649 -13610498.48847  21230291.875    21230301.142
       240.000         205.000
  20384456.425   -18086331.10649 -14065585.07448  20384456.384    20384464.776
       245.000         214.000
  22282072.749     8584338.08949   6700830.27947  22282071.803    22282083.036
       233.000         188.000
  22887697.704   -10629579.64349  -8256650.42646  22887696.907    22887707.270
       223.000         170.000
  21132153.650   -17071490.91949 -12539102.15547  21132153.105    21132163.754
       239.000         202.000
 03  1 11 21 29 30.0000000  0  6G28G 9G 4G 7G 5G24
  23674825.103    11234392.62748   8757391.67844  23674827.128    23674836.988
       192.000         112.000
  21227703.973   -17505126.28449 -13621096.98747  21227704.066    21227713.005
       241.000         205.000
  20383520.858   -18091247.20249 -14069415.76848  20383520.762    20383528.931
       245.000         214.000
  22293006.900     8641798.26449   6745604.37446  22293006.373    22293017.066
       232.000         187.000
  22872049.639   -10711809.70049  -8320725.62246  22872047.651    22872059.582
       222.000         170.000
  21119832.869   -17136236.59749 -12589553.24747  21119832.444    21119842.823
       239.000         202.000
 03  1 11 21 30  0.0000000  0  6G28G 9G 4G 7G 5G24
  23688847.845    11308080.41348   8814810.58044                  23688847.972
       187.000         108.000
  21225227.407   -17518140.98049 -13631238.27347  21225227.001    21225236.131
       241.000         205.000
  20382702.652   -18095547.05249 -14072766.26748  20382702.988    20382710.951
       246.000         214.000
  22303951.133     8699310.69649   6790419.18346  22303950.746    22303961.505
       233.000         187.000
  22856414.245   -10793973.85249  -8384749.44546  22856413.384    22856424.465
       222.000         169.000
  21107600.462   -17200518.28249 -12639642.78247  21107600.192    21107610.336
       239.000         202.000
 03  1 11 21 30 30.0000000  0  6G28G 9G 4G 7G 5G24
  23702912.174    11381987.39148   8872400.24144                  23702914.923
       187.000         105.000
  21222862.516   -17530568.24649 -13640921.82647  21222862.268    21222871.472
       241.000         205.000
  20382001.706   -18099230.65749 -14075636.57948  20382001.624    20382009.573
       246.000         214.000
  22314905.277     8756874.85449   6835274.30046  22314904.833    22314915.879
       233.000         187.000
  22840791.616   -10876070.59749  -8448720.75746  22840791.079    22840801.360
       222.000         169.000
  21095456.722   -17264334.05249 -12689369.27347  21095456.439    21095466.211
       241.000         203.000
 03  1 11 21 31  0.0000000  0  6G28G 9G 4G 7G 5G24
  23717017.809    11456113.04348   8930160.31444                  23717019.739
       180.000         103.000
  21220609.584   -17542407.60149 -13650147.26947  21220609.328    21220618.389
       241.000         205.000
  20381417.843   -18102298.53349 -14078027.10948  20381417.868    20381425.755
       245.000         214.000
  22325869.085     8814489.66449   6880168.89546  22325868.873    22325879.400
       233.000         187.000
  22825182.023   -10958098.81149  -8512638.66646  22825180.586    22825192.175
       222.000         169.000
  21083401.971   -17327682.09749 -12738731.30447  21083401.755    21083411.609
       240.000         204.000
 03  1 11 21 31 30.0000000  0  6G28G 9G 4G 7G 5G24
                  11530459.02748   8836135.17443
       176.000          74.000
  21218468.914   -17553657.01049 -13658913.01747  21218468.690    21218477.604
       242.000         206.000
  20380951.491   -18104748.98849 -14079936.52848  20380951.541    20380959.722
       246.000         214.000
  22336842.810     8872156.61649   6925104.10546  22336842.416    22336852.637
       235.000         187.000
  22809585.994   -11040054.92949  -8576500.39746  22809584.543    22809596.029
       221.000         169.000
  21071436.938   -17390558.54449 -12787725.85347  21071436.528    21071446.617
       242.000         204.000
 03  1 11 21 32  0.0000000  0  6G28G 9G 4G 7G 5G24
                  11605025.34848   8894235.40843
       184.000          74.000
  21216440.588   -17564315.86849 -13667218.59647  21216440.564    21216449.290
       242.000         206.000
  20380602.732   -18106581.69649 -14081364.58348  20380602.852    20380611.112
       246.000         215.000
  22347826.400     8929875.10449   6970079.47846  22347825.882    22347835.898
       232.000         186.000
  22794004.039   -11121937.05549  -8640304.48946  22794002.381    22794014.344
       223.000         169.000
  21059562.004   -17452961.35449 -12836351.33047  21059561.359    21059571.510
       240.000         204.000
 03  1 11 21 32 30.0000000  0  6G28G 9G 4G 7G 5G24
                  11679807.66848   8952495.95443
       188.000          74.000
  21214523.988   -17574388.00949 -13675066.99647  21214523.961    21214532.579
       242.000         206.000
  20380370.718   -18107801.07849 -14082314.72248  20380370.813    20380378.699
       246.000         215.000
  22358818.848     8987640.56249   7015091.45946  22358818.642    22358828.396
       233.000         185.000
  22778435.887   -11203747.87549  -8704053.01746  22778434.698    22778446.946
       226.000         170.000
  21047776.733   -17514892.88849 -12884609.58047  21047776.128    21047786.189
       241.000         203.000
 03  1 11 21 33  0.0000000  0  6G28G 9G 4G 7G 5G24
                  11754806.68948   8946561.02943
       189.000          74.000
  21212719.169   -17583872.50649 -13682457.49047  21212719.000    21212727.419
       242.000         206.000
  20380255.456   -18108406.94449 -14082786.80248  20380255.573    20380263.197
       246.000         215.000
  22369820.271     9045452.82249   7060139.90546  22369819.436    22369829.942
       231.000         184.000
  22762881.691   -11285485.49549  -8767744.52946  22762879.906    22762891.883
       224.000         171.000
  21036081.624   -17576350.71549 -12932498.71747  21036081.314    21036091.030
       242.000         204.000
 03  1 11 21 33 30.0000000  0  6G28G 9G 4G 7G 5G24
                  11830021.04248   9005172.00943
       184.000          74.000
  21211026.073   -17592769.45649 -13689390.15447  21211025.652    21211034.670
       241.000         206.000
  20380256.691   -18108400.06049 -14082781.40948  20380256.352    20380264.605
       245.000         214.000
  22380830.166     9103310.57449   7105223.80746  22380829.224    22380839.916
       231.000         183.000
  22747341.445   -11367148.91849  -8831378.22746  22747340.524    22747351.844
       225.000         171.000
  21024477.031   -17637333.57449 -12980017.75347  21024477.037    21024486.606
       243.000         205.000
 03  1 11 21 34  0.0000000  0  6G28G 9G 4G 7G 5G24
                  11905451.39158   9063960.30743
       176.000          74.000
  21209444.919   -17601078.22949 -13695864.50447  21209444.877    21209453.508
       242.000         206.000
  20380374.570   -18107780.02249 -14082298.23248  20380374.740    20380382.724
       246.000         214.000
  22391848.899     9161213.95349   7150343.25746  22391848.456    22391858.461
       232.000         183.000
  22731815.903   -11448735.89849  -8894952.35446  22731814.482    22731826.337
       225.000         171.000
  21012963.317   -17697838.87949 -13027164.65947  21012962.968    21012972.617
       243.000         205.000
 03  1 11 21 34 30.0000000  0  6G28G 9G 4G 7G 5G24
                  11981099.76018    731358.614 1
       169.000
  21207976.337   -17608795.88549 -13701878.24047  21207976.343    21207984.851
       242.000         206.000
  20380609.703   -18106544.53649 -14081335.48848  20380609.807    20380617.601
       246.000         215.000
  22402876.762     9219165.05049   7195499.89846  22402875.992    22402886.196
       231.000         183.000
  22716305.648   -11530242.09249  -8958463.54946  22716304.929    22716315.327
       225.000         172.000
  21001541.146   -17757862.61549 -13073936.31447  21001540.546    21001550.092
       242.000         205.000
 03  1 11 21 35  0.0000000  0  5G 9G 4G 7G 5G24
  21206621.935   -17615913.29449 -13707424.25647  21206621.821    21206630.195
       242.000         206.000
  20380963.450   -18104685.61549 -14079886.95048  20380963.622    20380971.348
       246.000         215.000
  22413915.039     9277171.84249   7240699.93946  22413914.620    22413924.758
       231.000         183.000
  22700812.690   -11611657.33149  -9021903.85146  22700811.985    22700823.367
       224.000         173.000
  20990212.597   -17817394.01649 -13120324.33247  20990211.959    20990221.502
       243.000         205.000
 03  1 11 21 35 30.0000000  0  5G 9G 4G 7G 5G24
  21205379.391   -17622443.08549 -13712512.38847  21205379.241    21205387.743
       242.000         206.000
  20381433.433   -18102215.71149 -14077962.31748  20381433.277    20381441.696
       246.000         215.000
  22424961.468     9335221.22249   7285933.16246  22424960.983    22424971.544
       231.000         183.000
  22685335.022   -11692992.58549  -9085281.82046  22685332.801    22685346.052
       223.000         174.000
  20978975.676   -17876444.11549 -13166337.31547  20978975.288    20978984.807
       243.000         205.000
 03  1 11 21 36  0.0000000  0  5G 9G 4G 7G 5G24
  21204248.451   -17628385.93849 -13717143.16347  21204247.945    21204256.708
       241.000         206.000
  20382019.374   -18099136.29049 -14075562.73448  20382019.611    20382027.640
       246.000         215.000
  22436015.762     9393311.80749   7331198.49646  22436015.020    22436025.947
       231.000         182.000
  22669872.540   -11774247.16449  -9148596.92846  22669872.234    22669883.085
       223.000         175.000
  20967830.488   -17935012.06049 -13211974.59047  20967830.143    20967839.298
       243.000         206.000
 03  1 11 21 36 30.0000000  0  5G 9G 4G 7G 5G24
  21203229.501   -17633740.12649 -13721315.24447  21203229.160    21203238.124
       242.000         206.000
  20382721.643   -18095446.09949 -14072687.22348  20382721.965    20382729.569
       246.000         216.000
  22447078.064     9451444.53249   7376496.65146  22447077.152    22447088.149
       232.000         182.000
  22654426.222   -11855417.82949  -9211846.65046  22654425.128    22654436.241
       223.000         175.000
  20956777.731   -17993094.36749 -13257233.44447  20956777.305    20956786.855
       243.000         206.000
 03  1 11 21 37  0.0000000  0  5G 9G 4G 7G 5G24
  21202322.945   -17638504.29549 -13725027.56947  21202322.887    21202331.386
       242.000         206.000
  20383540.225   -18091144.47349 -14069335.27348  20383540.069    20383548.191
       246.000         215.000
  22458148.529     9509620.15949   7421828.24946  22458148.847    22458158.881
       232.000         182.000
  22638996.399   -11936501.79549  -9275028.80846  22638995.230    22639006.954
       226.000         176.000
  20945817.945   -18050688.09249 -13302111.58947  20945817.732    20945827.271
       244.000         207.000
 03  1 11 21 37 30.0000000  0  5G 9G 4G 7G 5G24
  21201528.329   -17642679.69149 -13728281.10947  21201528.078    21201536.905
       241.000         206.000
  20384474.723   -18086233.22549 -14065508.29448  20384474.702    20384482.667
       246.000         215.000
  22469226.823     9567836.63549   7467191.67946  22469226.868    22469236.342
       233.000         182.000
  22623583.110   -12017498.71849  -9338143.13946  22623582.540    22623593.705
       226.000         177.000
  20934951.271   -18107792.72749 -13346608.61947  20934951.065    20934960.535
       244.000         207.000
 03  1 11 21 38  0.0000000  0  5G 9G 4G 7G 5G24
  21200845.673   -17646266.61449 -13731076.08847  21200845.180    21200854.214
       241.000         206.000
  20385525.102   -18080713.44149 -14061207.12948  20385525.025    20385533.050
       246.000         215.000
  22480312.777     9626092.92049   7512586.11846  22480312.593    22480323.141
       232.000         182.000
  22608186.807   -12098407.42349  -9401188.72946  22608186.458    22608196.744
       227.000         177.000
  20924177.896   -18164407.07449 -13390723.61847  20924177.573    20924186.930
       243.000         207.000
 03  1 11 21 38 30.0000000  0  5G 9G 4G 7G 5G24
  21200275.224   -17649263.78449 -13733411.53347  21200274.855    21200283.757
       241.000         206.000
  20386691.359   -18074584.13449 -14056431.01748  20386691.277    20386699.360
       246.000         215.000
  22491406.410     9684389.94549   7558012.30546  22491406.054    22491416.306
       231.000         183.000
  22592807.578   -12179225.05849  -9464163.35246  22592806.535    22592817.270
       228.000         177.000
  20913498.183   -18220528.70349 -13434454.67347  20913497.497    20913507.410
       243.000         207.000
 03  1 11 21 39  0.0000000  0  5G 9G 4G 7G 5G24
  21199817.154   -17651670.56849 -13735286.93147  21199817.162    21199825.880
       242.000         206.000
  20387973.640   -18067845.50949 -14051180.10548  20387973.700    20387981.550
       246.000         215.000
  22502507.870     9742727.93749   7603470.39946  22502507.548    22502517.362
       231.000         183.000
  22577446.068   -12259949.24749  -9527065.16746  22577445.500    22577456.364
       227.000         176.000
  20902912.696   -18276155.05049 -13477799.78947  20902912.065    20902921.714
       242.000         207.000
 03  1 11 21 39 30.0000000  0  5G 9G 4G 7G 5G24
  21199471.653   -17653486.84249 -13736702.19047  21199471.651    21199480.298
       242.000         207.000
  20389371.864   -18060497.79749 -14045454.58448  20389372.171    20389379.550
       247.000         215.000
  22513617.037     9801106.22749   7648959.88846  22513616.508    22513626.828
       231.000         183.000
  22562102.837   -12340578.37649  -9589892.89846  22562102.721    22562112.388
       230.000         176.000
  20892421.826   -18331284.51849 -13520757.72847  20892421.248    20892430.861
       243.000         207.000
 03  1 11 21 40  0.0000000  0  5G 9G 4G 7G 5G24
  21199238.347   -17654712.91649 -13737657.54947  21199237.753    21199246.900
       241.000         206.000
  20390885.832   -18052542.01449 -14039255.24348  20390885.764    20390893.750
       246.000         215.000
  22524733.751     9859524.15749   7694480.27646  22524733.561    22524743.479
       232.000         183.000
  22546778.070   -12421110.81749  -9652645.29446  22546777.031    22546787.602
       228.000         176.000
  20882025.792   -18385915.65549 -13563327.35947  20882025.465    20882035.077
       242.000         207.000
 03  1 11 21 40 30.0000000  0  5G 9G 4G 7G 5G24
  21199116.982   -17655350.03849 -13738153.98747  21199116.637    21199125.666
       242.000         206.000
  20392515.100   -18043979.83149 -14032583.38548  20392515.076    20392522.913
       245.000         215.000
  22535857.709     9917980.10349   7740030.29346  22535857.271    22535867.502
       233.000         183.000
  22531471.527   -12501546.00949  -9715321.90946  22531470.677    22531480.616
       228.000         175.000
  20871724.729   -18440047.93349 -13605508.27147  20871724.356    20871733.978
       242.000         207.000
 03  1 11 21 41  0.0000000  0  5G 9G 4G 7G 5G24
  21199107.811   -17655398.10449 -13738191.42547  21199107.913    21199116.407
       242.000         206.000
  20394259.654   -18034811.77149 -14025439.41548  20394259.538    20394267.753
       246.000         215.000
  22546988.890     9976473.84349   7785609.76646  22546988.565    22546998.358
       233.000         183.000
  22516183.782   -12581882.19849  -9777921.38246  22516182.851    22516193.797
       227.000         175.000
  20861518.865   -18493679.88749 -13647299.31747  20861518.521    20861527.862
       243.000         207.000
 03  1 11 21 41 30.0000000  0  5G 9G 4G 7G 5G24
  21199210.870   -17654856.46749 -13737769.35047  21199210.712    21199219.626
       242.000         206.000
  20396119.624   -18025037.72249 -14017823.24448  20396119.750    20396127.651
       246.000         215.000
  22558127.096    10035005.64349   7831218.89746  22558126.574    22558136.680
       233.000         183.000
  22500915.519   -12662116.92249  -9840441.78146  22500914.181    22500925.420
       227.000         175.000
  20851408.672   -18546808.99449 -13688698.54047  20851408.230    20851417.485
       242.000         208.000
 03  1 11 21 42  0.0000000  0  5G 9G 4G 7G 5G24
  21199426.132   -17653724.98349 -13736887.65547  21199425.993    21199435.093
       242.000         206.000
  20398094.808   -18014658.07049 -14009735.17448  20398094.633    20398102.593
       246.000         215.000
  22569272.600    10093575.24249   7876857.47346  22569271.748    22569282.291
       231.000         183.000
  22485666.880   -12742248.18749  -9902881.55846  22485665.328    22485676.218
       227.000         176.000
  20841394.448   -18599433.58649 -13729704.62847  20841393.753    20841403.483
       242.000         208.000
 03  1 11 21 42 30.0000000  0  5G 9G 4G 7G 5G24
  21199753.533   -17652004.64949 -13735547.11147  21199753.606    21199762.432
       243.000         206.000
  20400184.793   -18003674.49149 -14001176.52248  20400184.876    20400192.722
       246.000         215.000
  22580424.950    10152181.34749   7922524.48046  22580424.208    22580434.425
       229.000         182.000
  22470438.051   -12822275.14649  -9965240.05746  22470435.961    22470447.894
       227.000         177.000
  20831476.403   -18651552.94949 -13770317.03747  20831475.929    20831485.380
       242.000         208.000
 03  1 11 21 43  0.0000000  0  5G 9G 4G 7G 5G24
  21200193.053   -17649695.16049 -13733747.48947  21200192.742    21200201.623
       242.000         206.000
  20402389.798   -17992087.36549 -13992147.57548  20402390.179    20402397.824
       247.000         215.000
  22591584.207    10210823.96449   7968219.93446  22591583.652    22591594.287
       230.000         182.000
  22455229.509   -12902195.67449 -10027515.66146  22455228.479    22455239.752
       229.000         177.000
  20821654.832   -18703165.40949 -13810534.45947  20821654.578    20821663.738
       243.000         208.000
 03  1 11 21 43 30.0000000  0  5G 9G 4G 7G 5G24
  21200744.543   -17646797.04249 -13731489.19847  21200744.480    21200753.389
       242.000         206.000
  20404709.469   -17979897.84349 -13982649.22848  20404709.554    20404717.526
       246.000         216.000
  22602750.470    10269502.26349   8013943.20546  22602750.052    22602760.572
       230.000         182.000
  22440041.559   -12982008.43349 -10089707.27346  22440040.513    22440051.905
       228.000         178.000
  20811929.983   -18754269.73749 -13850355.93747  20811929.611    20811938.604
       243.000         208.000
 03  1 11 21 44  0.0000000  0  5G 9G 4G 7G 5G24
  21201407.828   -17643310.99449 -13728772.78647  21201407.621    21201416.720
       242.000         206.000
  20407143.369   -17967107.30549 -13972682.56248  20407143.389    20407151.413
       246.000         216.000
  22613923.279    10328215.31549   8059693.55346  22613922.297    22613933.230
       230.000         182.000
  22424874.304   -13061712.16149 -10151813.93146  22424873.023    22424883.994
       228.000         179.000
  20802301.989   -18804864.97649 -13889780.72447  20802301.536    20802310.966
       242.000         208.000
 03  1 11 21 44 30.0000000  0  5G 9G 4G 7G 5G24
  21202183.030   -17639237.30749 -13725598.46147  21202183.094    21202191.837
       242.000         206.000
  20409691.605   -17953716.09549 -13962247.83848  20409691.475    20409699.512
       246.000         216.000
  22625102.609    10386962.77449   8105470.71746  22625101.858    22625112.382
       230.000         181.000
  22409728.117   -13141304.97549 -10213834.17446  22409727.299    22409737.629
       229.000         179.000
  20792771.111   -18854949.66349 -13928807.67147  20792770.594    20792779.883
       243.000         208.000
 03  1 11 21 45  0.0000000  0  5G 9G 4G 7G 5G24
  21203070.066   -17634576.10649 -13721966.33547  21203069.760    21203078.741
       242.000         206.000
  20412353.882   -17939725.45349 -13951346.02848  20412354.081    20412361.787
       247.000         216.000
  22636288.379    10445744.36249   8151274.46746  22636287.564    22636297.641
       229.000         181.000
  22394603.370   -13220785.29949 -10275766.77046  22394603.009    22394613.447
       228.000         179.000
  20783337.703   -18904522.24749 -13967435.57147  20783337.325    20783346.720
       243.000         209.000
 03  1 11 21 45 30.0000000  0  5G 9G 4G 7G 5G24
  21204068.668   -17629328.34249 -13717877.14847  21204068.489    21204077.376
       242.000         206.000
  20415130.084   -17925136.70649 -13939978.15448  20415130.219    20415137.677
       247.000         216.000
  22647480.481    10504558.94949   8197103.94046  22647479.686    22647490.909
       230.000         181.000
  22379500.408   -13300151.83549 -10337610.69246  22379499.675    22379510.010
       228.000         179.000
  20774001.877   -18953581.78649 -14005663.70647  20774001.548    20774010.692
       243.000         209.000
 03  1 11 21 46  0.0000000  0  5G 9G 4G 7G 5G24
  21205178.999   -17623493.61949 -13713330.58647  21205178.980    21205187.697
       242.000         206.000
  20418020.015   -17909950.01449 -13928144.34848  20418019.829    20418027.808
       246.000         215.000
  22658678.959    10563407.08249   8242959.54946  22658677.924    22658689.464
       229.000         180.000
  22364419.476   -13379402.00249 -10399363.94946  22364418.525    22364428.697
       227.000         179.000
  20764764.051   -19002126.62449 -14043490.77447  20764763.563    20764772.955
       243.000         209.000
 03  1 11 21 46 30.0000000  0  5G 9G 4G 7G 5G24
  21206400.960   -17617072.28849 -13708326.93247  21206400.874    21206409.218
       242.000         206.000
  20421023.557   -17894166.17749 -13915845.24048  20421023.630    20421031.504
       246.000         216.000
  22669883.658    10622288.32149   8288840.95746  22669882.667    22669893.545
       228.000         179.000
  22349361.029   -13458533.80849 -10461024.97546  22349359.740    22349370.351
       226.000         179.000
  20755624.477   -19050155.09749 -14080915.48247  20755624.001    20755633.402
       243.000         209.000
 03  1 11 21 47  0.0000000  0  5G 9G 4G 7G 5G24
  21207734.371   -17610065.10349 -13702866.76547  21207733.991    21207742.631
       241.000         205.000
  20424140.484   -17877786.63949 -13903081.94948  20424140.422    20424148.217
       246.000         216.000
  22681094.462    10681201.90149   8334747.56546  22681093.106    22681104.533
       228.000         178.000
  22334325.337   -13537545.91949 -10522592.73746  22334324.249    22334335.001
       228.000         179.000
  20746583.367   -19097666.19549 -14117937.03647  20746582.920    20746592.161
       244.000         210.000
 03  1 11 21 47 30.0000000  0  5G 9G 4G 7G 5G24
  21209179.012   -17602473.26049 -13696951.02247  21209178.841    21209187.193
       242.000         205.000
  20427370.413   -17860812.96949 -13889855.69748  20427370.536    20427378.267
       246.000         215.000
  22692311.428    10740146.87349   8380678.63246  22692311.610    22692322.118
       229.000         178.000
  22319312.747   -13616437.19349 -10584066.34046  22319311.182    22319322.259
       228.000         179.000
  20737640.826   -19144659.56149 -14154555.16947  20737640.470    20737649.362
       244.000         210.000
 03  1 11 21 48  0.0000000  0  5G 9G 4G 7G 5G24
  21210734.747   -17594297.92449 -13690580.60647  21210734.554    21210742.891
       242.000         205.000
  20430713.048   -17843247.16249 -13876168.03048  20430713.012    20430720.927
       246.000         215.000
  22703534.149    10799121.75249   8426633.02146  22703533.291    22703545.275
       228.000         177.000
  22304323.289   -13695206.73649 -10645445.08846  22304322.879    22304332.887
       229.000         179.000
  20728796.861   -19191134.72749 -14190769.50947  20728796.263    20728805.466
       243.000         210.000
 03  1 11 21 48 30.0000000  0  5G 9G 4G 7G 5G24
  21212401.704   -17585538.26249 -13683754.87847  21212401.400    21212409.990
       242.000         205.000
  20434168.368   -17825089.12649 -13862018.89348  20434168.510    20434176.176
       246.000         215.000
  22714762.549    10858127.38449   8472611.36846  22714761.658    22714772.515
       226.000         176.000
  22289357.679   -13773851.66549 -10706726.74446  22289356.669    22289366.867
       229.000         180.000
  20720051.838   -19237089.36749 -14226578.24347  20720051.347    20720060.604
       243.000         210.000
 03  1 11 21 49  0.0000000  0  5G 9G 4G 7G 5G24
  21214179.914   -17576193.18749 -13676472.97747  21214179.709    21214188.076
       242.000         205.000
  20437736.543   -17806338.27649 -13847407.82848  20437736.789    20437744.513
       246.000         216.000
  22725996.932    10917165.19249   8518614.77946  22725996.500    22726007.511
       227.000         176.000
  22274416.368   -13852368.54149 -10767908.60846  22274415.433    22274425.863
       230.000         181.000
  20711406.453   -19282520.77349 -14261979.26047  20711406.172    20711415.069
       244.000         210.000
 03  1 11 21 49 30.0000000  0  5G 9G 4G 7G 5G24
  21216069.313   -17566264.47349 -13668736.30147  21216069.061    21216077.700
       242.000         206.000
  20441417.149   -17786996.70449 -13832336.45948  20441417.281    20441425.053
       247.000         216.000
  22737237.252    10976233.64849   8564642.06746  22737236.379    22737248.178
       228.000         176.000
  22259499.504   -13930756.54749 -10828990.06146  22259499.109    22259509.159
       230.000         182.000
  20702860.746   -19327428.57449 -14296972.27747  20702860.408    20702869.849
       244.000         211.000
 03  1 11 21 50  0.0000000  0  5G 9G 4G 7G 5G24
  21218069.462   -17555753.58049 -13660545.97647  21218068.977    21218077.652
       242.000         206.000
  20445209.738   -17767066.59849 -13816806.49748  20445209.896    20445217.527
       246.000         216.000
  22748483.220    11035331.42749   8610692.20546  22748482.853    22748494.163
       228.000         178.000
  22244607.358   -14009014.92549 -10889970.50846  22244606.379    22244616.968
       230.000         183.000
  20694414.741   -19371812.64549 -14331557.19247  20694414.085    20694423.518
       243.000         211.000
 03  1 11 21 50 30.0000000  0  5G 9G 4G 7G 5G24
  21220180.263   -17544660.88549 -13651902.29847  21220179.545    21220188.451
       241.000         205.000
  20449114.120   -17746548.88049 -13800818.65148  20449114.063    20449121.648
       246.000         215.000
  22759734.650    11094458.35549   8656765.05646  22759734.963    22759745.751
       228.000         179.000
  22229740.332   -14087141.53849 -10950848.27946  22229739.641    22229749.078
       230.000         184.000
  20686068.511   -19415671.56049 -14365732.89047  20686068.133    20686076.852
       243.000         210.000
 03  1 11 21 51  0.0000000  0  5G 9G 4G 7G 5G24
  21222401.704   -17532986.77549 -13642805.57347  21222401.787    21222410.154
       243.000         206.000
  20453130.097   -17725444.53049 -13784373.69248  20453129.993    20453137.675
       246.000         215.000
  22770991.638    11153614.34149   8702860.57046  22770991.241    22771002.826
       229.000         179.000
  22214898.793   -14165134.37849 -11011621.81246  22214898.026    22214908.058
       230.000         183.000
  20677822.541   -19459004.17249 -14399498.48547  20677822.192    20677831.032
       244.000         210.000
 03  1 11 21 51 30.0000000  0  5G 9G 4G 7G 5G24
  21224733.534   -17520733.35249 -13633257.43547  21224733.273    21224741.640
       243.000         206.000
  20457257.249   -17703756.14349 -13767473.64048  20457257.415    20457265.186
       247.000         215.000
  22782254.019    11212797.58049   8748977.29846  22782254.264    22782264.344
       230.000         178.000
  22200082.832   -14242993.09549 -11072290.82746  22200082.193    22200091.353
       230.000         183.000
  20669676.647   -19501810.95749 -14432854.35047  20669676.111    20669685.184
       243.000         210.000
 03  1 11 21 52  0.0000000  0  5G 9G 4G 7G 5G24
  21227175.403   -17507900.77349 -13623258.00647  21227174.753    21227183.516
       242.000         206.000
  20461495.407   -17681484.52549 -13750119.11848  20461495.581    20461503.150
       246.000         215.000
  22793521.631    11272008.36149   8795115.49846  22793520.824    22793533.316
       229.000         177.000
  22185292.694   -14320715.23549 -11132853.42446  22185291.842    22185300.904
       229.000         182.000
  20661631.108   -19544089.87649 -14465798.88247  20661630.461    20661639.838
       243.000         210.000
 03  1 11 21 52 30.0000000  0  5G 9G 4G 7G 5G24
  21229727.495   -17494489.17649 -13612807.39947  21229727.545    21229735.748
       242.000         206.000
  20465844.406   -17658630.22149 -13732310.55848  20465844.431    20465852.242
       245.000         215.000
  22804794.421    11331246.89749   8841275.32246  22804793.770    22804804.897
       228.000         175.000
  22170528.927   -14398298.27849 -11193307.63246  22170527.453    22170537.684
       229.000         182.000
  20653686.343   -19585839.48249 -14498330.96547  20653685.721    20653695.127
       243.000         210.000
 03  1 11 21 53  0.0000000  0  5G 9G 4G 7G 5G24
  21232389.696   -17480499.42149 -13601906.27847  21232389.523    21232397.946
       243.000         206.000
  20470304.003   -17635194.73949 -13714049.11948  20470304.293    20470311.611
       246.000         215.000
  22816072.435    11390512.83249   8887456.50146  22816071.932    22816082.534
       227.000         174.000
  22155791.880   -14475740.65149 -11253652.24146  22155791.335    22155801.113
       229.000         182.000
  20645842.385   -19627059.17249 -14530450.13247  20645842.101    20645851.122
       243.000         210.000
 03  1 11 21 53 30.0000000  0  5G 9G 4G 7G 5G24
  21235161.798   -17465932.08649 -13590555.09847  21235161.763    21235170.285
       242.000         206.000
  20474874.086   -17611179.04849 -13695335.57448  20474874.180    20474881.774
       246.000         215.000
  22827355.644    11449805.76049   8933658.69946  22827355.281    22827365.775
       228.000         174.000
  22141082.188   -14553040.49749 -11313885.79246  22141081.448    22141090.646
       231.000         183.000
  20638099.579   -19667747.64449 -14562155.36547  20638099.301    20638108.349
       244.000         211.000
 03  1 11 21 54  0.0000000  0  5G 9G 4G 7G 5G24
  21238043.442   -17450788.61949 -13578754.98347  21238043.279    21238051.969
       242.000         206.000
  20479553.997   -17586585.60749 -13676171.83248  20479553.760    20479561.680
       245.000         215.000
  22838643.840    11509124.84849   8979881.29046  22838643.456    22838654.263
       228.000         175.000
  22126399.825   -14630196.62349 -11374007.33946  22126398.933    22126408.898
       231.000         183.000
  20630457.968   -19707904.69749 -14593446.50847  20630457.651    20630466.522
       244.000         211.000
 03  1 11 21 54 30.0000000  0  5G 9G 4G 7G 5G24
  21241034.535   -17435070.12249 -13566506.79147  21241034.128    21241042.795
       241.000         205.000
  20484343.494   -17561416.07349 -13656559.18848  20484343.544    20484351.426
       246.000         215.000
  22849936.742    11568469.21349   9026123.56646  22849936.278    22849947.392
       229.000         177.000
  22111745.034   -14707207.66949 -11434015.83646  22111743.758    22111753.659
       231.000         183.000
  20622917.520   -19747529.86549 -14624323.19747  20622917.002    20622926.058
       243.000         211.000
 03  1 11 21 55  0.0000000  0  5G 9G 4G 7G 5G24
  21244135.161   -17418776.07149 -13553810.12047  21244134.732    21244143.489
       241.000         205.000
  20489242.819   -17535670.13749 -13636497.40648  20489242.992    20489250.707
       246.000         215.000
  22861234.662    11627840.16149   9072386.57346  22861234.737    22861245.059
       227.000         178.000
  22097118.273   -14784070.09049 -11493908.53446  22097116.734    22097127.333
       229.000         184.000
  20615478.611   -19786620.98149 -14654783.74247  20615478.311    20615487.311
       243.000         211.000
 03  1 11 21 55 30.0000000  0  5G 9G 4G 7G 5G24
  21247345.132   -17401907.22449 -13540665.55947  21247345.119    21247353.725
       242.000         205.000
  20494251.510   -17509348.94949 -13615987.37748  20494251.565    20494259.664
       246.000         215.000
  22872537.714    11687237.49649   9118670.12846  22872537.572    22872548.408
       227.000         177.000
  22082520.249   -14860781.71249 -11553683.72046  22082518.940    22082529.552
       230.000         184.000
  20608141.744   -19825176.35249 -14684826.82447  20608141.491    20608150.051
       244.000         211.000
 03  1 11 21 56  0.0000000  0  5G 9G 4G 7G 5G24
  21250664.092   -17384466.11249 -13527075.07447  21250663.852    21250672.361
       242.000         205.000
  20499369.075   -17482455.66649 -13595031.56548  20499369.112    20499376.884
       245.000         215.000
  22883845.434    11746659.51349   9164972.92046  22883845.533    22883855.753
       227.000         175.000
  22067951.196   -14937342.19549 -11613341.13246  22067950.915    22067960.761
       231.000         186.000
  20600906.609   -19863197.11849 -14714453.33647  20600905.970    20600914.983
       243.000         211.000
 03  1 11 21 56 30.0000000  0  5G 9G 4G 7G 5G24
  21254091.937   -17366452.75949 -13513038.69247  21254091.948    21254100.147
       242.000         205.000
  20504595.479   -17454990.91849 -13573630.45448  20504595.604    20504603.177
       246.000         214.000
  22895157.996    11806106.77149   9211295.38446  22895157.992    22895168.386
       227.000         174.000
  22053411.429   -15013748.92849 -11672878.72846  22053410.951    22053421.048
       232.000         186.000
  20593773.439   -19900681.38249 -14743661.79647  20593772.948    20593782.003
       243.000         211.000
 03  1 11 21 57  0.0000000  0  5G 9G 4G 7G 5G24
  21257628.466   -17347868.26049 -13498557.25447  21257628.300    21257636.834
       242.000         205.000
  20509930.273   -17426956.38749 -13551785.36448  20509930.411    20509938.015
       246.000         215.000
  22906475.264    11865578.72749   9257637.09246  22906475.697    22906484.764
       225.000         174.000
  22038901.297   -15090000.22649 -11732295.21046  22038900.697    22038911.184
       231.000         186.000
  20586742.509   -19937628.59149 -14772451.77947  20586742.095    20586751.217
       243.000         211.000
 03  1 11 21 57 30.0000000  0  5G 9G 4G 7G 5G24
  21261273.566   -17328713.17549 -13483631.21247  21261273.267    21261282.054
       241.000         205.000
  20515373.297   -17398353.04149 -13529497.04248  20515373.383    20515381.265
       246.000         215.000
  22917797.159    11925075.65249   9303998.26846  22917795.950    22917806.529
       225.000         174.000
  22024421.100   -15166093.65649 -11791588.68546  22024420.001    22024430.232
       231.000         186.000
  20579814.080   -19974037.52149 -14800822.31847  20579813.921    20579822.774
       244.000         211.000
 03  1 11 21 58  0.0000000  0  5G 9G 4G 7G 5G24
  21265027.078   -17308987.96649 -13468260.92047  21265027.268    21265035.671
       242.000         205.000
  20520924.396   -17369182.00349 -13506766.37348  20520924.639    20520932.182
       246.000         215.000
  22929123.643    11984597.64049   9350378.95946  22929123.548    22929134.022
       222.000         173.000
  22009971.392   -15242026.89949 -11850757.34746  22009970.694    22009980.416
       231.000         186.000
  20572988.352   -20009907.12449 -14828772.60647  20572988.007    20572996.885
       243.000         211.000
 03  1 11 21 58 30.0000000  0  5G 9G 4G 7G 5G24
  21268888.989   -17288693.91749 -13452447.36747  21268888.685    21268897.626
       242.000         205.000
  20526583.149   -17339445.05849 -13483594.73848  20526583.222    20526590.811
       246.000         214.000
  22940454.950    12044144.25949   9396778.84546  22940454.504    22940465.334
       225.000         173.000
  21995552.578   -15317798.34549 -11909799.92246  21995552.296    21995561.176
       232.000         185.000
  20566265.337   -20045236.73249 -14856302.11747  20566265.041    20566273.876
       244.000         212.000
 03  1 11 21 59  0.0000000  0  5G 9G 4G 7G 5G24
  21272858.529   -17267833.53449 -13436192.52347  21272857.967    21272867.070
       241.000         205.000
  20532349.051   -17309145.36149 -13459984.59248  20532349.280    20532356.746
       246.000         214.000
  22951790.800    12103713.53049   9443196.37846  22951790.196    22951801.176
       225.000         174.000
  21981164.755   -15393407.62149 -11968716.13446  21981164.327    21981173.469
       233.000         186.000
  20559644.971   -20080027.16549 -14883411.49047  20559644.814    20559653.153
       244.000         212.000
 03  1 11 21 59 30.0000000  0  5G 9G 4G 7G 5G24
  21276935.815   -17246407.14649 -13419496.64047  21276936.254    21276944.237
       243.000         205.000
  20538221.790   -17278283.94149 -13435936.74148  20538221.735    20538229.450
       245.000         214.000
  22963130.809    12163305.87549   9489631.89046  22963129.906    22963141.893
       224.000         175.000
  21966808.174   -15468852.30449 -12027504.09846  21966807.146    21966816.839
       234.000         187.000
  20553127.381   -20114277.10849 -14910099.71147  20553126.786    20553135.552
       243.000         211.000
 03  1 11 22  0  0.0000000  0  5G 9G 4G 7G 5G24
  21281120.855   -17224415.31349 -13402360.14347  21281120.847    21281128.746
       242.000         205.000
  20544201.168   -17246861.67349 -13411451.86948  20544201.215    20544208.910
       246.000         214.000
  22974475.167    12222921.83849   9536085.80746  22974474.442    22974486.342
       224.000         174.000
  21952483.257   -15544129.55849 -12086161.59547  21952482.732    21952491.978
       233.000         188.000
  20546712.775   -20147985.43449 -14936365.88947  20546712.187    20546721.215
       243.000         211.000
 03  1 11 22  0 30.0000000  0  5G 9G 4G 7G 5G24
  21285413.033   -17201859.33349 -13384784.05447  21285412.765    21285421.305
       241.000         205.000
  20550287.028   -17214880.38149 -13386531.39248  20550287.272    20550295.019
       246.000         214.000
  22985824.054    12282561.01849   9582557.81946  22985824.135    22985834.927
       226.000         174.000
  21938190.703   -15619237.65949 -12144687.29147  21938190.307    21938199.076
       234.000         188.000
  20540401.332   -20181151.61549 -14962209.61447  20540400.806    20540409.781
       243.000         211.000
 03  1 11 22  1  0.0000000  0  5G 9G 4G 7G 5G24
  21289812.483   -17178739.68749 -13366768.75247  21289812.430    21289821.110
       241.000         205.000
  20556479.084   -17182340.78649 -13361175.87248  20556479.156    20556486.778
       246.000         214.000
  22997177.662    12342223.87049   9629048.28646  22997177.365    22997188.239
       226.000         174.000
  21923930.757   -15694174.17649 -12203079.27847  21923929.659    21923938.842
       233.000         188.000
  20534193.299   -20213774.57549 -14987630.04947  20534192.854    20534201.803
       243.000         211.000
 03  1 11 22  1 30.0000000  0  5G 9G 4G 7G 5G24
  21294318.549   -17155060.57949 -13348317.49747  21294318.460    21294326.689
       241.000         205.000
  20562776.462   -17149247.89349 -13335389.20948  20562776.806    20562784.308
       247.000         214.000
  23008535.174    12401907.03949   9675554.58346  23008534.643    23008546.379
       227.000         173.000
  21909703.044   -15768940.19449 -12261338.42947  21909702.109    21909711.489
       233.000         188.000
  20528088.282   -20245856.34349 -15012628.77647  20528088.060    20528096.711
       244.000         212.000
 03  1 11 22  2  0.0000000  0  5G 9G 4G 7G 5G24
  21298930.882   -17130822.53649 -13329430.70947  21298930.167    21298939.465
       239.000         204.000
  20569179.051   -17115602.61349 -13309172.12648  20569179.234    20569186.926
       246.000         215.000
  23019896.537    12461611.14149   9722077.20146  23019896.447    23019907.269
       227.000         172.000
  21895508.395   -15843532.85449 -12319462.48847  21895507.086    21895516.653
       233.000         189.000
  20522086.611   -20277395.56849 -15037204.74247  20522086.545    20522094.966
       245.000         212.000
 03  1 11 22  2 30.0000000  0  5G 9G 4G 7G 5G24
  21303649.643   -17106024.58149 -13310107.63547  21303649.440    21303658.067
       239.000         204.000
  20575686.763   -17081404.44549 -13282524.21148  20575686.828    20575694.684
       246.000         214.000
  23031262.331    12521338.06049   9768617.59846  23031261.789    23031272.970
       227.000         171.000
  21881347.521   -15917948.35849 -12377448.50647  21881346.509    21881356.012
       234.000         189.000
  20516188.646   -20308389.83149 -15061356.06247  20516188.368    20516197.045
       244.000         212.000
 03  1 11 22  3  0.0000000  0  5G 9G 4G 7G 5G24
  21308474.533   -17080669.46249 -13290350.39747  21308474.510    21308482.996
       241.000         204.000
  20582298.993   -17046656.93249 -13255448.23648  20582299.081    20582306.933
       246.000         214.000
  23042632.056    12581085.93149   9815174.30346  23042631.508    23042643.357
       227.000         170.000
  21867220.492   -15992186.23749 -12435296.11747  21867219.779    21867228.847
       234.000         190.000
  20510394.137   -20338840.01049 -15085083.42047  20510393.770    20510402.501
       244.000         212.000
 03  1 11 22  3 30.0000000  0  5G 9G 4G 7G 5G24
  21313405.517   -17054757.41349 -13270159.19247  21313405.526    21313413.682
       241.000         204.000
  20589015.633   -17011360.54549 -13227944.56948  20589015.871    20589023.582
       246.000         214.000
  23054005.857    12640855.77749   9861748.13346  23054005.094    23054016.299
       224.000         170.000
  21853127.933   -16066243.33249 -12493002.86047  21853127.525    21853136.267
       235.000         190.000
  20504703.427   -20368744.49149 -15108385.55448  20504703.079    20504711.963
       244.000         213.000
 03  1 11 22  4  0.0000000  0  5G 9G 4G 7G 5G24
  21318442.127   -17028290.27749 -13249535.45047  21318441.620    21318450.102
       240.000         204.000
  20595836.306   -16975517.77349 -13200015.15048  20595836.269    20595844.138
       246.000         214.000
  23065383.720    12700646.80949   9908338.46746  23065382.968    23065395.006
       225.000         169.000
  21839070.018   -16140118.29449 -12550567.68247  21839069.057    21839078.478
       234.000         191.000
  20499116.546   -20398103.65549 -15131262.76648  20499116.087    20499124.927
       244.000         213.000
 03  1 11 22  4 30.0000000  0  5G 9G 4G 7G 5G24
  21323583.895   -17001269.57549 -13228480.35947  21323583.570    21323592.478
       240.000         204.000
  20602760.619   -16939130.39249 -13171661.35348  20602760.786    20602768.513
       246.000         214.000
  23076765.623    12760458.67449   9954945.03546  23076765.668    23076776.862
       224.000         169.000
  21825046.966   -16213809.25549 -12607989.13347  21825045.965    21825055.154
       235.000         191.000
  20493633.506   -20426917.09549 -15153714.74148  20493633.273    20493641.828
       245.000         213.000
 03  1 11 22  5  0.0000000  0  5G 9G 4G 7G 5G24
  21328830.886   -16973696.40749 -13206994.77547  21328830.808    21328839.339
       241.000         204.000
  20609788.262   -16902200.11949 -13142884.53048  20609788.640    20609795.934
       246.000         214.000
  23088151.578    12820291.42849  10001567.87246  23088151.605    23088163.554
       224.000         169.000
  21811059.380   -16287314.23049 -12665265.64647  21811058.279    21811067.690
       235.000         190.000
  20488254.462   -20455184.26949 -15175741.05848  20488254.157    20488262.598
       245.000         213.000
 03  1 11 22  5 30.0000000  0  5G 9G 4G 7G 5G24
  21334182.701   -16945572.70349 -13185080.19947  21334182.883    21334190.939
       240.000         204.000
  20616918.721   -16864729.50249 -13113686.66048  20616918.844    20616926.372
       246.000         214.000
  23099541.323    12880144.16449  10048206.27546  23099541.800    23099551.770
       223.000         169.000
  21797107.401   -16360631.83749 -12722396.16947  21797106.207    21797115.574
       235.000         190.000
  20482979.304   -20482905.35949 -15197341.85848  20482978.859    20482987.557
       245.000         213.000
 03  1 11 22  6  0.0000000  0  5G 9G 4G 7G 5G24
  21339639.068   -16916899.23649 -13162737.23647  21339638.895    21339647.579
       240.000         204.000
  20624151.696   -16826719.76149 -13084068.68448  20624151.787    20624159.575
       246.000         214.000
  23110934.958    12940017.36249  10094860.62546  23110935.442    23110945.743
       226.000         169.000
  21783191.528   -16433759.30649 -12779378.53547  21783190.111    21783200.041
       234.000         190.000
  20477808.201   -20510079.41349 -15218516.39148  20477807.739    20477816.421
       244.000         213.000
 03  1 11 22  6 30.0000000  0  5G 9G 4G 7G 5G24
  21345199.568   -16887678.45649 -13139967.79447  21345199.566    21345207.934
       240.000         204.000
  20631486.802   -16788173.63049 -13054032.74248  20631486.989    20631494.837
       246.000         215.000
  23122332.429    12999909.99449  10141530.13846  23122332.382    23122342.678
       224.000         167.000
  21769311.942   -16506695.57849 -12836211.90947  21769310.740    21769320.717
       233.000         191.000
  20472741.114   -20536706.93449 -15239265.05648  20472740.737    20472749.315
       245.000         213.000
 03  1 11 22  7  0.0000000  0  5G 9G 4G 7G 5G24
  21350864.095   -16857911.40649 -13116772.69047  21350863.695    21350872.350
       240.000         204.000
  20638923.682   -16749092.70249 -13023580.08748  20638923.880    20638931.482
       246.000         215.000
  23133733.559    13059822.36849  10188215.00446  23133732.710    23133743.950
       221.000         165.000
  21755469.320   -16579438.49549 -12892894.62647  21755468.812    21755478.006
       235.000         192.000
  20467778.180   -20562787.27849 -15259587.35848  20467777.882    20467786.217
       245.000         213.000
 03  1 11 22  7 30.0000000  0  5G 9G 4G 7G 5G24
  21356632.436   -16827598.23649 -13093152.04047  21356632.211    21356640.587
       240.000         203.000
  20646462.143   -16709477.67249 -12992711.24048  20646462.312    20646469.830
       246.000         214.000
  23145138.450    13119755.30549  10234915.88646  23145138.524    23145148.411
       222.000         165.000
  21741664.230   -16651984.85449 -12949424.17747  21741663.310    21741673.152
       235.000         193.000
  20462919.626   -20588318.77049 -15279481.98948  20462919.086    20462927.655
       244.000         213.000
 03  1 11 22  8  0.0000000  0  5G 9G 4G 7G 5G24
  21362504.395   -16796741.11749 -13069107.52747  21362504.396    21362512.605
       241.000         203.000
  20654101.860   -16669330.84549 -12961428.00148  20654102.163    20654109.358
       247.000         214.000
  23156547.371    13179708.34549  10281632.44946  23156546.436    23156557.092
       224.000         166.000
  21727896.805   -16724333.13849 -13005799.38447  21727896.091    21727905.493
       235.000         193.000
  20458165.457   -20613301.60649 -15298949.09248  20458165.097    20458173.881
       245.000         213.000
 03  1 11 22  8 30.0000000  0  5G 9G 4G 7G 5G24
  21368479.469   -16765342.26649 -13044640.88947  21368479.499    21368487.822
       241.000         203.000
  20661842.224   -16628655.09749 -12929732.61748  20661842.564    20661849.936
       247.000         214.000
  23167959.822    13239680.59549  10328363.98146  23167959.385    23167970.301
       224.000         168.000
  21714167.270   -16796482.06449 -13062019.25347  21714166.435    21714175.649
       237.000         193.000
  20453515.698   -20637736.40349 -15317989.15448  20453515.406    20453523.937
       245.000         214.000
 03  1 11 22  9  0.0000000  0  5G 9G 4G 7G 5G24
  21374557.610   -16733401.58349 -13019752.04947  21374557.192    21374565.773
       239.000         203.000
  20669683.203   -16587450.75349 -12897625.34148  20669683.486    20669691.123
       247.000         214.000
  23179376.017    13299673.50549  10375111.62746  23179374.943    23179387.052
       225.000         169.000
  21700476.485   -16868427.80349 -13118080.78647  21700475.633    21700484.234
       236.000         193.000
  20448970.546   -20661621.35949 -15336600.76648  20448970.193    20448978.764
       244.000         214.000
 03  1 11 22  9 30.0000000  0  5G 9G 4G 7G 5G24
  21380738.425   -16700920.68149 -12994442.25447  21380738.013    21380746.969
       240.000         203.000
  20677624.288   -16545719.72049 -12865107.66148  20677624.059    20677632.025
       246.000         214.000
  23190796.148    13359686.79349  10421875.14846  23190795.956    23190806.924
       225.000         170.000
  21686824.567   -16940168.42249 -13173982.48547  21686823.504    21686832.468
       235.000         192.000
  20444529.948   -20684956.49549 -15354783.95148  20444529.577    20444538.065
       245.000         213.000
 03  1 11 22 10  0.0000000  0  5G 9G 4G 7G 5G24
  21387021.548   -16667902.57449 -12968713.86847  21387021.843    21387029.591
       241.000         203.000
  20685664.875   -16503465.78749 -12832182.52948  20685664.912    20685672.757
       246.000         213.000
  23202220.002    13419718.98849  10468653.40646  23202220.027    23202230.284
       225.000         170.000
  21673211.787   -17011703.63949 -13229724.13347  21673210.978    21673219.607
       236.000         192.000
  20440193.747   -20707743.05949 -15372539.67848  20440193.169    20440201.507
       244.000         213.000
 03  1 11 22 10 30.0000000  0  5G 9G 4G 7G 5G24
  21393406.664   -16634349.02849 -12942568.24747  21393406.433    21393414.939
       240.000         204.000
  20693804.677   -16460691.10949 -12798851.62248  20693804.667    20693812.318
       247.000         213.000
  23213647.362    13479769.80649  10515446.15946  23213646.527    23213657.652
       223.000         168.000
  21659638.484   -17083031.45349 -13285304.17247  21659637.335    21659647.238
       236.000         193.000
  20435961.929   -20729980.87349 -15389867.81648  20435961.448    20435970.122
       244.000         213.000
 03  1 11 22 11  0.0000000  0  5G 9G 4G 7G 5G24
  21399893.403   -16600260.73949 -12916005.94847  21399893.192    21399901.485
       240.000         203.000
  20702043.394   -16417396.51949 -12765115.59048  20702043.414    20702050.952
       246.000         213.000
  23225078.350    13539839.98649  10562254.00646  23225077.973    23225089.256
       222.000         166.000
  21646105.182   -17154148.88749 -13340720.28547  21646104.404    21646113.504
       237.000         194.000
  20431834.753   -20751668.83349 -15406767.49248  20431834.026    20431843.054
       243.000         213.000
 03  1 11 22 11 30.0000000  0  5G 9G 4G 7G 5G24
  21406481.658   -16565639.51649 -12889028.37547  21406481.701    21406489.548
       241.000         203.000
  20710380.538   -16373584.19649 -12730976.12948  20710380.552    20710388.195
       246.000         213.000
  23236513.078    13599929.35549  10609076.82046  23236512.507    23236522.752
       223.000         165.000
  21632612.370   -17225054.12749 -13395971.04247  21632611.794    21632620.840
       238.000         195.000
  20427812.198   -20772807.11749 -15423238.84748  20427811.890    20427820.478
       244.000         213.000
 03  1 11 22 12  0.0000000  0  5G 9G 4G 7G 5G24
  21413170.900   -16530487.78449 -12861637.41747  21413170.580    21413179.081
       240.000         203.000
  20718815.650   -16329257.27949 -12696435.68248  20718815.812    20718823.579
       246.000         213.000
  23247951.284    13660036.93649  10655913.80646  23247951.478    23247962.470
       223.000         165.000
  21619160.210   -17295746.09449 -13451055.61647  21619159.867    21619168.414
       238.000         195.000
  20423894.182   -20793396.54349 -15439282.52748  20423894.052    20423902.314
       244.000         213.000
 03  1 11 22 12 30.0000000  0  5G 9G 4G 7G 5G24
  21419960.791   -16494806.07149 -12833833.49447  21419960.610    21419968.985
       240.000         204.000
  20727348.609   -16284416.63149 -12661494.93548  20727348.775    20727356.577
       246.000         213.000
  23259393.076    13720163.93249  10702765.93446  23259391.918    23259404.429
       223.000         166.000
  21605749.138   -17366221.35249 -13505971.32547  21605748.382    21605757.021
       237.000         195.000
  20420080.843   -20813435.78449 -15454897.49448  20420080.662    20420089.047
       245.000         213.000
 03  1 11 22 13  0.0000000  0  5G 9G 4G 7G 5G24
  21426851.304   -16458595.93249 -12805617.80847  21426850.980    21426859.485
       240.000         203.000
  20735978.859   -16239064.22049 -12626155.40548  20735978.871    20735986.708
       246.000         213.000
  23270838.602    13780310.40449  10749633.24646  23270838.114    23270849.231
       224.000         167.000
  21592379.627   -17436477.67849 -13560716.44047  21592378.597    21592387.828
       236.000         195.000
  20416372.237   -20832924.56749 -15470083.53048  20416371.870    20416380.588
       244.000         213.000
 03  1 11 22 13 30.0000000  0  5G 9G 4G 7G 5G24
  21433841.908   -16421859.88649 -12776992.33147  21433841.660    21433850.253
       239.000         203.000
  20744705.991   -16193202.91849 -12590419.33748  20744706.309    20744713.659
       246.000         213.000
  23282287.673    13840475.43149  10796515.01146  23282287.937    23282297.400
       224.000         168.000
  21579052.040   -17506514.00749 -13615290.12547  21579051.324    21579060.559
       237.000         195.000
  20412768.238   -20851863.58049 -15484841.17348  20412767.915    20412776.500
       243.000         213.000
 03  1 11 22 14  0.0000000  0  5G 9G 4G 7G 5G24
  21440932.333   -16384599.69449 -12747958.43447  21440932.351    21440940.251
       240.000         203.000
  20753529.615   -16146834.72049 -12554288.28848  20753529.680    20753537.625
       246.000         213.000
  23293740.315    13900659.05949  10843411.26346  23293739.590    23293750.894
       222.000         168.000
  21565766.736   -17576328.08449 -13669690.63347  21565765.961    21565774.639
       237.000         195.000
  20409268.751   -20870253.10949 -15499170.64448  20409268.348    20409276.869
       243.000         213.000
 03  1 11 22 14 30.0000000  0  5G 9G 4G 7G 5G24
  21448122.116   -16346817.39749 -12718517.69547  21448122.034    21448130.334
       240.000         202.000
  20762449.106   -16099962.37149 -12517764.40348  20762449.196    20762457.317
       245.000         213.000
  23305196.344    13960860.68249  10890321.53146  23305195.289    23305206.789
       220.000         167.000
  21552524.104   -17645918.34849 -13723916.74247  21552523.618    21552532.032
       238.000         195.000
  20405873.753   -20888093.51749 -15513072.23148  20405873.498    20405882.006
       244.000         213.000
 03  1 11 22 15  0.0000000  0  5G 9G 4G 7G 5G24
  21455410.972   -16308514.17349 -12688671.04347  21455410.558    21455419.255
       239.000         202.000
  20771464.215   -16052587.30849 -12480848.78648  20771464.285    20771472.344
       245.000         213.000
  23316655.800    14021081.06449  10937246.41146  23316654.736    23316666.800
       218.000         165.000
  21539324.628   -17715282.05949 -13777966.31447  21539323.756    21539332.611
       238.000         196.000
  20402583.478   -20905384.18049 -15526545.44548  20402583.096    20402591.931
       245.000         213.000
 03  1 11 22 15 30.0000000  0  5G 9G 4G 7G 5G24
  21462798.690   -16269690.99449 -12658419.22847  21462798.404    21462807.147
       239.000         202.000
  20780574.814   -16004710.90749 -12443542.51548  20780575.067    20780582.904
       245.000         213.000
  23328118.914    14081320.88649  10984186.43746  23328118.170    23328128.961
       217.000         163.000
  21526168.755   -17784416.20349 -13831837.00047  21526168.024    21526176.960
       237.000         197.000
  20399397.895   -20922124.40649 -15539589.74248  20399397.531    20399406.044
       244.000         213.000
 03  1 11 22 16  0.0000000  0  5G 9G 4G 7G 5G24
  21470285.004   -16230350.47849 -12627764.30847  21470285.151    21470293.589
       240.000         202.000
  20789780.278   -15956336.23649 -12405847.98747  20789780.464    20789788.246
       246.000         212.000
  23339585.626    14141579.26649  11031140.92346  23339585.231    23339596.659
       220.000         164.000
  21513056.729   -17853319.77749 -13885528.02447  21513055.881    21513065.548
       237.000         197.000
  20396316.851   -20938315.05649 -15552205.80148  20396316.654    20396325.031
       244.000         213.000
 03  1 11 22 16 30.0000000  0  5G 9G 4G 7G 5G24
  21477869.209   -16190495.84249 -12596708.76847  21477869.241    21477877.585
       240.000         202.000
  20799079.853   -15907466.74749 -12367767.89147  20799079.997    20799087.610
       246.000         212.000
  23351055.806    14201854.86449  11078108.83946  23351055.441    23351067.884
       223.000         167.000
  21499988.814   -17921991.90549 -13939038.70947  21499988.018    21499997.048
       237.000         197.000
  20393340.206   -20953957.44849 -15564394.64948  20393340.044    20393348.445
       244.000         214.000
 03  1 11 22 17  0.0000000  0  5G 9G 4G 7G 5G24
  21485550.964   -16150127.95649 -12565253.29047  21485550.583    21485559.423
       238.000         201.000
  20808473.366   -15858103.70049 -12329303.19847  20808473.424    20808481.054
       246.000         212.000
  23362529.334    14262148.58549  11125090.88446  23362528.708    23362540.929
       224.000         169.000
  21486965.558   -17990429.59249 -13992366.70447  21486964.794    21486974.450
       238.000         198.000
  20390467.968   -20969050.90549 -15576155.74748  20390467.283    20390476.085
       244.000         213.000
 03  1 11 22 17 30.0000000  0  5G 9G 4G 7G 5G24
  21493329.955   -16109248.28749 -12533399.02647  21493329.448    21493338.447
       236.000         200.000
  20817960.387   -15808249.04349 -12290455.43847  20817960.506    20817968.597
       246.000         212.000
  23374006.379    14322460.84249  11172087.37546  23374005.812    23374018.331
       224.000         170.000
  21473987.332   -18058630.38149 -14045510.11247  21473986.628    21473995.831
       238.000         199.000
  20387700.209   -20983595.17849 -15587488.92148  20387700.379    20387708.191
       245.000         213.000
 03  1 11 22 18  0.0000000  0  5G 9G 4G 7G 5G24
  21501206.089   -16067858.06349 -12501146.92947  21501205.895    21501214.610
       237.000         200.000
  20827540.759   -15757904.21549 -12251225.72247  20827541.183    20827548.806
       247.000         212.000
  23385487.153    14382792.31149  11219098.83246  23385487.144    23385498.058
       225.000         170.000
  21461054.655   -18126591.53649 -14098466.79347  21461054.031    21461062.769
       238.000         199.000
  20385037.199   -20997590.00949 -15598393.95048  20385036.993    20385045.266
       246.000         214.000
 03  1 11 22 18 30.0000000  0  5G 9G 4G 7G 5G24
  21509178.771   -16025961.40249 -12468500.21647  21509179.235    21509187.482
       239.000         201.000
  20837213.550   -15707073.67649 -12211617.52947  20837213.957    20837221.598
       246.000         212.000
  23396971.223    14443140.83149  11266123.57446  23396971.803    23396982.442
       226.000         169.000
  21448167.716   -18194312.89449 -14151236.62047  21448167.333    21448176.184
       239.000         199.000
  20382478.232   -21011037.58649 -15608872.54848  20382477.964    20382486.440
       246.000         214.000
 03  1 11 22 19  0.0000000  0  5G 9G 4G 7G 5G24
  21517247.672   -15983560.33249 -12435460.44847  21517247.669    21517256.003
       239.000         201.000
  20846978.385   -15655759.51349 -12171632.49547  20846978.377    20846986.007
       245.000         212.000
  23408458.698    14503506.56749  11313161.74646  23408458.022    23408469.950
       223.000         169.000
  21435326.885   -18261792.40349 -14203817.99847  21435326.292    21435334.870
       239.000         199.000
  20380023.368   -21023937.82449 -15618924.65048  20380022.964    20380031.374
       246.000         214.000
 03  1 11 22 19 30.0000000  0  6G 9G30G 4G 7G 5G24
  21525411.345   -15940660.08749 -12402031.71547  21525411.258    21525419.790
       238.000         201.000
  24353238.740    -2885390.37849  -2231513.19545  24353238.454    24353254.528
       210.000         148.000
  20856834.011   -15603967.71149 -12131275.27647  20856834.174    20856841.631
       245.000         211.000
  23419948.648    14563885.94149  11360210.51646  23419948.557    23419960.354
       221.000         167.000
  21422531.639   -18329031.51649 -14256212.04747  21422530.940    21422539.720
       239.000         199.000
  20377671.895   -21036294.93149 -15628553.53748  20377671.572    20377679.830
       247.000         214.000
 03  1 11 22 20  0.0000000  0  6G 9G30G 4G 7G 5G24
  21533669.735   -15897261.97249 -12368215.03247  21533669.881    21533678.611
       239.000         201.000
  24334374.575    -2984522.40349  -2308758.70145  24334374.583    24334388.785
       210.000         147.000
  20866780.292   -15551699.64149 -12090546.92847  20866780.209    20866788.164
       245.000         211.000
  23431441.321    14624279.80449  11407270.60446  23431441.131    23431453.292
       219.000         166.000
  21409782.758   -18396027.20249 -14308416.41047  21409781.667    21409790.330
       239.000         199.000
  20375423.918   -21048108.18149 -15637758.64348  20375423.638    20375431.723
       246.000         214.000
 03  1 11 22 20 30.0000000  0  6G 9G30G 4G 7G 5G24
  21542024.044   -15853360.22549 -12334005.90247  21542023.987    21542032.520
       238.000         200.000
  24315509.426    -3083659.23749  -2386007.94745  24315509.093    24315523.930
       211.000         148.000
  20876818.171   -15498949.99249 -12049443.32947  20876818.429    20876826.256
       246.000         211.000
  23442938.106    14684695.94949  11454348.05046  23442937.752    23442949.658
       218.000         163.000
  21397082.011   -18462769.67749 -14360423.47047  21397081.469    21397089.590
       240.000         200.000
  20373280.798   -21059370.05649 -15646534.10348  20373280.182    20373288.897
       246.000         214.000
 03  1 11 22 21  0.0000000  0  6G 9G30G 4G 7G 5G24
  21550473.519   -15808958.03749 -12299406.83047  21550473.548    21550482.174
       238.000         200.000
  24296643.218    -3182800.75449  -2463260.85445  24296642.734    24296656.646
       213.000         148.000
  20886947.108   -15445722.26649 -12007967.20747  20886947.517    20886955.119
       246.000         211.000
  23454438.893    14745133.05449  11501441.81745  23454439.379    23454451.043
       218.000         161.000
  21384429.627   -18529258.14049 -14412232.60347  21384429.118    21384437.425
       240.000         200.000
  20371242.290   -21070082.41849 -15654881.37748  20371242.043    20371250.248
       247.000         214.000
 03  1 11 22 21 30.0000000  0  6G 9G30G 4G 7G 5G24
  21559017.607   -15764058.80849 -12264420.45147  21559017.633    21559026.007
       238.000         200.000
  24277776.085    -3281946.56649  -2540517.12345  24277775.356    24277790.843
       212.000         147.000
  20897166.349   -15392020.03449 -11966121.33247  20897166.603    20897174.243
       246.000         211.000
  23465943.550    14805589.69249  11548550.80545  23465943.585    23465955.207
       218.000         161.000
  21371825.828   -18595491.85049 -14463843.22247  21371825.183    21371833.567
       239.000         201.000
  20369308.017   -21080246.83849 -15662801.68848  20369307.602    20369315.931
       246.000         214.000
 03  1 11 22 22  0.0000000  0  6G 9G30G 4G 7G 5G24
  21567655.694   -15718665.78149 -12229049.29347  21567655.523    21567663.956
       238.000         200.000
  24258908.318    -3381096.10149  -2617776.27745  24258907.918    24258922.737
       211.000         148.000
  20907475.244   -15337846.67249 -11923908.34247  20907475.596    20907482.855
       246.000         211.000
  23477451.929    14866065.10549  11595674.42145  23477451.479    23477463.512
       218.000         161.000
  21359270.677   -18661469.66849 -14515254.44647  21359269.815    21359278.697
       240.000         201.000
  20367477.809   -21089864.54249 -15670295.99448  20367477.789    20367485.767
       247.000         214.000
 03  1 11 22 22 30.0000000  0  6G 9G30G 4G 7G 5G24
  21576387.305   -15672780.55049 -12193294.59847  21576386.828    21576395.931
       237.000         199.000
  24240040.154    -3480247.52549  -2695036.87745  24240040.179    24240055.204
       210.000         149.000
  20917873.356   -15283204.60849 -11881330.13247  20917873.478    20917881.044
       246.000         211.000
  23488963.758    14926559.42649  11642812.78145  23488963.599    23488976.475
       218.000         161.000
  21346764.538   -18727189.17549 -14566464.39347  21346763.613    21346772.648
       239.000         200.000
  20365751.628   -21098935.96349 -15677364.61848  20365751.434    20365759.496
       246.000         215.000
 03  1 11 22 23  0.0000000  0  6G 9G30G 4G 7G 5G24
  21585211.953   -15626405.70349 -12157158.39347  21585211.879    21585220.844
       237.000         199.000
  24221172.361    -3579399.60349  -2772297.97345  24221172.921    24221186.070
       215.000         151.000
  20928360.169   -15228096.25649 -11838388.58547  20928360.188    20928367.993
       245.000         211.000
  23500479.179    14987072.43949  11689965.71445  23500478.717    23500491.960
       216.000         160.000
  21334307.928   -18792648.74349 -14617471.79547  21334307.146    21334315.805
       239.000         200.000
  20364129.213   -21107461.68249 -15684008.01948  20364128.807    20364136.915
       247.000         214.000
 03  1 11 22 23 30.0000000  0  6G 9G30G 4G 7G 5G24
  21594129.485   -15579544.15849 -12120642.93647  21594129.415    21594138.457
       237.000         200.000
  24202304.608    -3678551.43649  -2849558.87645  24202304.883    24202317.440
       215.000         151.000
  20938935.046   -15172524.69649 -11795086.09247  20938934.947    20938942.666
       245.000         210.000
  23511997.991    15047603.42649  11737132.62445  23511996.953    23512009.575
       216.000         157.000
  21321901.014   -18857846.85449 -14668275.45747  21321900.086    21321909.169
       239.000         200.000
  20362610.349   -21115443.05949 -15690227.26148  20362609.968    20362618.531
       247.000         214.000
 03  1 11 22 24  0.0000000  0  6G 9G30G 4G 7G 5G24
  21603139.306   -15532197.24849 -12083749.28047  21603138.898    21603148.213
       238.000         200.000
  24183437.113    -3777700.86249  -2926817.93145  24183436.875    24183449.303
       212.000         150.000
  20949597.660   -15116491.94249 -11751424.22747  20949597.575    20949605.463
       244.000         210.000
  23523519.959    15108153.22449  11784314.22145  23523518.727    23523531.348
       213.000         154.000
  21309544.385   -18922780.86949 -14718873.34147  21309543.510    21309552.523
       240.000         201.000
  20361195.197   -21122879.66849 -15696022.01348  20361195.158    20361203.335
       247.000         215.000
 03  1 11 22 24 30.0000000  0  6G 9G30G 4G 7G 5G24
  21612241.268   -15484365.91049 -12046478.13447  21612241.287    21612249.812
       238.000         199.000
  24164570.532    -3876844.98049  -3004072.83645  24164570.456    24164582.860
       212.000         148.000
  20960347.815   -15059999.08249 -11707403.83147  20960347.983    20960355.719
       245.000         210.000
  23535045.799    15168722.88249  11831511.26045  23535045.627    23535058.249
       216.000         153.000
  21297238.639   -18987447.46049 -14769262.83847  21297238.259    21297246.508
       240.000         201.000
  20359883.901   -21129770.90349 -15701391.79248  20359883.596    20359891.822
       247.000         215.000
 03  1 11 22 25  0.0000000  0  6G 9G30G 4G 7G 5G24
  21621434.766   -15436054.04349 -12008832.55547  21621434.602    21621443.556
       238.000         199.000
  24145704.869    -3975983.72649  -3081323.57645  24145704.457    24145717.662
       208.000         146.000
  20971184.889   -15003050.16049 -11663028.06647  20971185.031    20971192.724
       245.000         210.000
  23546575.334    15229310.90349  11878722.62345  23546574.026    23546587.607
       216.000         154.000
  21284983.985   -19051846.16749 -14819443.58847  21284983.373    21284991.743
       241.000         202.000
  20358675.844   -21136119.05349 -15706338.39048  20358675.582    20358683.513
       247.000         215.000
 03  1 11 22 25 30.0000000  0  6G 9G30G 4G 7G 5G24
  21630719.365   -15387263.43049 -11970813.93647  21630719.714    21630728.451
       238.000         200.000
  24126840.546    -4075115.22849  -3158568.64945  24126840.166    24126853.147
       205.000         143.000
  20982108.328   -14945647.10549 -11618298.43747  20982108.479    20982116.253
       245.000         209.000
  23558108.451    15289917.75149  11925948.66345  23558107.971    23558120.521
       218.000         155.000
  21272780.788   -19115974.41149 -14869413.59247  21272780.381    21272788.914
       240.000         203.000
  20357571.182   -21141924.14249 -15710861.82448  20357571.177    20357579.042
       247.000         215.000
 03  1 11 22 26  0.0000000  0  6G 9G30G 4G 7G 5G24
  21640094.736   -15337996.21049 -11932423.93347  21640094.704    21640104.030
       238.000         200.000
  24107977.819    -4174237.68949  -3235806.67645  24107977.824    24107990.446
       211.000         144.000
  20993117.726   -14887792.53549 -11573216.98747  20993118.117    20993125.552
       245.000         209.000
  23569645.178    15350543.52649  11973189.45345  23569644.435    23569656.512
       219.000         156.000
  21260629.444   -19179830.09549 -14919171.20947  21260628.803    21260637.357
       241.000         203.000
  20356569.769   -21147186.72449 -15714962.52448  20356569.390    20356577.584
       247.000         215.000
 03  1 11 22 26 30.0000000  0  6G 9G30G 4G 7G 5G24
  21649560.287   -15288254.69749 -11893664.34947  21649560.381    21649568.546
       239.000         199.000
  24089117.219    -4273349.52449  -3313036.43745  24089117.011    24089130.737
       208.000         145.000
  21004212.525   -14829489.11849 -11527785.78247  21004212.866    21004220.456
       245.000         209.000
  23581185.489    15411188.06949  12020444.86145  23581184.736    23581197.182
       220.000         158.000
  21248530.362   -19243411.25149 -14968714.91447  21248529.689    21248537.892
       241.000         202.000
  20355671.309   -21151907.84049 -15718641.29748  20355670.852    20355679.243
       246.000         214.000
 03  1 11 22 27  0.0000000  0  6G 9G30G 4G 7G 5G24
  21659115.574   -15238041.69249 -11854537.36747  21659115.516    21659123.932
       238.000         199.000
  24070258.644    -4372449.77949  -3390257.18345  24070258.657    24070271.334
       201.000         145.000
  21015392.211   -14770739.98449 -11482007.26647  21015392.397    21015400.002
       245.000         209.000
  23592729.341    15471850.79149  12067714.43045  23592728.904    23592741.433
       220.000         160.000
  21236483.680   -19306716.35549 -15018043.51747  21236482.979    21236491.397
       240.000         202.000
  20354875.718   -21156088.28649 -15721898.77248  20354875.293    20354883.806
       246.000         214.000
 03  1 11 22 27 30.0000000  0  6G 9G30G 4G 7G 5G24
  21668760.202   -15187358.52449 -11815044.02747  21668759.990    21668769.276
       237.000         199.000
  24051402.741    -4471535.87349  -3467466.86445  24051402.910    24051416.213
       205.000         143.000
  21026656.393   -14711546.47049 -11435882.48247  21026656.499    21026664.338
       244.000         208.000
  23604276.813    15532532.81749  12114999.03345  23604276.280    23604288.100
       220.000         161.000
  21224490.156   -19369742.49749 -15067154.75147  21224489.602    21224497.774
       241.000         202.000
  20354183.092   -21159727.78249 -15724734.72648  20354182.952    20354190.967
       247.000         215.000
 03  1 11 22 28  0.0000000  0  6G 9G30G 4G 7G 5G24
  21678493.910   -15136207.16549 -11775185.87547  21678493.621    21678502.765
       237.000         198.000
  24032550.163    -4570605.56549  -3544663.82345  24032549.532    24032562.740
       208.000         140.000
  21038004.659   -14651910.56249 -11389412.97547  21038004.602    21038012.319
       243.000         208.000
  23615827.886    15593234.80649  12162299.20845  23615827.373    23615838.904
       221.000         162.000
  21212550.313   -19432486.88949 -15116046.43147  21212549.498    21212557.771
       241.000         202.000
  20353593.376   -21162826.93549 -15727149.63148  20353593.261    20353601.460
       247.000         215.000
 03  1 11 22 28 30.0000000  0  6G 9G30G 4G 7G 5G24
  21688316.204   -15084590.94149 -11734965.48347  21688316.351    21688325.401
       237.000         198.000
  24013701.033    -4669658.03049  -3621847.35745  24013700.561    24013713.771
       207.000         140.000
  21049436.494   -14591835.72049 -11342601.44047  21049436.768    21049444.305
       244.000         207.000
  23627382.635    15653955.79549  12209614.18146  23627382.004    23627394.567
       222.000         163.000
  21200664.146   -19494948.52249 -15164717.78247  21200663.386    21200671.845
       241.000         203.000
  20353106.236   -21165387.03049 -15729144.48948  20353105.978    20353114.350
       246.000         215.000
 03  1 11 22 29  0.0000000  0  6G 9G30G 4G 7G 5G24
  21698226.415   -15032512.45549 -11694384.88647  21698226.530    21698235.348
       236.000         198.000
  23994855.556    -4768692.01449  -3699016.47345  23994856.836    23994868.274
       211.000         143.000
  21060951.335   -14531324.90349 -11295450.19247  21060951.497    21060959.211
       244.000         207.000
  23638941.162    15714695.48749  12256943.73946  23638941.761    23638953.953
       221.000         165.000
  21188832.104   -19557125.59549 -15213167.40047  21188831.207    21188839.754
       240.000         203.000
  20352721.407   -21167409.34449 -15730720.29748  20352720.924    20352729.222
       246.000         215.000
 03  1 11 22 29 30.0000000  0  6G 9G30G 4G 7G 5G24
  21708224.313   -14979973.74049 -11653445.67147  21708224.219    21708233.065
       236.000         197.000
  23976013.836    -4867705.71849  -3776169.79245  23976012.962    23976026.639
       210.000         145.000
  21072548.736   -14470380.51149 -11247961.10047  21072548.848    21072556.720
       244.000         208.000
  23650503.264    15775454.19849  12304288.08846  23650502.898    23650515.233
       221.000         166.000
  21177054.693   -19619015.87249 -15261393.53747  21177054.220    21177062.759
       242.000         204.000
  20352438.795   -21168894.46349 -15731877.52048  20352438.400    20352446.675
       246.000         215.000
 03  1 11 22 30  0.0000000  0  6G 9G30G 4G 7G 5G24
  21718309.281   -14926976.78749 -11612149.39347  21718309.147    21718318.007
       237.000         197.000
  23957176.309    -4966696.79949  -3853305.47445  23957175.562    23957189.319
       208.000         144.000
  21084228.141   -14409004.65849 -11200135.80347  21084228.193    21084236.117
       244.000         207.000
  23662069.038    15836232.36149  12351647.61846  23662068.501    23662081.026
       220.000         165.000
  21165332.467   -19680616.70349 -15309394.13047  21165331.916    21165340.449
       241.000         204.000
  20352258.261   -21169842.76849 -15732616.44148  20352257.835    20352265.931
       246.000         214.000
 03  1 11 22 30 30.0000000  0  6G 9G30G 4G 7G 5G24
  21728481.017   -14873523.81049 -11570497.77047  21728480.896    21728490.087
       236.000         196.000
  23938343.319    -5065663.44749  -3930422.10645  23938342.360    23938354.869
       207.000         141.000
  21095989.282   -14347199.51249 -11151975.99347  21095989.500    21095997.520
       244.000         207.000
  23673638.582    15897030.45949  12399022.67746  23673637.282    23673651.011
       219.000         164.000
  21153665.739   -19741925.80949 -15357167.41247  21153665.222    21153673.483
       241.000         204.000
  20352179.940   -21170254.42949 -15732937.20048  20352179.919    20352187.936
       247.000         215.000
 03  1 11 22 31  0.0000000  0  6G 9G30G 4G 7G 5G24
  21738739.180   -14819616.96249 -11528492.48347  21738739.434    21738748.327
       237.000         196.000
  23919515.355    -5164603.73849  -4007518.21945  23919513.475    23919527.058
       211.000         141.000
  21107831.701   -14284967.53249 -11103483.58547  21107832.112    21107839.989
       244.000         207.000
  23685211.974    15957848.79349  12446413.51345  23685211.849    23685224.305
       215.000         162.000
  21142054.907   -19802940.92949 -15404711.61247  21142054.350    21142062.913
       241.000         204.000
  20352203.634   -21170130.12349 -15732840.31548  20352203.483    20352211.689
       247.000         215.000
 03  1 11 22 31 30.0000000  0  6G 9G30G 4G 7G 5G24
  21749083.265   -14765258.90549 -11486135.59647  21749083.143    21749092.320
       236.000         197.000
  23900692.642    -5263516.26949  -4084592.73045  23900692.715    23900704.131
       215.000         143.000
  21119754.783   -14222311.58249 -11054660.81147  21119755.008    21119763.211
       243.000         207.000
  23696789.189    16018686.79549  12493819.66545  23696788.455    23696801.470
       214.000         160.000
  21130500.422   -19863660.15049 -15452025.23547  21130500.169    21130508.025
       243.000         205.000
  20352329.020   -21169471.27149 -15732326.90548  20352328.706    20352337.002
       246.000         215.000
 03  1 11 22 32  0.0000000  0  6G 9G30G 4G 7G 5G24
  21759512.692   -14710452.27849 -11443429.19147  21759512.773    21759521.895
       236.000         197.000
  23881875.598    -5362399.14549  -4161644.15445  23881874.352    23881888.173
       213.000         145.000
  21131757.997   -14159234.33749 -11005509.75947  21131758.518    21131765.891
       244.000         207.000
  23708370.145    16079545.00449  12541241.55345  23708369.887    23708383.033
       213.000         159.000
  21119002.681   -19924081.46249 -15499106.72347  21119002.079    21119010.177
       243.000         205.000
  20352555.966   -21168278.49449 -15731397.45848  20352555.859    20352563.888
       247.000         215.000
 03  1 11 22 32 30.0000000  0  6G 9G30G 4G 7G 5G24
  21770027.110   -14655198.77849 -11400374.56347  21770027.334    21770036.144
       237.000         197.000
  23863064.758    -5461250.11249  -4238670.70245  23863064.744    23863077.229
       214.000         146.000
  21143841.150   -14095737.70149 -10956031.91247  21143841.413    21143849.434
       243.000         207.000
  23719955.113    16140423.86149  12588679.53445  23719954.947    23719967.389
       214.000         157.000
  21107562.160   -19984202.05149 -15545953.87947  21107561.609    21107569.746
       243.000         205.000
  20352884.452   -21166552.37549 -15730052.41848  20352884.251    20352892.364
       247.000         215.000
 03  1 11 22 33  0.0000000  0  6G 9G30G 4G 7G 5G24
  21780625.942   -14599502.06549 -11356974.56347  21780625.896    21780635.069
       237.000         197.000
  23844259.973    -5560068.81149  -4315672.07445  23844260.352    23844272.386
       213.000         147.000
  21156003.252   -14031825.56449 -10906230.29147  21156003.424    21156011.694
       243.000         207.000
  23731544.039    16201322.41749  12636132.87145  23731543.874    23731555.844
       212.000         157.000
  21096178.918   -20044021.35049 -15592566.25947  21096177.890    21096186.630
       242.000         205.000
  20353314.018   -21164294.99349 -15728293.39648  20353313.704    20353321.844
       245.000         215.000
 03  1 11 22 33 30.0000000  0  6G 9G30G 4G 7G 5G24
  21791308.642   -14543364.41149 -11313230.98747  21791308.641    21791317.887
       237.000         197.000
  23825461.901    -5658853.00249  -4392646.56345  23825461.686    23825474.768
       216.000         149.000
  21168243.926   -13967500.21649 -10856106.68847  21168243.860    21168252.268
       243.000         207.000
  23743136.745    16262240.86249  12683601.69845  23743136.129    23743148.682
       214.000         156.000
  21084853.323   -20103536.96149 -15638942.00847  21084852.390    21084861.118
       242.000         205.000
  20353844.504   -21161506.82549 -15726120.78548  20353844.037    20353852.305
       245.000         215.000
 03  1 11 22 34  0.0000000  0  6G 9G30G 4G 7G 5G24
  21802074.846   -14486787.79849 -11269145.36447  21802074.608    21802084.302
       236.000         197.000
  23806670.841    -5757600.39249  -4469592.40545  23806669.915    23806683.797
       219.000         151.000
  21180562.772   -13902764.03049 -10805662.94447  21180562.901    21180570.827
       243.000         206.000
  23754733.093    16323179.85249  12731086.54845  23754732.341    23754745.429
       213.000         157.000
  21073586.045   -20162746.23049 -15685079.04147  21073585.290    21073593.969
       242.000         206.000
  20354475.874   -21158188.66049 -15723535.19248  20354475.370    20354483.825
       244.000         215.000
